[[{"header":{"parameterUnit":"m.s-1","parameterCategory":1,"la1":30.6,"la2":29.2853,"lo1":-89.7004,"lo2":-87.6739,"dy":0.0162,"dx":0.0183,"nx":112,"ny":82,"refTime":"2023-09-21T00:00:00:Z","depth":0,"parameterNumber":2,"parameterNumberName":"U-component_of_WINDS"},"data":[0.0,0.0,0.0,0.0,0.0,0.0,0.0,0.0,0.0,0.0,0.0,0.0,0.0,0.0,0.0,0.0,0.0,0.0,0.0,0.0,0.0,0.0,0.0,0.0,0.0,0.0,0.0,0.0,0.0,0.0,0.0,0.0,0.0,0.0,0.0,0.0,0.0,0.0,0.0,0.0,0.0,0.0,0.0,0.0,0.0,0.0,0.0,0.0,0.0,0.0,0.0,0.0,0.0,0.0,0.0,0.0,0.0,0.0,0.0,0.0,0.0,0.0,0.0,0.0,0.0,0.0,0.0,0.0,0.0,0.0,0.0,0.0,0.0,0.0,0.0,0.0,0.0,0.0,0.0,0.0,0.0,0.0,0.0,0.0,0.0,0.0,0.0,0.0,0.0,0.0,-2.1454,-2.115,-2.118,-2.127,-2.1366,-2.1819,-2.2132,-2.2237,0.0,0.0,0.0,0.0,0.0,0.0,0.0,0.0,0.0,0.0,0.0,0.0,0.0,0.0,0.0,0.0,0.0,0.0,0.0,0.0,0.0,0.0,0.0,0.0,0.0,0.0,0.0,0.0,0.0,0.0,0.0,0.0,0.0,0.0,0.0,0.0,0.0,0.0,0.0,0.0,0.0,0.0,0.0,0.0,0.0,0.0,0.0,0.0,0.0,0.0,0.0,0.0,0.0,0.0,0.0,0.0,0.0,0.0,0.0,0.0,0.0,0.0,0.0,0.0,0.0,0.0,0.0,0.0,0.0,0.0,0.0,0.0,0.0,0.0,0.0,0.0,0.0,0.0,0.0,0.0,0.0,0.0,0.0,0.0,0.0,0.0,0.0,0.0,0.0,0.0,0.0,0.0,0.0,0.0,0.0,0.0,0.0,0.0,0.0,0.0,0.0,0.0,0.0,0.0,-2.1817,-2.2411,-2.2075,-2.2025,-2.2639,-2.2347,-2.2329,-2.2914,0.0,0.0,0.0,0.0,0.0,0.0,0.0,0.0,0.0,0.0,0.0,0.0,0.0,0.0,0.0,0.0,0.0,0.0,0.0,0.0,0.0,0.0,0.0,0.0,0.0,0.0,0.0,0.0,0.0,0.0,0.0,0.0,0.0,0.0,0.0,0.0,0.0,0.0,0.0,0.0,0.0,0.0,0.0,0.0,0.0,0.0,0.0,0.0,0.0,0.0,0.0,0.0,0.0,0.0,0.0,0.0,0.0,0.0,0.0,0.0,0.0,0.0,0.0,0.0,0.0,0.0,0.0,0.0,0.0,0.0,0.0,0.0,0.0,0.0,0.0,0.0,0.0,0.0,0.0,0.0,0.0,0.0,0.0,0.0,0.0,0.0,0.0,0.0,0.0,0.0,0.0,0.0,0.0,0.0,0.0,0.0,0.0,0.0,0.0,0.0,0.0,0.0,0.0,-2.2999,-2.3454,-2.4222,-2.3817,-2.3624,-2.3939,-2.3725,-2.3516,-2.3418,-2.3547,0.0,0.0,0.0,0.0,0.0,0.0,0.0,0.0,0.0,0.0,0.0,0.0,0.0,0.0,0.0,0.0,0.0,0.0,0.0,0.0,0.0,0.0,0.0,0.0,0.0,0.0,0.0,0.0,0.0,0.0,0.0,0.0,0.0,0.0,0.0,0.0,0.0,0.0,0.0,0.0,0.0,0.0,0.0,0.0,0.0,0.0,0.0,0.0,0.0,0.0,0.0,0.0,0.0,0.0,0.0,0.0,0.0,0.0,0.0,0.0,0.0,0.0,0.0,0.0,0.0,0.0,0.0,0.0,0.0,0.0,0.0,0.0,0.0,0.0,0.0,0.0,0.0,0.0,0.0,0.0,0.0,0.0,0.0,0.0,0.0,0.0,0.0,0.0,0.0,0.0,0.0,0.0,0.0,0.0,0.0,0.0,0.0,0.0,0.0,0.0,0.0,0.0,-2.4296,-2.4687,-2.545,-2.519,-2.5008,-2.5008,-2.4863,-2.458,-2.4016,-2.4517,0.0,0.0,0.0,0.0,0.0,0.0,0.0,0.0,0.0,0.0,0.0,0.0,0.0,0.0,0.0,0.0,0.0,0.0,0.0,0.0,0.0,0.0,0.0,0.0,0.0,0.0,0.0,0.0,0.0,0.0,0.0,0.0,0.0,0.0,0.0,0.0,0.0,0.0,0.0,0.0,0.0,0.0,0.0,0.0,0.0,0.0,0.0,0.0,0.0,0.0,0.0,0.0,0.0,0.0,0.0,0.0,0.0,0.0,0.0,0.0,0.0,0.0,0.0,0.0,0.0,0.0,0.0,0.0,0.0,0.0,0.0,0.0,0.0,0.0,0.0,0.0,0.0,0.0,0.0,0.0,0.0,0.0,0.0,0.0,0.0,0.0,0.0,0.0,0.0,0.0,0.0,0.0,0.0,0.0,0.0,0.0,0.0,0.0,0.0,0.0,0.0,0.0,-2.4122,-2.4434,-2.5252,-2.5456,-2.5536,-2.5536,-2.5096,-2.4775,-2.4738,-2.5621,0.0,0.0,0.0,0.0,0.0,0.0,0.0,0.0,0.0,0.0,0.0,0.0,0.0,0.0,0.0,0.0,0.0,0.0,0.0,0.0,0.0,0.0,0.0,0.0,0.0,0.0,0.0,0.0,0.0,0.0,0.0,0.0,0.0,0.0,0.0,0.0,0.0,0.0,0.0,0.0,0.0,0.0,0.0,0.0,0.0,0.0,0.0,0.0,0.0,0.0,0.0,0.0,0.0,0.0,0.0,0.0,0.0,0.0,0.0,0.0,0.0,0.0,0.0,0.0,0.0,0.0,0.0,0.0,0.0,0.0,0.0,0.0,0.0,0.0,0.0,0.0,0.0,0.0,0.0,0.0,0.0,0.0,0.0,0.0,0.0,0.0,0.0,0.0,0.0,0.0,0.0,0.0,0.0,0.0,0.0,0.0,0.0,0.0,0.0,0.0,0.0,0.0,-2.4862,-2.5158,-2.5955,-2.6127,-2.6172,-2.6172,-2.5996,-2.5653,-2.5203,0.0,0.0,0.0,0.0,0.0,0.0,0.0,0.0,0.0,0.0,0.0,0.0,0.0,0.0,0.0,0.0,0.0,0.0,0.0,0.0,0.0,0.0,0.0,0.0,0.0,0.0,0.0,0.0,0.0,0.0,0.0,0.0,0.0,0.0,0.0,0.0,0.0,0.0,0.0,0.0,0.0,0.0,0.0,0.0,0.0,0.0,0.0,0.0,0.0,0.0,0.0,0.0,0.0,0.0,0.0,0.0,0.0,0.0,0.0,0.0,0.0,0.0,0.0,0.0,0.0,0.0,0.0,0.0,0.0,0.0,0.0,0.0,0.0,0.0,0.0,0.0,0.0,0.0,0.0,0.0,0.0,0.0,0.0,0.0,0.0,0.0,0.0,0.0,0.0,0.0,0.0,0.0,0.0,0.0,0.0,0.0,0.0,0.0,0.0,0.0,0.0,0.0,-2.5158,-2.5087,-2.5229,-2.6025,-2.6349,-2.6499,-2.6499,-2.6499,-2.6289,-2.5777,0.0,0.0,0.0,0.0,0.0,0.0,0.0,0.0,0.0,0.0,0.0,0.0,0.0,0.0,0.0,0.0,0.0,0.0,0.0,0.0,0.0,0.0,0.0,0.0,0.0,0.0,0.0,0.0,0.0,0.0,0.0,0.0,0.0,0.0,0.0,0.0,0.0,0.0,0.0,0.0,0.0,0.0,0.0,0.0,0.0,0.0,0.0,0.0,0.0,0.0,0.0,0.0,0.0,0.0,0.0,0.0,0.0,0.0,0.0,0.0,0.0,0.0,0.0,0.0,0.0,0.0,0.0,0.0,0.0,0.0,0.0,0.0,0.0,0.0,0.0,0.0,0.0,0.0,0.0,0.0,0.0,0.0,0.0,0.0,0.0,0.0,0.0,0.0,0.0,0.0,0.0,0.0,0.0,0.0,0.0,0.0,0.0,0.0,0.0,0.0,0.0,0.0,-2.5123,-2.4636,-2.4409,-2.5229,-2.6025,-2.6499,-2.6499,-2.6499,-2.6499,0.0,0.0,0.0,0.0,0.0,0.0,0.0,0.0,0.0,0.0,0.0,0.0,0.0,0.0,0.0,0.0,0.0,0.0,0.0,0.0,0.0,0.0,0.0,0.0,0.0,0.0,0.0,0.0,0.0,0.0,0.0,0.0,0.0,0.0,0.0,0.0,0.0,0.0,0.0,0.0,0.0,0.0,0.0,0.0,0.0,0.0,0.0,0.0,0.0,0.0,0.0,0.0,0.0,0.0,0.0,0.0,0.0,0.0,0.0,0.0,0.0,0.0,0.0,0.0,0.0,0.0,0.0,0.0,0.0,0.0,0.0,0.0,0.0,0.0,0.0,0.0,0.0,0.0,0.0,0.0,0.0,0.0,0.0,0.0,0.0,0.0,0.0,0.0,0.0,0.0,0.0,0.0,0.0,0.0,0.0,0.0,0.0,0.0,0.0,0.0,0.0,0.0,0.0,-2.6151,-2.5697,-2.5545,-2.622,-2.6508,-2.6589,-2.6499,-2.6499,-2.6499,-2.6499,0.0,0.0,0.0,0.0,0.0,0.0,0.0,0.0,0.0,0.0,0.0,0.0,0.0,0.0,0.0,0.0,0.0,0.0,0.0,0.0,0.0,0.0,0.0,0.0,0.0,0.0,0.0,0.0,0.0,0.0,0.0,0.0,0.0,0.0,0.0,0.0,0.0,0.0,0.0,0.0,0.0,0.0,0.0,0.0,0.0,0.0,0.0,0.0,0.0,0.0,0.0,0.0,0.0,0.0,0.0,0.0,0.0,0.0,0.0,0.0,0.0,0.0,0.0,0.0,0.0,0.0,0.0,0.0,0.0,0.0,0.0,0.0,0.0,0.0,0.0,0.0,0.0,0.0,0.0,0.0,0.0,0.0,0.0,0.0,0.0,0.0,0.0,0.0,0.0,0.0,0.0,0.0,0.0,0.0,0.0,0.0,0.0,0.0,0.0,0.0,0.0,0.0,-2.6611,-2.6161,-2.6045,-2.6645,-2.6679,-2.6658,-2.6499,-2.6499,-2.6499,-2.6499,0.0,0.0,0.0,0.0,0.0,0.0,0.0,0.0,0.0,0.0,0.0,0.0,0.0,0.0,0.0,0.0,0.0,0.0,0.0,0.0,0.0,0.0,0.0,0.0,0.0,0.0,0.0,0.0,0.0,0.0,0.0,0.0,0.0,0.0,0.0,0.0,0.0,0.0,0.0,0.0,0.0,0.0,0.0,0.0,0.0,0.0,0.0,0.0,0.0,0.0,0.0,0.0,0.0,0.0,0.0,0.0,0.0,0.0,0.0,0.0,0.0,0.0,0.0,0.0,0.0,0.0,0.0,0.0,0.0,0.0,0.0,0.0,0.0,0.0,0.0,0.0,0.0,0.0,0.0,0.0,0.0,0.0,0.0,0.0,0.0,0.0,0.0,0.0,0.0,0.0,0.0,0.0,0.0,0.0,0.0,0.0,0.0,0.0,0.0,0.0,0.0,0.0,-2.6645,-2.6264,-2.6148,-2.6679,-2.6726,-2.6658,-2.6499,-2.6499,-2.6499,-2.6499,0.0,0.0,0.0,0.0,0.0,0.0,0.0,0.0,0.0,0.0,0.0,0.0,0.0,0.0,0.0,0.0,0.0,0.0,0.0,0.0,0.0,0.0,0.0,0.0,0.0,0.0,0.0,0.0,0.0,0.0,0.0,0.0,0.0,0.0,0.0,0.0,0.0,0.0,0.0,0.0,0.0,0.0,0.0,0.0,0.0,0.0,0.0,0.0,0.0,0.0,0.0,0.0,0.0,0.0,0.0,0.0,0.0,0.0,0.0,0.0,-3.5798,0.0,0.0,0.0,0.0,0.0,0.0,0.0,0.0,0.0,0.0,0.0,0.0,0.0,0.0,0.0,0.0,0.0,0.0,0.0,0.0,0.0,0.0,0.0,0.0,0.0,0.0,0.0,0.0,0.0,0.0,0.0,0.0,0.0,0.0,0.0,0.0,0.0,0.0,0.0,0.0,0.0,-2.6909,-2.7053,-2.7087,-2.6943,-2.6943,-2.6807,-2.6521,-2.6499,-2.6499,-2.6499,-2.7263,0.0,0.0,0.0,0.0,0.0,0.0,0.0,0.0,0.0,0.0,0.0,0.0,0.0,0.0,0.0,0.0,0.0,0.0,0.0,0.0,0.0,0.0,0.0,0.0,0.0,0.0,0.0,0.0,0.0,0.0,0.0,0.0,0.0,0.0,0.0,0.0,0.0,0.0,0.0,0.0,0.0,0.0,0.0,0.0,0.0,0.0,0.0,0.0,0.0,0.0,0.0,0.0,0.0,0.0,0.0,0.0,0.0,0.0,0.0,0.0,-3.5188,0.0,0.0,0.0,0.0,0.0,0.0,0.0,0.0,0.0,0.0,0.0,0.0,0.0,0.0,0.0,0.0,0.0,0.0,0.0,0.0,0.0,0.0,0.0,0.0,0.0,0.0,0.0,0.0,0.0,0.0,0.0,0.0,0.0,0.0,0.0,0.0,0.0,0.0,0.0,0.0,-2.6875,-2.71,-2.718,-2.6863,-2.6875,-2.6589,-2.599,-2.628,-2.6349,-2.5955,-2.6913,0.0,0.0,0.0,0.0,0.0,0.0,0.0,0.0,0.0,0.0,0.0,0.0,0.0,0.0,0.0,0.0,0.0,0.0,0.0,0.0,0.0,0.0,0.0,0.0,0.0,0.0,0.0,0.0,0.0,0.0,0.0,0.0,0.0,0.0,0.0,0.0,0.0,0.0,0.0,0.0,0.0,0.0,0.0,0.0,0.0,0.0,0.0,0.0,0.0,0.0,0.0,0.0,0.0,-3.0148,-3.1366,-3.2075,-3.4057,-3.49,-3.4785,-3.4418,-3.4365,-3.4521,-3.4667,0.0,0.0,0.0,0.0,0.0,0.0,0.0,0.0,0.0,0.0,0.0,0.0,0.0,0.0,0.0,0.0,0.0,0.0,0.0,0.0,0.0,0.0,0.0,0.0,-2.4564,-2.4145,0.0,0.0,0.0,0.0,0.0,0.0,0.0,0.0,0.0,0.0,0.0,0.0,-2.6679,-2.6875,-2.6875,-2.6543,-2.6508,-2.6117,-2.5158,-2.5699,-2.5873,-2.5335,-2.6424,-2.717,0.0,0.0,0.0,0.0,0.0,0.0,0.0,0.0,0.0,0.0,0.0,0.0,0.0,0.0,0.0,0.0,0.0,0.0,0.0,0.0,0.0,0.0,0.0,0.0,0.0,0.0,0.0,0.0,0.0,0.0,0.0,0.0,-2.6078,-2.6727,0.0,0.0,0.0,0.0,0.0,0.0,0.0,0.0,0.0,0.0,0.0,0.0,0.0,-2.8264,-2.7716,-2.523,-2.5386,-2.81,-2.6085,-2.6571,-2.9233,-2.9201,-3.0077,-3.1581,-3.12,0.0,-3.4472,-3.4151,0.0,0.0,0.0,0.0,0.0,0.0,0.0,0.0,0.0,0.0,0.0,0.0,0.0,0.0,0.0,0.0,0.0,0.0,0.0,0.0,0.0,0.0,-2.412,-2.4228,-2.4192,-2.4301,0.0,-2.5769,-2.6383,-2.6499,-2.6499,0.0,0.0,0.0,0.0,0.0,0.0,0.0,-2.6679,-2.6875,-2.6692,-2.5849,-2.5744,-2.5346,-2.4337,-2.4373,-2.4671,-2.5264,-2.5476,-2.5896,-2.6589,-2.5978,0.0,0.0,0.0,0.0,0.0,0.0,0.0,0.0,0.0,0.0,0.0,0.0,0.0,0.0,0.0,0.0,0.0,0.0,0.0,0.0,0.0,0.0,0.0,0.0,0.0,0.0,0.0,0.0,0.0,-2.2289,-2.3232,-2.3122,-2.585,-2.7708,0.0,0.0,0.0,0.0,0.0,0.0,0.0,0.0,0.0,-2.5916,-2.5779,-2.4905,-2.3158,-2.1903,-2.1896,-2.3165,-2.3727,-2.4657,-2.5945,-2.7358,-2.9036,-3.0809,-3.0438,-3.1635,-3.3822,-3.3797,-3.3873,-3.3949,0.0,0.0,0.0,0.0,-2.9457,-2.8465,-2.7659,-2.7388,0.0,-2.6937,0.0,0.0,0.0,0.0,0.0,0.0,0.0,0.0,0.0,0.0,-2.4779,-2.4779,-2.4779,-2.5004,-2.5804,-2.6302,-2.6624,0.0,-2.6624,-2.6658,-2.6773,0.0,0.0,0.0,0.0,-2.524,-2.524,-2.5311,-2.5193,-2.4803,-2.4767,-2.4409,-2.3559,-2.3866,-2.4264,-2.46,-2.4636,-2.5004,-2.5769,-2.504,-2.4779,0.0,0.0,0.0,0.0,0.0,0.0,0.0,0.0,0.0,0.0,0.0,0.0,0.0,0.0,0.0,0.0,0.0,0.0,0.0,0.0,0.0,0.0,0.0,0.0,0.0,0.0,0.0,0.0,-2.2199,-2.188,-2.168,-2.3804,-2.5176,0.0,0.0,0.0,0.0,0.0,0.0,-2.8606,-2.8098,-2.6391,-2.3229,-2.2971,-2.1815,-1.9537,-1.9423,-1.9336,-1.9254,-2.1608,-2.2709,-2.2729,-2.4771,-2.683,-2.8749,-2.8448,-2.9555,-3.163,-3.239,-3.2657,-3.2557,-3.2149,-3.1143,-2.9854,-2.9646,-2.8765,-2.7545,-2.682,-2.6604,-2.6576,-2.611,0.0,-2.7129,-2.7129,0.0,0.0,0.0,0.0,-2.6349,-2.5769,-2.5629,-2.5664,-2.5664,-2.5699,-2.5908,-2.6487,-2.6705,-2.6726,0.0,-2.644,-2.6427,-2.6405,0.0,0.0,0.0,0.0,-2.4156,-2.4228,-2.4264,-2.4228,-2.4131,-2.4143,-2.3815,-2.3075,-2.3412,-2.3756,-2.395,-2.3877,-2.4168,-2.4969,-2.424,-2.3902,-2.4108,0.0,0.0,0.0,0.0,0.0,0.0,0.0,0.0,0.0,0.0,0.0,0.0,0.0,0.0,0.0,0.0,0.0,0.0,0.0,0.0,0.0,0.0,0.0,0.0,0.0,0.0,0.0,0.0,0.0,-2.4312,-2.3352,0.0,0.0,0.0,0.0,-2.6234,-2.6409,-2.6232,-2.5821,-2.5595,-2.4023,-2.0861,-2.0137,-1.9673,-1.9326,-1.8948,-1.8836,-1.9039,-1.9194,-1.9431,-1.9792,-1.9765,-2.1099,-2.3479,-2.3255,-2.4596,-2.7098,-2.9155,-3.0256,-3.0434,-2.828,-2.7635,-2.7857,-2.7084,-2.6748,-2.6577,-2.5892,-2.5794,-2.598,-2.6126,-2.6782,-2.7484,-2.7484,-2.7484,0.0,0.0,-2.7007,-2.6499,-2.6465,-2.6521,-2.6611,-2.6611,-2.6773,-2.6922,-2.6956,-2.6977,-2.6773,0.0,-2.5804,-2.5487,-2.4921,0.0,-2.4181,-2.4181,-2.412,-2.4228,-2.4636,-2.4671,-2.454,-2.4225,-2.4189,-2.3849,-2.3075,-2.2665,-2.2815,-2.3593,-2.3261,-2.3386,-2.412,-2.346,-2.3386,-2.4084,-2.3857,0.0,0.0,0.0,0.0,0.0,0.0,0.0,0.0,0.0,0.0,0.0,0.0,0.0,0.0,0.0,0.0,0.0,0.0,0.0,0.0,0.0,0.0,0.0,0.0,0.0,0.0,0.0,0.0,-2.2424,-2.1897,0.0,-2.1336,-2.1614,-2.2181,-2.3119,-2.3436,-2.3481,-2.3349,-2.2926,-2.1958,-2.0383,-2.0103,-1.971,-1.9124,-1.9239,-1.9259,-1.9193,-1.9456,-1.9653,-1.9784,-1.9706,-2.1008,-2.3304,-2.3221,-2.4564,-2.674,-2.5992,-2.6664,-2.809,-2.7288,-2.6859,-2.6668,-2.6374,-2.6063,-2.5782,-2.5807,-2.5828,-2.5945,-2.6292,-2.6589,-2.685,-2.685,-2.685,-2.685,-2.685,-2.6748,-2.6624,-2.6624,-2.676,-2.6909,-2.6909,-2.6943,-2.6943,-2.6829,-2.6909,-2.6773,-2.605,-2.6245,-2.6289,-2.5545,-2.5287,-2.4886,-2.4036,-2.3891,-2.3829,-2.3644,-2.3607,-2.346,-2.3075,-2.3038,-2.2815,-2.2289,-2.2101,-2.2365,-2.315,-2.259,-2.258,-2.335,-2.2654,-2.2354,-2.2596,-2.2811,-2.3435,0.0,0.0,0.0,0.0,0.0,0.0,0.0,0.0,0.0,0.0,0.0,0.0,0.0,0.0,0.0,0.0,0.0,0.0,0.0,0.0,0.0,0.0,0.0,0.0,0.0,-2.3438,-2.2596,-2.2312,-2.1783,-2.1221,-2.0653,-2.1106,-2.1499,-2.1499,-2.1749,-2.1949,-2.1997,-2.154,-2.1102,-2.0667,-2.0357,-1.9925,-1.9391,-1.9308,-1.9304,-1.9412,-1.9545,-1.9754,-2.002,-1.9942,-2.0794,-2.2349,-2.2267,-2.3138,-2.4556,-2.2988,-2.334,-2.4892,-2.5027,-2.4905,-2.4688,-2.5036,-2.494,-2.4695,-2.5099,-2.5241,-2.5347,-2.5581,-2.5873,-2.6025,-2.5756,-2.606,-2.6452,-2.6176,-2.6371,-2.6679,-2.6679,-2.6897,-2.7113,-2.7113,-2.7113,-2.7079,-2.6985,-2.7011,-2.6807,-2.6176,-2.6336,-2.6324,-2.5429,-2.5193,-2.4826,-2.3866,-2.3621,-2.3449,-2.3224,-2.3075,-2.2889,-2.2628,-2.259,-2.2478,-2.2214,-2.2063,-2.2138,-2.2467,-2.1863,-2.1634,-2.1956,-2.1672,-2.1563,-2.1706,-2.2279,-2.2981,-2.3803,0.0,0.0,0.0,0.0,0.0,0.0,0.0,0.0,0.0,0.0,0.0,0.0,0.0,0.0,0.0,0.0,0.0,0.0,0.0,0.0,0.0,0.0,0.0,-2.4862,-2.3973,-2.3508,-2.424,-2.2947,-2.201,-2.1952,-2.1583,-2.1364,-2.1461,-2.1461,-2.1548,-2.1721,-2.1568,-2.1433,-2.1385,-2.0589,-2.0163,-2.0125,-1.9134,-1.8938,-1.9544,-1.9189,-1.9476,-2.0264,-2.002,-2.0059,-2.0303,-2.0069,-2.0069,-2.0303,-2.0303,-2.0547,-2.0906,-2.1318,-2.1614,-2.1956,-2.2916,-2.3298,-2.3372,-2.3742,-2.3986,-2.4108,-2.4108,-2.4636,-2.5123,-2.4337,-2.517,-2.6267,-2.5488,-2.5908,-2.6645,-2.6645,-2.6952,-2.7235,-2.7235,-2.7235,-2.7268,-2.739,-2.7167,-2.6829,-2.6427,-2.6045,-2.5452,-2.4358,-2.3998,-2.3793,-2.3629,-2.3298,0.0,-2.3556,-2.3224,-2.2964,-2.2964,-2.2964,-2.2964,-2.2927,-2.259,-2.209,-2.1499,-2.1088,-2.0586,-1.9943,-2.0547,-2.1075,-2.1471,-2.2332,-2.2643,-2.2394,0.0,0.0,0.0,0.0,0.0,0.0,0.0,0.0,0.0,0.0,0.0,0.0,0.0,0.0,0.0,0.0,0.0,0.0,0.0,0.0,0.0,-2.3187,-2.3187,-2.3128,-2.2708,-2.2322,-2.2124,-2.1155,-2.0508,-2.0469,-2.0391,-2.0323,-2.0323,-2.0343,-2.0372,-2.0421,-2.0139,-1.9762,-1.9276,-1.9173,-1.8975,-1.867,-1.8774,-1.8823,-1.8888,-1.9592,-1.9879,-1.9814,-2.0527,-2.0654,-2.0303,-2.0693,-2.0654,-2.0303,-2.0303,-2.0391,-2.0498,-2.0896,-2.153,-2.2279,-2.2553,-2.3102,-2.3742,-2.3852,-2.3986,-2.4108,-2.4108,-2.4264,-2.4373,-2.4156,-2.4409,-2.4696,-2.448,-2.4731,-2.5099,-2.5394,-2.5674,-2.5836,-2.5836,-2.5836,-2.5836,-2.5709,-2.5604,-2.5546,-2.5594,-2.5616,-2.5347,-2.437,-2.4707,-2.4767,-2.374,-2.3827,0.0,-2.3629,-2.2868,-2.2408,-2.2553,-2.2155,-2.1776,-2.151,-2.1367,-2.1088,-2.0586,-2.0304,-2.0148,-2.0118,-2.0274,-2.074,-2.1477,-2.1604,-2.1873,0.0,0.0,0.0,0.0,0.0,0.0,0.0,0.0,0.0,0.0,0.0,0.0,0.0,0.0,0.0,0.0,0.0,0.0,0.0,0.0,0.0,0.0,-2.2531,-2.2317,-2.1634,-2.1711,-2.1586,-2.0875,-2.0362,-2.002,-1.9902,-1.9824,-1.9784,-1.9775,-1.9756,-1.975,-1.9706,-1.9639,-1.9373,-1.8826,-1.8983,-1.8945,-1.8732,-1.8807,-1.874,-1.8632,-1.929,-1.9498,-1.9253,-2.005,-2.0216,0.0,-2.0255,-2.0216,-1.9863,-1.9863,-1.9942,0.0,0.0,0.0,0.0,0.0,-2.2268,-2.2697,-2.2931,-2.292,-2.2787,-2.3058,-2.3364,-2.3596,-2.3254,-2.3573,-2.4047,-2.3731,-2.4131,-2.4671,-2.4743,-2.5016,-2.5264,-2.511,-2.4969,-2.4909,-2.4874,-2.4886,-2.4898,-2.4933,-2.5111,0.0,-2.3765,-2.4407,-2.4802,-2.3959,-2.3596,-2.3353,-2.308,-2.2086,-2.1441,-2.1471,-2.1165,-2.0857,-2.0624,-2.0382,0.0,0.0,0.0,-1.8731,-1.8859,-1.9061,0.0,0.0,0.0,-2.048,-2.1186,0.0,0.0,0.0,-2.2129,-2.2262,0.0,0.0,0.0,0.0,0.0,0.0,0.0,0.0,0.0,0.0,0.0,0.0,0.0,0.0,0.0,0.0,-2.1945,-2.168,-2.0333,-2.0799,-2.1021,-2.0158,-2.004,-1.9981,-1.9863,-1.959,-1.9444,-1.9573,-1.9494,-1.9375,-1.9259,0.0,0.0,0.0,0.0,-1.9409,-1.9416,-1.8918,-1.8617,-1.8554,-1.8647,-1.8629,-1.8563,-1.9037,-1.9203,-1.9164,-1.9203,-1.9182,-1.907,-1.9149,-1.9286,-1.9441,-2.001,-2.0255,-2.0333,-2.1069,-2.1098,-2.0857,-2.1415,0.0,0.0,-2.1405,-2.2052,-2.2505,-2.1797,-2.2547,-2.3526,-2.2868,-2.3559,-2.4373,-2.4072,-2.4385,-2.466,-2.4326,-2.4085,-2.4024,-2.4182,-2.4241,-2.4228,-2.4084,-2.4274,-2.4032,-2.2638,-2.3415,-2.4131,-2.3875,-2.2782,-2.201,-2.1989,-2.0989,-2.0158,-1.9952,0.0,0.0,-1.9835,-1.9344,-1.878,-1.8141,-1.7374,-1.6927,-1.6927,-1.7309,-1.7665,-1.794,-1.8306,-1.8803,-1.9355,-1.8703,-1.8842,-1.9758,-2.1239,-2.171,0.0,0.0,0.0,0.0,0.0,0.0,0.0,0.0,0.0,0.0,0.0,0.0,0.0,0.0,0.0,-2.0905,-2.075,-2.0323,-1.9183,-1.9696,-1.9971,-1.9313,-1.8758,-1.8687,-1.9341,-1.8725,-1.8583,-1.9296,-1.869,-1.8306,-1.8264,-1.8073,-1.7926,-1.7856,-1.7993,-1.8172,-1.839,-1.8357,-1.8163,-1.7735,0.0,0.0,-1.75,-1.8452,-1.862,-1.8197,-1.8695,-1.8372,-1.7583,-1.8294,-1.8355,-1.8181,-1.9471,-1.9991,-1.9991,-2.0138,-2.0138,-2.0099,-2.0216,-2.0177,-2.0099,-2.0216,-2.0372,-2.0479,-2.0294,-2.0605,0.0,-2.0769,-2.0914,-2.1173,-2.1431,-2.1448,-2.1428,-2.1314,-2.1286,-2.1247,-2.1314,-2.1448,-2.1659,-2.1914,-2.2199,-2.2,-2.0804,-2.2081,-2.2931,-2.1866,-2.1517,-2.1058,-2.0159,-1.9268,-1.8643,-1.8355,-1.7923,-1.7609,-1.7609,-1.7528,-1.7253,-1.6788,-1.6632,-1.6509,-1.6509,-1.6441,-1.676,-1.7514,-1.7469,-1.773,-1.8357,-1.8388,-1.8519,-1.8703,-1.9239,-1.9542,0.0,0.0,0.0,0.0,0.0,0.0,0.0,0.0,0.0,0.0,0.0,-2.1759,-2.1125,0.0,-1.9638,-1.9766,-1.9608,-1.9262,-1.8598,-1.8856,-1.9024,-1.8886,-1.8638,-1.8678,-1.9134,-1.843,-1.8079,-1.8324,-1.7723,-1.7361,-1.738,-1.7194,-1.7012,-1.6791,-1.6913,-1.6857,-1.6561,-1.6468,-1.6192,-1.5725,-1.6611,-1.6503,-1.5596,-1.6737,-1.6896,-1.6269,-1.6586,-1.6382,-1.5865,-1.6331,-1.6457,-1.6412,-1.7165,-1.7902,-1.8616,-1.8616,-1.8674,-1.8859,-1.9128,-1.9344,-1.949,-1.9786,-1.9904,-1.9904,-1.9904,-1.9982,-2.0031,-2.0031,-2.0177,-2.0372,-2.0372,-2.043,-2.0459,-2.0236,-1.9875,-1.9592,-1.9679,-1.9573,-1.9593,-1.9906,-2.013,-1.9955,-1.8879,-1.9468,-1.9955,-1.9556,-1.9191,-1.8793,-1.8306,-1.7641,-1.7172,-1.7172,-1.6895,-1.6698,-1.6698,-1.6404,-1.5918,-1.5284,-1.5242,-1.5026,-1.4552,-1.4894,-1.5227,-1.5482,-1.5873,-1.6599,-1.7707,-1.6796,-1.6593,-1.7095,-1.6189,-1.6706,0.0,0.0,0.0,0.0,0.0,0.0,0.0,-2.292,-2.2408,-2.1514,-2.0864,-2.0226,-1.9432,-1.8709,-1.8341,-1.8678,-1.8567,-1.8318,-1.806,-1.7997,-1.8055,-1.8296,-1.8399,-1.8559,-1.8718,-1.8049,-1.7574,-1.7413,-1.6928,-1.6686,-1.6729,-1.6533,-1.6266,-1.5959,-1.596,-1.5637,-1.4914,-1.4695,-1.4384,-1.3938,-1.4896,-1.482,-1.3846,-1.4836,-1.495,-1.4384,-1.4096,-1.4079,-1.4234,-1.3981,-1.3994,-1.4172,-1.4172,-1.486,-1.5924,-1.6676,-1.7058,-1.7334,-1.7802,-1.8109,-1.8376,-1.8868,-1.9049,-1.9088,-1.9058,-1.9097,-1.9128,-1.9088,-1.9316,-1.9504,-1.9167,-1.9316,-1.9425,-1.9167,-1.8563,-1.8115,-1.8292,-1.8098,-1.7863,-1.7992,-1.8028,-1.7732,-1.6636,-1.6302,-1.6457,-1.7356,-1.6822,-1.6365,-1.6373,-1.5812,-1.5413,-1.5421,-1.5421,-1.5421,-1.5421,-1.4921,-1.43,-1.361,-1.3568,-1.3222,-1.2448,-1.3137,-1.3479,-1.3296,-1.4044,-1.5087,-1.6412,-1.4758,-1.4316,-1.4899,-1.3241,-1.4058,-2.1855,-2.1807,-2.1497,-2.107,-2.1291,-2.1425,0.0,-2.1056,-2.1096,-2.0285,-1.962,-1.8997,-1.8318,-1.8118,-1.7997,-1.7853,-1.7634,-1.7383,-1.7147,-1.6984,-1.6903,-1.6903,-1.6788,-1.7,-1.7772,-1.691,-1.6603,-1.7352,-1.6809,-1.6436,-1.6436,-1.5816,-1.5456,-1.5378,-1.5012,-1.4745,-1.466,-1.4623,-1.439,-1.4004,-1.4117,-1.3955,-1.3565,-1.3675,-1.3711,-1.3543,-1.2373,-1.228,-1.2905,-1.1712,-1.1227,-1.1255,-1.1255,-1.0966,-1.0962,-1.4379,-1.5636,-1.5677,-1.5711,-1.5801,-1.5801,-1.5884,-1.6034,-1.615,-1.5959,-1.6157,-1.6396,-1.6224,-1.6183,-1.6224,-1.6183,-1.6067,-1.5992,-1.615,-1.6101,-1.6108,-1.637,-1.6501,-1.6535,-1.6314,-1.5816,-1.5002,-1.3723,-1.2923,-1.329,-1.5591,-1.5493,-1.4899,-1.4169,-1.3448,-1.2693,-1.1955,-1.1875,-1.1875,-1.1875,-1.1789,-1.1709,-1.1628,-1.1628,-1.158,-1.1451,-1.1542,-1.1805,-1.2188,-1.229,-1.262,-1.3204,-1.2974,-1.2571,-1.1968,-1.1726,-1.2614,-1.8461,-1.8891,-1.8967,-1.8946,-1.8994,-1.9034,-1.9104,-1.9672,-1.9778,-1.8408,-1.8169,-1.7857,-1.6715,-1.615,-1.5992,-1.6322,-1.6486,-1.6542,-1.6263,-1.6501,-1.6698,-1.6698,-1.6173,-1.5884,-1.6116,-1.5262,-1.4984,-1.5632,-1.4551,-1.4392,-1.5696,-1.4493,-1.3669,-1.3573,-1.3599,-1.3131,-1.2123,-1.1928,-1.2018,-1.2322,-1.1846,-1.1521,-1.1391,-1.1409,-1.1143,-1.0677,-1.0106,-0.979,-0.9611,-0.9063,-0.8654,-0.8347,-0.8347,-0.8397,-0.8687,-1.0585,-1.2067,-1.3104,-1.2572,-1.317,-1.4162,-1.4162,-1.4114,-1.4065,-1.3988,-1.3981,-1.4017,-1.3933,-1.3891,-1.3891,-1.3891,-1.3814,-1.3633,-1.3203,-1.2879,-1.2644,-1.2312,-1.2113,-1.1918,-1.1694,-1.1262,-1.0701,-0.9885,-0.9372,-0.9588,-1.1048,-1.1716,-1.2043,-1.2114,-1.123,-1.0489,-1.012,-1.0077,-1.0077,-1.0077,-1.0077,-1.0077,-1.0077,-1.0077,-0.9817,-0.93,-0.9774,-1.0009,-0.9919,-1.0426,-1.0909,-1.1283,-1.0702,-1.0262,-0.9915,-0.9288,-0.9587,-1.5377,-1.5808,-1.5916,-1.6316,-1.6242,-1.6193,-1.6562,-1.7533,-1.7912,-1.6333,-1.6489,-1.6456,-1.5108,-1.4468,-1.4223,-1.4608,-1.4866,-1.4963,-1.4622,-1.4942,-1.5226,-1.5226,-1.4525,-1.3993,-1.3727,-1.3717,-1.3815,-1.4104,-1.2838,-1.2745,-1.4319,-1.2794,-1.1808,-1.169,-1.1664,-1.1071,-0.9777,-0.9573,-0.9674,-1.0072,-0.9691,-0.947,-0.9415,-0.9271,-0.8775,-0.799,-0.7761,-0.7214,-0.6468,-0.628,-0.5873,-0.532,-0.5359,-0.5722,-0.6179,-0.6239,-0.8165,-1.0612,-0.9957,-1.0713,-1.1966,-1.1966,-1.179,-1.1571,-1.1529,-1.1214,-1.0851,-1.0857,-1.0723,-1.0585,-1.0633,-1.0675,-1.0542,-0.9909,-0.9547,-0.9268,-0.9082,-0.8762,-0.8483,-0.8396,-0.8003,-0.7519,-0.6849,-0.6461,-0.6336,-0.6687,-0.7395,-0.8416,-0.9923,-0.8896,-0.796,-0.7694,-0.765,-0.765,-0.765,-0.765,-0.765,-0.765,-0.765,-0.7348,-0.6659,-0.753,-0.7886,-0.7535,-0.8502,-0.9142,-0.9397,-0.8414,-0.7796,-0.7548,-0.657,-0.6323,-1.3206,-1.2904,-1.2227,-1.2953,-1.3123,-1.3068,-1.2844,-1.4135,-1.5107,-1.4001,-1.4476,-1.4747,-1.3639,-1.3434,-1.33,-1.2845,-1.2559,-1.226,-1.1863,-1.1612,-1.1451,-1.1451,-1.102,-1.0679,-1.0463,-1.24,-1.3652,-1.3434,-1.2583,-1.2135,-1.217,-1.0839,-1.0071,-1.006,-0.9067,-0.8504,-0.8466,-0.8461,-0.8143,-0.7512,-0.8138,-0.8338,-0.8134,-0.7668,-0.7046,-0.6228,-0.5434,-0.4737,-0.4071,-0.3466,-0.277,-0.2068,-0.2264,-0.2416,-0.2467,-0.1539,-0.4311,-0.8514,-0.8471,-0.8537,-0.863,-0.863,-0.8447,-0.8222,-0.8011,-0.728,-0.6511,-0.6564,-0.6078,-0.5586,-0.5763,-0.581,-0.5851,-0.611,-0.6153,-0.6461,-0.7621,-0.7842,-0.7893,-0.8087,-0.7355,-0.6389,-0.5281,-0.4497,-0.3837,-0.3433,-0.2989,-0.3964,-0.7457,-0.6266,-0.4761,-0.3872,-0.3781,-0.3781,-0.3781,-0.3781,-0.3781,-0.3781,-0.3781,-0.3739,-0.3739,-0.4628,-0.5216,-0.5377,-0.6377,-0.6991,-0.7182,-0.621,-0.5313,-0.4518,-0.3718,-0.3066,-1.0014,-1.0163,-1.0408,-1.1761,-1.1627,-1.1364,-1.2029,-1.2863,-1.3224,-1.2285,-1.2571,-1.265,-1.1703,-1.1929,-1.21,-1.1666,-1.1966,-1.2174,-1.1778,-1.1488,-1.1284,-1.1284,-1.0895,-1.0506,-1.0337,-1.0712,-1.0984,-1.0953,-0.9855,-0.9437,-1.0077,-0.8692,-0.7816,-0.7691,-0.7706,-0.7486,-0.6954,-0.6954,-0.7103,-0.7401,-0.6555,-0.5748,-0.4941,-0.4274,-0.373,-0.3341,-0.3073,-0.2255,-0.1166,-0.152,-0.0937,0.0078,-0.0509,-0.0944,-0.1108,-0.0237,-0.1205,-0.3008,-0.3811,-0.4612,-0.5257,-0.5257,-0.5046,-0.4798,-0.457,-0.4259,-0.3903,-0.3099,-0.2788,-0.2431,-0.1278,-0.141,-0.1896,-0.199,-0.2257,-0.2614,-0.3022,-0.3244,-0.3288,-0.3027,-0.2718,-0.2275,-0.1562,-0.1341,-0.1162,-0.0669,-0.2094,-0.3298,-0.3518,-0.3433,-0.2808,-0.1381,-0.1203,-0.098,-0.0355,-0.0266,-0.0266,-0.0266,-0.0845,-0.1203,-0.1203,-0.2096,-0.2706,-0.2855,-0.3148,-0.3355,-0.352,-0.314,-0.2816,-0.2517,-0.2468,-0.2417,-0.6987,-0.7392,-0.8023,-0.9326,-0.9335,-0.9209,-0.9874,-1.0461,-1.0666,-0.9956,-1.0471,-1.0854,-1.0149,-1.0458,-1.0631,-1.0197,-1.0448,-1.0524,-1.0038,-0.9788,-0.9662,-0.9575,-0.9366,-0.9196,-0.9069,-0.8842,-0.8892,-0.9419,-0.8371,-0.7912,-0.84,-0.7186,-0.6368,-0.6188,-0.6339,-0.6185,-0.5654,-0.5654,-0.5761,-0.5938,-0.4549,-0.3313,-0.2266,-0.1599,-0.1052,-0.0624,-0.0351,0.0389,0.1364,0.078,0.125,0.227,0.1684,0.1486,0.156,0.2103,0.2238,0.1871,-0.0123,-0.1338,-0.1957,-0.1957,-0.1685,-0.1364,-0.1187,-0.0796,-0.0312,0.04,0.0667,0.1022,0.2129,0.2258,0.1948,0.1601,0.1557,0.1423,0.0715,0.0447,0.0402,0.0581,0.0581,0.076,0.1521,0.1566,0.1654,0.1919,0.0401,-0.0534,0.0045,-0.0268,-0.0045,0.1382,0.1517,0.1782,0.2402,0.2448,0.2448,0.2448,0.1871,0.1517,0.1517,0.0625,0.009,0.0,-0.0281,-0.0477,-0.0532,-0.0099,0.005,0.0,0.0101,0.0,-0.4186,-0.4634,-0.5041,-0.5789,-0.6284,-0.6555,-0.6381,-0.7034,-0.7552,-0.7166,-0.8309,-0.9318,-0.8846,-0.893,-0.8886,-0.8452,-0.8009,-0.7482,-0.6868,-0.6779,-0.6691,-0.6428,-0.6612,-0.6751,-0.6751,-0.6871,-0.7498,-0.8658,0.0,-0.7349,-0.6973,-0.6201,-0.5664,-0.5428,-0.489,-0.4582,-0.4543,-0.4543,-0.4107,-0.3281,-0.2266,-0.1251,-0.0196,0.0234,0.0897,0.1798,0.2538,0.3122,0.3554,0.3318,0.375,0.4535,0.4302,0.4681,0.5405,0.5443,0.5816,0.5893,0.2702,0.1427,0.1247,0.1247,0.1647,0.2109,0.2152,0.3017,0.4009,0.3874,0.4326,0.4779,0.4643,0.5257,0.5692,0.4727,0.5211,0.5336,0.3518,0.3118,0.3072,0.28,0.2535,0.2717,0.3879,0.4283,0.4463,0.451,0.451,0.415,0.3121,0.2986,0.3345,0.4287,0.4376,0.4378,0.4423,0.4421,0.4421,0.4421,0.4378,0.4376,0.4376,0.3481,0.2986,0.2986,0.2085,0.1654,0.1654,0.2706,0.311,0.2858,0.3668,0.3925,-0.2192,-0.2684,-0.3352,-0.4233,-0.419,-0.4239,-0.5567,-0.5783,-0.5874,-0.6467,-0.6912,-0.7173,-0.7044,-0.6946,-0.6895,-0.6912,-0.6725,-0.6546,-0.6514,-0.6517,-0.6473,-0.6428,-0.6346,-0.6124,-0.5805,-0.5638,-0.5448,0.0,-0.5285,-0.4851,-0.3758,-0.3767,-0.3521,-0.2857,-0.3288,-0.321,-0.2624,-0.2468,-0.2193,-0.184,-0.09,0.0078,0.1134,0.1837,0.2735,0.3715,0.391,0.4647,0.5648,0.5024,0.5482,0.6559,0.5934,0.6075,0.6714,0.7327,0.7925,0.8411,0.8192,0.6666,0.4894,0.4894,0.5015,0.5194,0.5363,0.5659,0.6147,0.7011,0.7357,0.7672,0.8293,0.8642,0.8599,0.7672,0.7625,0.7442,0.6286,0.6154,0.6242,0.6151,0.6107,0.611,0.6245,0.6336,0.6602,0.7318,0.745,0.6571,0.4239,0.3929,0.4287,0.5228,0.5361,0.5628,0.6337,0.6381,0.6381,0.6381,0.5716,0.5361,0.5361,0.4421,0.3929,0.3929,0.3859,0.37,0.3509,0.3898,0.3974,0.3725,0.432,0.4568,-0.0808,-0.139,-0.2105,-0.2546,-0.2592,-0.2815,-0.3788,-0.37,-0.3701,-0.4648,-0.5092,-0.5447,-0.5899,-0.5761,-0.5575,-0.5492,-0.5041,-0.4772,-0.4956,-0.5001,-0.5137,-0.5453,-0.5544,-0.55,-0.5228,-0.5264,-0.4939,-0.4116,-0.4026,-0.3618,-0.2669,-0.2665,-0.2468,-0.1921,-0.235,-0.235,-0.1921,-0.1412,-0.0901,-0.0313,0.0548,0.1565,0.2735,0.3517,0.4222,0.4851,0.0,0.6276,0.6969,0.7134,0.766,0.8348,0.8174,0.8501,0.9178,0.9638,1.0241,1.0879,1.136,1.0498,0.9019,0.8288,0.8147,0.8258,0.8346,0.8476,0.8669,0.9349,0.9671,0.9876,1.0401,1.099,1.115,1.023,1.0312,1.0345,0.942,0.9295,0.9299,0.9,0.8796,0.8586,0.836,0.8313,0.8622,0.9408,0.9543,0.91,0.7781,0.7139,0.6977,0.7471,0.7562,0.7738,0.8269,0.8313,0.8313,0.8313,0.7826,0.7562,0.7562,0.7024,0.6753,0.6753,0.7083,0.7042,0.6667,0.6933,0.6769,0.6276,0.6617,0.6664,0.0,-0.0584,-0.1166,-0.0942,-0.1344,-0.1746,-0.1656,-0.1522,-0.1745,-0.2688,-0.3444,-0.42,-0.5013,-0.4877,-0.4516,-0.4111,-0.3307,-0.2772,-0.2995,-0.2995,-0.3309,-0.403,-0.4476,-0.4743,-0.4788,-0.5036,-0.4756,-0.3823,-0.3233,-0.2836,-0.2626,-0.2311,-0.2038,-0.1842,-0.1607,-0.1528,-0.1607,-0.0628,0.0274,0.1094,0.1958,0.3015,0.4263,0.5035,0.5464,0.5667,0.7165,0.0,0.7974,0.92,0.9798,1.0061,1.0616,1.1292,1.1977,1.1977,1.2535,1.3295,1.3295,1.3361,1.3127,1.1317,1.0863,1.1,1.1,1.1103,1.1232,1.1232,1.1456,1.1741,1.1775,1.2582,1.3241,1.2462,1.2899,1.3237,1.2468,1.2256,1.2085,1.1525,1.1128,1.0799,1.0567,1.0524,1.0735,1.1316,1.1402,1.161,1.2213,1.1026,1.0178,1.0178,1.0178,1.0178,1.0178,1.0178,1.0178,1.0178,1.0178,1.0178,1.0178,1.0178,1.0135,1.0135,1.06,1.05,0.9857,1.0246,0.9998,0.9167,0.9266,0.9171,0.0,-0.0135,-0.018,0.009,0.0045,-0.0134,-0.0538,-0.1209,-0.197,-0.2732,-0.3626,-0.4164,-0.3944,-0.336,-0.291,-0.282,-0.215,-0.1748,-0.2013,-0.2058,-0.2327,-0.3045,-0.3224,-0.3405,-0.381,-0.3202,-0.2532,-0.1933,-0.0929,-0.0709,-0.1531,-0.1647,-0.1607,-0.141,0.0,0.047,-0.0078,0.1449,0.2115,0.1998,0.2821,0.3759,0.4885,0.569,0.6426,0.7134,0.7778,0.0,0.9997,1.0078,1.0864,1.2107,1.2365,1.2879,1.3426,1.3426,1.4214,1.5303,1.5303,1.571,1.5799,1.3259,1.2472,1.2513,1.2513,1.2678,1.2876,1.2876,1.3084,1.3366,1.3655,1.3886,1.407,1.4197,1.4342,1.4426,1.4252,1.421,1.4168,1.4041,1.3957,1.3922,1.3873,1.3873,1.3915,1.4041,1.4041,1.4084,1.421,1.265,1.1567,1.1567,1.1567,1.1567,1.1567,1.1567,1.1567,1.1567,1.1567,1.1567,1.1567,1.1567,1.1487,1.1316,1.1792,1.1354,1.0038,1.0521,1.0083,0.8874,0.9571,0.9817,-0.0045,0.0,0.0045,0.018,0.0359,0.0493,0.0224,-0.0358,-0.1119,-0.1925,-0.291,-0.3673,-0.3898,-0.327,-0.2643,-0.2373,-0.1524,-0.1031,-0.1389,-0.1299,-0.1523,-0.2238,-0.2329,-0.2373,-0.2463,-0.2026,-0.1639,-0.1386,-0.0523,-0.0118,-0.0314,-0.0157,-0.0039,0.0039,0.1058,0.1451,0.1138,0.2154,0.2818,0.321,0.3561,0.4496,0.586,0.624,0.7046,0.8156,0.8761,0.0,1.0858,1.1613,1.2365,1.3119,1.3593,1.423,1.4832,1.4732,1.5338,1.6184,1.6105,1.635,1.6524,1.5251,1.4887,1.4985,1.4985,1.4792,1.4608,1.4608,1.453,1.4537,1.4694,1.4986,1.5277,1.5434,1.5606,1.5733,1.5733,1.5484,1.5235,1.5235,1.4943,1.4692,1.4692,1.4692,1.4817,1.5151,1.5235,1.536,1.5692,1.4942,1.4127,1.3425,1.3341,1.3341,1.3341,1.3341,1.3341,1.3341,1.3341,1.3341,1.3341,1.3256,1.3171,1.3044,1.3459,1.3194,1.2239,1.2764,1.2512,1.1692,1.2042,1.2242,-0.009,0.0,0.0,0.0,0.0314,0.0628,0.0673,0.0134,-0.0582,-0.1253,-0.2283,-0.3226,-0.3896,-0.3315,-0.2598,-0.206,-0.1165,-0.0628,-0.0852,-0.0673,-0.0807,-0.1478,-0.1522,-0.1478,-0.1477,-0.1206,-0.105,-0.105,-0.0322,0.0274,0.0628,0.1061,0.1296,0.1296,0.1844,0.2155,0.2075,0.2856,0.3634,0.4491,0.4688,0.5467,0.6791,0.7134,0.7927,0.9021,0.989,0.0,0.0,1.2813,1.3419,1.3645,1.4461,1.5161,1.5692,1.57,1.6193,1.6742,1.6594,1.6733,1.7019,1.7054,1.6975,1.6897,1.6897,1.649,1.6035,1.6035,1.5806,1.5593,1.5667,1.6065,1.6515,1.6671,1.6871,1.6968,1.6968,1.6435,1.5899,1.5899,1.5484,1.511,1.511,1.511,1.5318,1.5816,1.6057,1.6386,1.6927,1.7131,1.6788,1.5553,1.5228,1.511,1.511,1.511,1.511,1.511,1.511,1.511,1.511,1.4936,1.481,1.4776,1.5131,1.4988,1.4347,1.4912,1.4848,1.4316,1.4316,1.4316,-0.009,0.0,0.0,0.0,0.0224,0.0493,0.0673,-0.0493,-0.1611,-0.1431,-0.2552,-0.3452,-0.3092,-0.2601,-0.2018,-0.13,-0.1121,-0.0807,-0.0179,-0.009,-0.0269,-0.0762,-0.0628,-0.0851,-0.17,-0.0818,-0.021,-0.021,0.0806,0.1257,0.0904,0.1139,0.1296,0.1296,0.2391,0.2895,0.2733,0.4608,0.5654,0.5755,0.6549,0.7099,0.748,0.8912,0.9664,0.9857,1.1025,0.0,0.0,1.2709,1.3119,1.3899,1.4974,1.5365,1.5374,1.6184,1.6855,1.7304,1.7304,1.775,1.8371,1.8539,1.7833,1.6897,1.6897,1.6862,1.6802,1.6802,1.676,1.6799,1.7126,1.7243,1.7478,1.8208,1.8127,1.7876,1.7876,1.7204,1.6607,1.6607,1.6566,1.6525,1.6525,1.6525,1.6525,1.6607,1.7277,1.7796,1.7876,1.859,1.87,1.7796,1.7,1.6525,1.6525,1.6525,1.6525,1.6525,1.6525,1.6525,1.6525,1.6312,1.6113,1.5963,1.6312,1.5961,1.4731,1.5411,1.5222,1.4316,1.4316,1.4316,-0.0314,-0.0135,0.0,0.0,0.018,0.0448,0.0673,-0.0582,-0.1745,-0.1477,-0.2552,-0.3542,-0.3361,-0.269,-0.2109,-0.1794,-0.1391,-0.0987,-0.0718,-0.0403,-0.0269,-0.0269,-0.0045,0.0,-0.0269,0.0216,0.0666,0.089,0.135,0.1572,0.1493,0.1611,0.1885,0.2352,0.3363,0.4025,0.4297,0.5777,0.6437,0.6314,0.7272,0.7923,0.8271,0.9405,1.0346,1.1174,1.1663,0.0,0.0,1.3309,1.3775,1.4525,1.5089,1.5824,1.6568,1.6846,1.7373,1.793,1.7794,1.8032,1.8405,1.8583,1.8269,1.791,1.8148,1.7901,1.755,1.755,1.7242,1.6934,1.7064,1.7258,1.7606,1.8419,1.8458,1.8433,1.8735,1.851,1.8278,1.8278,1.8278,1.8278,1.8278,1.8278,1.8278,1.8278,1.8118,1.7997,1.7997,1.7836,1.7602,1.7245,1.7367,1.7286,1.673,1.6689,1.6689,1.6689,1.6689,1.6648,1.6525,1.6319,1.6121,1.5865,1.6305,1.6279,1.5777,1.6398,1.6788,1.7001,1.7001,1.7228,-0.0493,-0.0269,-0.009,0.0,0.0,0.0,0.0224,-0.1029,-0.2148,-0.1879,-0.2777,-0.3587,-0.3587,-0.2826,-0.2199,-0.2199,-0.1615,-0.1166,-0.1121,-0.0762,-0.0403,-0.0134,0.0179,0.0448,0.0583,0.0777,0.1033,0.1301,0.1296,0.1492,0.1963,0.2003,0.2315,0.3093,0.4103,0.496,0.555,0.6518,0.7022,0.7065,0.7774,0.8376,0.8908,0.9701,1.0757,1.1929,1.2224,0.0,0.0,1.3956,1.4489,1.518,1.5613,1.635,1.727,1.7442,1.7828,1.8202,1.8042,1.8076,1.8236,1.8381,1.8448,1.8516,1.8808,1.8563,1.8182,1.8273,1.7901,1.7457,1.7389,1.77,1.8192,1.891,1.9023,1.9105,1.9575,1.9462,1.9295,1.9295,1.9295,1.9295,1.9295,1.9295,1.9295,1.9295,1.8988,1.8758,1.8758,1.8439,1.8118,1.7844,1.8318,1.8247,1.7172,1.709,1.7049,1.7017,1.7253,1.7164,1.6714,1.673,1.6648,1.6468,1.697,1.7188,1.7188,1.7864,1.8511,1.9193,1.9155,1.9155,-0.0538,-0.0403,-0.0314,-0.0045,-0.0538,-0.1029,-0.0762,-0.197,-0.313,-0.2911,-0.3272,-0.3587,-0.3587,-0.2826,-0.2199,-0.2199,-0.1749,-0.1345,-0.1121,-0.0852,-0.0628,-0.0403,0.009,0.0403,0.0403,0.0605,0.0661,0.0631,0.0628,0.0,0.2156,0.2196,0.2469,0.3093,0.4538,0.5589,0.6202,0.6868,0.7488,0.8102,0.8102,0.8513,0.9334,1.0115,1.0944,0.0,0.0,0.0,0.0,1.4502,1.5029,1.5781,1.6724,1.701,1.7001,1.7954,1.8178,1.8008,1.8008,1.8008,1.8042,1.8236,1.8303,1.8337,1.8448,1.8516,1.8583,1.8975,1.8942,1.8741,1.8549,1.8984,1.9604,2.0073,2.0025,1.9991,2.0411,1.9855,1.9295,1.9295,1.9295,1.9295,1.9295,1.9295,1.9295,1.9295,1.9982,2.0459,2.0459,2.1213,2.1415,2.0537,2.0274,1.9559,1.8118,1.7997,1.7885,1.77,1.8487,1.8519,1.7432,1.7965,1.8296,1.8256,1.8784,1.9067,1.9076,1.9819,2.0187,2.0187,1.9977,1.9109,-0.2815,-0.2549,-0.2282,-0.2193,-0.2238,-0.2238,-0.2013,-0.2727,-0.34,-0.3176,-0.336,-0.3497,-0.3183,-0.2601,-0.2064,-0.1705,-0.1525,-0.1391,-0.13,-0.1121,-0.0942,-0.0897,-0.0448,0.0,0.0302,0.0382,0.0455,0.0591,0.0746,0.1217,0.2156,0.2896,0.3638,0.438,0.527,0.6009,0.6668,0.7446,0.7838,0.7915,0.915,0.9787,0.9949,1.1329,1.207,0.0,0.0,0.0,0.0,1.4768,1.5428,1.6132,1.6446,1.6932,1.7491,1.7774,1.793,1.8008,1.8008,1.8008,1.8042,1.8236,1.8202,1.8144,1.8414,1.8516,1.8516,1.865,1.864,1.8583,1.8516,1.8751,1.9134,1.9594,1.9997,2.0362,2.0808,2.0954,2.1011,2.1011,2.1011,2.1011,2.1011,2.1011,2.1011,2.1011,2.0741,2.0498,2.0498,2.0255,1.9933,1.9511,1.9432,1.9195,1.8718,1.8567,1.8456,1.8376,1.8656,1.8567,1.8055,1.8215,1.8256,1.8086,1.8775,1.9119,1.9119,1.9703,2.0249,2.0754,2.1221,2.0799,-0.4107,-0.3707,-0.3441,-0.3263,-0.34,-0.3491,-0.3129,-0.3576,-0.4071,-0.3803,-0.3807,-0.3764,-0.3494,-0.3048,-0.2602,-0.2287,-0.1929,-0.1705,-0.1705,-0.1345,-0.1031,-0.0852,-0.0579,-0.0263,0.0169,0.0167,0.0246,0.0355,0.0785,0.149,0.2506,0.348,0.4494,0.5473,0.5935,0.636,0.6788,0.7369,0.7603,0.7488,0.8912,0.9744,1.0019,1.1329,1.2298,0.0,0.0,0.0,0.0,1.5401,1.607,1.6742,1.6742,1.7123,1.7613,1.7672,1.7784,1.7896,1.7974,1.8008,1.8008,1.8144,1.811,1.8042,1.8245,1.8414,1.8482,1.8347,1.8381,1.8414,1.8347,1.8516,1.8795,1.9286,1.9899,2.0519,2.0911,2.1364,2.1693,2.1693,2.1693,2.1693,2.1693,2.1693,2.1693,2.1693,2.1146,2.0789,2.0867,2.0382,1.9952,1.9844,1.9766,1.9726,1.9726,1.9362,1.9125,1.9054,1.9341,1.9262,1.8696,1.8975,1.9134,1.8997,1.9742,2.0156,2.0156,2.073,2.1123,2.141,2.149,2.1159,0.0,-0.4107,-0.4018,-0.353,-0.4113,-0.465,-0.4162,-0.4563,0.0,-0.4748,-0.4525,-0.43,-0.4255,-0.39,-0.3587,-0.3542,-0.2826,-0.2243,-0.2199,-0.157,-0.0942,-0.0493,-0.0441,-0.0302,-0.0042,0.0,0.0,0.0,0.0824,0.1839,0.3046,0.3943,0.4999,0.6261,0.649,0.6602,0.6602,0.6788,0.6938,0.6976,0.7812,0.8727,0.9712,1.0507,1.1805,0.0,0.0,0.0,0.0,1.6202,1.6742,1.747,1.7436,1.7436,1.7505,1.7647,1.7672,1.774,1.793,1.8008,1.8008,1.8008,1.8008,1.8008,1.8008,1.8212,1.8414,1.8076,1.8144,1.8236,1.8042,1.8245,1.8616,1.9038,1.9798,2.0473,2.0686,2.1165,2.1502,2.1464,2.1464,2.1464,2.1464,2.1464,2.1464,2.1464,2.132,2.1282,2.1464,2.132,2.1205,2.1167,2.1022,2.0906,2.0867,2.0323,1.9864,1.9678,2.0411,2.042,1.942,2.0167,2.0605,2.0605,2.1435,2.1873,2.1941,2.2462,2.2539,2.2052,2.1114,2.0557,-0.647,0.0,-0.603,-0.5716,-0.5719,-0.568,0.0,-0.5282,-0.5235,-0.4966,-0.4746,-0.4435,-0.3855,-0.3676,-0.3497,-0.3136,-0.2868,-0.2599,-0.2243,-0.1705,-0.1211,-0.0987,-0.0749,-0.0561,-0.0337,-0.0124,0.0,0.0,0.1098,0.2152,0.3046,0.4219,0.5315,0.6261,0.6335,0.6451,0.6602,0.6788,0.7207,0.7817,0.8651,0.9561,1.0545,1.1335,1.204,0.0,0.0,0.0,1.5002,1.5903,1.6586,1.7012,1.67,1.6864,1.7279,1.7495,1.7623,1.774,1.793,1.8008,1.8008,1.8008,1.8008,1.8008,1.8008,1.8042,1.811,1.8008,1.8042,1.8076,1.8008,1.8245,1.8536,1.8646,1.9538,2.038,2.0277,2.0941,2.1464,2.132,2.1282,2.1282,2.1282,2.1282,2.1282,2.1282,2.1244,2.1205,2.1244,2.1244,2.1128,2.0984,2.0945,2.0829,2.0693,2.0518,2.044,2.0362,2.0566,2.0566,2.0284,2.0489,2.0605,2.0605,2.1264,2.1734,2.2026,2.218,2.2097,2.1785,2.1544,2.141,-0.7095,-0.701,-0.6833,-0.6476,-0.6299,-0.6124,-0.5777,-0.5552,-0.5327,-0.5055,-0.4835,-0.4525,-0.4034,-0.3942,-0.3853,-0.3583,-0.336,-0.3004,-0.2288,-0.193,-0.1615,-0.1166,-0.0874,-0.064,0.0,-0.0163,0.0159,0.055,0.1567,0.2582,0.3517,0.4652,0.5515,0.6099,0.6219,0.6335,0.6451,0.6563,0.7019,0.7821,0.8656,0.9566,1.055,1.1372,1.2033,0.0,0.0,0.0,1.4378,1.5294,1.5903,1.6254,1.6307,1.6621,1.7107,1.7279,1.7417,1.751,1.7701,1.7779,1.7769,1.7828,1.7862,1.7896,1.7974,1.8008,1.8008,1.8008,1.8008,1.8008,1.8008,1.8212,1.8414,1.8414,1.9132,1.9864,1.9863,2.04,2.0943,2.1049,2.1061,2.1061,2.1061,2.1061,2.1061,2.1061,2.0974,2.0974,2.1061,2.0974,2.0886,2.078,2.078,2.0886,2.1126,2.1165,2.0972,2.0644,2.0605,2.0605,2.0605,2.0934,2.1343,2.17,2.1757,2.2062,2.2712,2.2303,2.2141,2.2185,2.1865,2.1696,-0.7489,-0.7489,-0.7312,-0.6561,-0.6384,-0.6254,-0.5819,-0.5552,-0.5371,-0.5055,-0.4879,-0.4659,-0.4344,-0.43,-0.43,-0.43,-0.3853,-0.3229,-0.2423,-0.2154,-0.1837,-0.1206,-0.0906,0.0,-0.0503,-0.0202,0.0314,0.1176,0.2035,0.3012,0.4029,0.5049,0.5673,0.5864,0.6064,0.6261,0.6451,0.6451,0.6872,0.771,0.8513,0.942,1.0406,1.1074,1.1885,1.2718,0.0,0.0,1.4011,1.4645,1.5188,1.5683,1.6123,1.656,1.6934,1.7141,1.7201,1.7235,1.7426,1.7505,1.7564,1.7647,1.7706,1.7784,1.794,1.8008,1.8008,1.81,1.8076,1.8008,1.8008,1.8144,1.8303,1.8303,1.8754,1.9274,1.9545,1.9925,2.0341,2.0778,2.0867,2.0867,2.0867,2.0867,2.0867,2.0867,2.0693,2.0654,2.0819,2.0799,2.0789,2.0789,2.0905,2.1242,2.1918,2.1869,2.1499,2.0828,2.0789,2.0712,2.0605,2.1242,2.1907,2.2606,2.215,2.2259,2.303,2.2364,2.223,2.2627,2.1998,2.1785,-0.9274,-0.9231,-0.875,-0.6868,-0.6384,-0.6254,-0.5819,-0.5688,-0.5552,-0.5099,-0.4966,-0.4832,-0.4389,-0.43,-0.43,-0.43,-0.3583,-0.2957,-0.2823,-0.2062,-0.1471,-0.1356,0.0,-0.0961,-0.0902,-0.0519,0.0078,0.0901,0.2074,0.313,0.4068,0.5049,0.5598,0.5634,0.5676,0.6138,0.7053,0.7211,0.7714,0.8508,0.9349,1.0255,1.1223,1.1335,1.1595,1.1922,0.0,1.323,1.381,1.4573,1.5401,1.6202,1.6272,1.656,1.6934,1.7141,1.7201,1.7235,1.7426,1.7564,1.7681,1.7672,1.7818,1.7974,1.7974,1.8008,1.811,1.8687,1.8428,1.8008,1.8008,1.8144,1.8303,1.8303,1.8754,1.9274,1.9545,1.9925,2.0294,2.0604,2.0644,2.0644,2.0644,2.0644,2.0644,2.0644,2.0605,2.0605,2.0644,2.1203,2.1614,2.1614,2.2209,2.2697,2.2809,2.2172,2.1766,2.1614,2.1614,2.1318,2.0644,2.0566,2.0654,2.096,2.1005,2.117,2.1444,2.1662,2.1785,2.1874,2.1731,2.2043,-0.9666,-0.9579,-0.9318,-0.8053,-0.7749,-0.7661,-0.7312,-0.7228,-0.7051,-0.647,-0.6024,-0.5581,-0.5013,-0.4567,-0.43,-0.43,-0.4028,-0.3624,-0.3001,-0.2287,-0.1736,0.0,0.0,-0.1002,-0.102,-0.0677,0.0118,0.1487,0.2151,0.309,0.4501,0.5129,0.544,0.544,0.5559,0.6135,0.7199,0.774,0.8428,0.9349,0.9728,1.0368,1.1223,1.1223,1.1298,1.1409,0.0,1.2248,1.2842,1.3535,1.4366,1.5232,1.5594,1.6053,1.6586,1.6691,1.6716,1.6726,1.683,1.7038,1.727,1.7407,1.7476,1.7588,1.7794,1.7794,1.7872,1.8529,1.8371,1.8076,1.8462,1.8327,1.8144,1.8144,1.836,1.8695,1.9305,1.959,1.9878,2.0478,2.0605,2.0605,2.0605,2.0605,2.075,2.1165,2.1242,2.1423,2.1832,2.2209,2.2435,2.2435,2.2397,2.2547,2.2947,2.2247,2.1614,2.1165,2.1367,2.1482,2.1558,2.1482,2.1689,2.2202,2.2211,2.247,2.2929,2.2879,2.3028,2.343,2.3028,2.3028,-1.0236,-1.0149,-1.0067,-0.9589,-0.9196,-0.8846,-0.854,-0.85,-0.8324,-0.7793,-0.7214,-0.6552,-0.5722,-0.5013,-0.4478,-0.4166,-0.4295,-0.4026,-0.2911,-0.2322,-0.1856,-0.1427,-0.1185,-0.1077,-0.1052,-0.0715,0.0235,0.1878,0.2268,0.0,0.4779,0.509,0.5243,0.5243,0.5518,0.617,0.7276,0.8037,0.8917,0.9922,1.0105,1.0513,1.1111,1.1111,1.1111,1.1111,1.126,1.1632,1.2261,1.2966,1.3724,1.4553,1.5125,1.57,1.6202,1.6272,1.6307,1.6307,1.6421,1.6656,1.7012,1.7132,1.7235,1.7314,1.7579,1.7588,1.7632,1.8303,1.8236,1.8066,1.8721,1.8428,1.8008,1.8008,1.8008,1.8242,1.9102,1.9287,1.9541,2.0439,2.0605,2.0644,2.0867,2.0867,2.1165,2.1945,2.2096,2.2322,2.292,2.2995,2.2995,2.2995,2.2435,2.2285,2.282,2.2483,2.1852,2.0954,2.1454,2.1921,2.2252,2.2214,2.2478,2.3113,2.316,2.3486,2.4028,2.3885,2.4102,2.4637,2.4059,2.3887,-1.1946,-1.1823,-1.1693,-1.1262,-0.999,-0.8846,-0.854,-0.85,-0.8452,-0.8181,-0.8093,-0.765,-0.629,-0.5633,-0.4971,-0.381,-0.3807,-0.3537,-0.2422,0.0,-0.1426,-0.1312,-0.1283,-0.1294,-0.1264,-0.0511,0.0353,0.1293,0.2388,0.0,0.4384,0.4818,0.5015,0.5015,0.5592,0.6398,0.7464,0.8075,0.8917,0.9922,1.0663,1.1037,1.1111,1.1111,1.1111,1.1149,1.1706,1.2268,1.2893,1.3833,1.4553,1.5169,1.5586,1.5798,1.5868,1.6202,1.6307,1.6342,1.6735,1.7003,1.7166,1.7201,1.7314,1.7461,1.7505,1.7505,1.7632,1.8317,1.8104,1.7852,1.8405,1.8279,1.8008,1.8008,1.8008,1.8242,1.9102,1.9287,1.9541,2.0439,2.0605,2.0828,2.1576,2.1728,2.1983,2.2809,2.292,2.2909,2.2984,2.2995,2.2995,2.2995,2.2957,2.2782,2.2467,2.3065,2.2964,2.1807,2.2777,2.2964,2.1883,2.1655,2.1578,2.1655,2.224,2.2605,2.2646,2.341,2.3844,2.3887,2.3844,2.4155,-1.2123,-1.2,-1.1871,-1.144,-1.0824,-1.0386,-1.025,-1.0255,-1.012,-0.9758,-0.9362,-0.8484,-0.6464,-0.6694,-0.6473,-0.4389,-0.4338,-0.4094,-0.2772,-0.1876,-0.1372,-0.1325,-0.1309,-0.1291,-0.1299,-0.0628,0.0314,0.1565,0.2426,0.0,0.4701,0.4898,0.5018,0.5018,0.5592,0.6395,0.7502,0.8114,0.8917,0.9922,1.0218,1.0368,1.0368,1.0368,1.07,1.1298,1.1521,1.2328,1.347,1.3833,1.4302,1.4883,1.5275,1.5267,1.5098,1.5488,1.563,1.563,1.5806,1.6193,1.6656,1.6656,1.6864,1.7151,1.7289,1.722,1.7289,1.7998,1.7896,1.7759,1.8486,1.8337,1.8008,1.8008,1.8008,1.8242,1.9102,1.9287,1.9541,2.0439,2.1011,2.1423,2.1756,2.2209,2.2798,2.3573,2.3279,2.3364,2.4312,2.3975,2.3866,2.4384,2.379,2.3102,2.2478,2.2927,2.2927,2.2214,2.259,2.2665,2.2176,2.2327,2.244,2.244,2.2953,2.343,2.3737,2.4363,2.4819,2.5105,2.5105,2.5242,-1.2123,-1.1957,-1.1828,-1.1392,-1.1305,-1.1305,-1.1305,-1.1305,-1.1219,-1.0906,-0.9932,-0.8615,-0.6773,-0.6956,-0.6694,-0.4431,-0.4516,-0.4391,-0.296,-0.2115,-0.1569,-0.1512,-0.1375,-0.128,-0.1298,-0.051,0.0392,0.1409,0.0,0.0,0.0,0.4859,0.5093,0.5287,0.5902,0.6668,0.7583,0.8194,0.8846,0.9539,0.9539,0.9652,0.9884,0.9884,1.0443,1.1409,1.1589,1.2505,1.3796,1.3977,1.4274,1.4641,1.4883,1.4848,1.4641,1.5062,1.5204,1.524,1.5346,1.5771,1.6307,1.6307,1.6551,1.6943,1.7072,1.7003,1.7012,1.7495,1.7529,1.7554,1.8138,1.8158,1.8008,1.8008,1.8008,1.8242,1.9102,1.9495,1.9936,2.0803,2.1652,2.2237,2.2499,2.2798,2.3353,2.4337,2.3647,2.3548,2.5087,2.4276,2.3731,2.4143,2.3728,2.315,2.2478,2.2889,2.3001,2.2628,2.259,2.259,2.259,2.2852,2.3001,2.3001,2.3482,2.3973,2.4486,2.4986,2.5426,2.5895,2.5895,2.5895,-1.208,-1.1871,-1.1656,-1.1354,-1.1305,-1.1305,-1.1305,-1.1305,-1.1305,-1.1305,-0.9632,-0.8002,-0.721,-0.6334,-0.523,-0.3855,-0.4162,-0.4172,-0.2876,-0.2345,-0.2042,-0.1914,-0.1553,-0.1296,-0.1296,-0.0157,0.0589,0.0628,0.0,0.0,0.0,0.4548,0.5287,0.5899,0.6556,0.7207,0.7783,0.8394,0.8703,0.8703,0.8703,0.9122,0.9879,0.9879,1.0443,1.144,1.202,1.2865,1.3833,1.4382,1.4605,1.4605,1.4605,1.4605,1.4641,1.5062,1.5196,1.5232,1.5657,1.6017,1.6307,1.6307,1.656,1.6908,1.6908,1.6908,1.6908,1.6908,1.7038,1.7201,1.7201,1.7588,1.8008,1.8008,1.8008,1.8242,1.9102,1.9955,2.0741,2.1628,2.2472,2.3243,2.3963,2.35,2.3537,2.5087,2.3986,2.3548,2.5087,2.3607,2.2252,2.1883,2.2515,2.2852,2.244,2.315,2.3409,2.3038,2.3001,2.3001,2.3001,2.3001,2.3001,2.3001,2.3482,2.3973,2.4486,2.4986,2.5456,2.5895,2.5895,2.5895,-1.2123,-1.1957,-1.165,-1.0559,-1.0824,-1.1132,-1.0472,-1.0824,-1.1084,-1.0289,-0.9628,-0.8615,-0.6729,-0.6552,-0.6113,-0.4387,-0.4328,-0.4124,-0.2939,-0.2291,-0.1831,-0.1512,-0.1381,-0.11,-0.0628,0.0118,0.0903,0.0,0.0,0.0,0.0,0.4462,0.4971,0.586,0.6556,0.7207,0.7783,0.8394,0.8703,0.8703,0.8703,0.8818,0.9046,0.9046,0.99,1.1428,1.1607,1.2565,1.4021,1.4165,1.4238,1.4274,1.4389,1.4461,1.4497,1.4713,1.4776,1.4812,1.4919,1.5204,1.5559,1.5877,1.6202,1.6517,1.6795,1.6908,1.6908,1.6908,1.7038,1.7201,1.7201,1.7417,1.7642,1.7642,1.7725,1.8188,1.962,2.0232,2.0921,2.2365,2.3279,2.3829,2.4047,2.4384,2.4755,2.5241,2.442,2.3841,2.4093,2.3849,2.3641,2.3482,2.3446,2.3372,2.3261,2.3187,2.3113,2.3001,2.3001,2.3001,2.3001,2.3001,2.3001,2.3001,2.3143,2.3635,2.4486,2.4628,2.5109,2.5895,2.5895,2.5812,-1.1516,-1.1257,-1.0949,-1.012,-1.0342,-1.0603,-1.0033,-1.0646,-1.0911,-0.9589,-0.9187,-0.8396,-0.6204,-0.5983,-0.5758,-0.452,-0.4353,-0.4046,-0.3162,-0.2555,-0.2014,-0.1574,-0.1178,-0.0746,-0.0353,0.0471,0.1255,0.0,0.0,0.0,0.0,0.4073,0.4732,0.5977,0.6318,0.7049,0.8165,0.836,0.8551,0.8703,0.8627,0.8627,0.8703,0.8703,0.9523,1.0969,1.1675,1.2792,1.4093,1.4093,1.4165,1.4245,1.4353,1.4425,1.4497,1.4569,1.4605,1.4605,1.4605,1.4848,1.524,1.548,1.5912,1.6351,1.6595,1.676,1.6908,1.6908,1.7003,1.7072,1.7072,1.7185,1.7298,1.747,1.7828,1.8512,1.9895,2.0684,2.1563,2.2967,2.3742,2.4143,2.4143,2.4299,2.4479,2.4814,2.4443,2.39,2.3224,2.3593,2.3897,2.3751,2.3519,2.3372,2.3372,2.315,2.3001,2.3001,2.3001,2.3001,2.3001,2.3001,2.2964,2.2889,2.2889,2.333,2.4238,2.4238,2.4713,2.5633,2.5633,2.5549,-1.0641,-1.012,-0.9903,-0.9816,-0.9772,-0.9772,-0.9772,-1.0429,-1.0603,-0.9021,-0.8356,-0.7478,-0.568,-0.4971,-0.4567,-0.4334,-0.4216,-0.3999,-0.3444,-0.2917,-0.2412,-0.1886,-0.0903,-0.0236,-0.0157,0.0902,0.0,0.0,0.0,0.0,0.0,0.3569,0.4577,0.6125,0.6079,0.685,0.8627,0.8289,0.8293,0.8627,0.8479,0.8479,0.8665,0.8665,0.9263,1.0378,1.2087,1.3317,1.4057,1.4057,1.4173,1.4361,1.4353,1.4461,1.4569,1.4605,1.4605,1.4605,1.4605,1.4848,1.5161,1.5204,1.5665,1.6202,1.6272,1.6551,1.6839,1.6874,1.6908,1.6908,1.6908,1.6943,1.7081,1.7436,1.8178,1.9063,2.0012,2.1164,2.2358,2.3366,2.3849,2.4116,2.4116,2.3556,2.3372,2.408,2.4164,2.3751,2.2665,2.3113,2.3409,2.3038,2.3001,2.3001,2.3001,2.3001,2.3001,2.3001,2.2964,2.2964,2.2964,2.2964,2.2889,2.2703,2.2665,2.3062,2.3788,2.3788,2.4296,2.52,2.52,2.52,-1.088,-1.0366,-0.9985,-0.9026,-0.8807,-0.8807,-0.8807,-0.8938,-0.8759,-0.7526,-0.6993,-0.6375,-0.5102,-0.4614,-0.4366,-0.4255,-0.4124,-0.3865,-0.3405,-0.2847,-0.2169,-0.1215,-0.0628,0.0078,0.1097,0.145,0.0,0.0,0.0,0.0,0.3102,0.3841,0.4807,0.5925,0.6591,0.733,0.8217,0.814,0.814,0.0,0.8178,0.8178,0.825,0.8551,0.949,1.0956,1.1996,1.2893,1.3637,1.3637,1.3754,1.3935,1.4101,1.4281,1.4461,1.4569,1.4605,1.4605,1.4605,1.4677,1.4776,1.5098,1.5311,1.5559,1.6132,1.6342,1.6482,1.6795,1.6908,1.6908,1.6908,1.7201,1.7545,1.7647,1.8208,1.9034,2.0184,2.1018,2.1923,2.3143,2.3449,2.3486,2.3486,2.3728,2.4007,2.4164,2.3934,2.3641,2.3372,2.3224,2.3113,2.3001,2.3001,2.3001,2.3001,2.3001,2.3001,2.3001,2.2852,2.2777,2.2777,2.2777,2.274,2.2703,2.2553,2.2909,2.3788,2.3788,2.4296,2.52,2.52,2.5115,-1.0799,-1.0067,-0.9331,-0.8149,-0.8149,-0.8368,-0.7929,-0.7841,-0.7533,-0.6476,-0.6425,-0.6201,-0.4926,-0.4569,-0.4406,-0.4231,-0.4095,-0.3837,-0.3378,-0.2666,-0.1882,-0.1019,-0.0078,0.0746,0.1528,0.0,0.0,0.0,0.0,0.2784,0.3409,0.3876,0.4763,0.6157,0.6553,0.7176,0.8102,0.791,0.791,0.8102,0.7991,0.7991,0.8102,0.8403,0.949,1.1111,1.1558,1.2415,1.3492,1.3492,1.3608,1.3826,1.4029,1.4209,1.4425,1.4569,1.4605,1.4605,1.4605,1.4605,1.4641,1.4848,1.5026,1.5275,1.5665,1.5912,1.6088,1.6298,1.6368,1.6403,1.6551,1.6968,1.727,1.7097,1.8128,1.9379,2.0276,2.085,2.1576,2.277,2.2868,2.283,2.3128,2.3398,2.3641,2.3641,2.3446,2.3298,2.3187,2.3001,2.2815,2.274,2.2703,2.2703,2.2703,2.2703,2.2703,2.2703,2.2628,2.2553,2.2553,2.2478,2.2402,2.2402,2.2327,2.2678,2.3507,2.3507,2.3979,2.4871,2.4871,2.4828,-1.0766,-0.9676,-0.8627,-0.7401,-0.7665,-0.8017,-0.7051,-0.6877,-0.6656,-0.5866,-0.6169,-0.6207,-0.4968,-0.469,-0.4515,-0.4033,-0.3858,-0.3564,-0.3034,-0.2221,-0.145,-0.0784,0.0471,0.1413,0.1686,0.0,0.0,0.0,0.0,0.2899,0.3752,0.3947,0.4761,0.6388,0.6433,0.6938,0.7987,0.7676,0.7676,0.7987,0.7838,0.7838,0.8063,0.8255,0.9268,1.0844,1.0887,1.1818,1.3273,1.3119,1.3309,1.3608,1.3622,1.3869,1.4201,1.431,1.4453,1.4605,1.4605,1.4605,1.4605,1.4605,1.482,1.5098,1.5169,1.5444,1.5727,1.5762,1.5903,1.6053,1.6342,1.6726,1.6934,1.6621,1.7932,1.947,2.0083,2.0668,2.1321,2.2392,2.2327,2.2289,2.2852,2.2964,2.2927,2.2889,2.2889,2.2852,2.2665,2.2665,2.259,2.2402,2.2402,2.2402,2.2402,2.2402,2.2402,2.2402,2.2365,2.2365,2.2365,2.2138,2.2063,2.2063,2.2063,2.2418,2.3184,2.3184,2.366,2.4497,2.4497,2.4497,-1.1182,-0.9927,-0.8627,-0.7401,-0.7183,-0.7051,-0.6086,-0.5866,-0.5866,-0.5733,-0.5641,-0.5458,-0.5055,-0.4717,-0.4196,-0.3173,-0.2854,-0.2505,-0.1698,-0.1099,-0.0548,0.0078,0.0824,0.1531,0.2079,0.0,0.0,0.0,0.2511,0.2899,0.3752,0.4455,0.5273,0.6202,0.6938,0.7403,0.7561,0.7522,0.7522,0.7561,0.7561,0.7642,0.7838,0.8068,0.8742,0.9825,0.9986,1.0962,1.2415,1.1706,1.1966,1.2709,1.202,1.2418,1.3346,1.3382,1.3897,1.4605,1.4605,1.4605,1.4605,1.4605,1.4641,1.4748,1.5098,1.524,1.5338,1.5692,1.6263,1.676,1.6795,1.7201,1.7569,1.7535,1.7735,1.8257,1.9291,2.0396,2.1362,2.2052,2.2149,2.2252,2.2665,2.274,2.2665,2.2515,2.2478,2.2478,2.244,2.244,2.244,2.2402,2.2402,2.2402,2.2402,2.2402,2.2402,2.2402,2.2252,2.2138,2.2138,2.1959,2.1845,2.1845,2.1845,2.2302,2.3184,2.3184,2.366,2.4497,2.4497,2.4497,-1.0476,-0.9444,-0.8496,-0.6745,-0.6305,-0.6216,-0.5777,-0.5688,-0.5688,-0.5688,-0.5193,-0.4683,-0.4272,-0.41,-0.3558,-0.2236,-0.1961,-0.177,-0.1376,-0.0705,-0.0117,0.0274,0.0981,0.1611,0.2003,0.0,0.0,0.0,0.2898,0.36,0.4416,0.5231,0.6047,0.6899,0.7288,0.7484,0.7484,0.7484,0.7484,0.7484,0.7484,0.7561,0.7642,0.7838,0.8551,0.9599,0.9798,1.055,1.1595,1.126,1.1372,1.1744,1.1496,1.2013,1.2879,1.2981,1.3571,1.4353,1.4461,1.4497,1.4497,1.4569,1.4605,1.4641,1.4812,1.4848,1.4883,1.5098,1.5346,1.5665,1.5877,1.6289,1.6613,1.659,1.7442,1.8443,1.9106,1.9717,2.0469,2.153,2.2025,2.2327,2.2515,2.2515,2.2515,2.2402,2.2402,2.2365,2.2252,2.2214,2.2176,2.2073,2.2063,2.2063,2.2063,2.2063,2.2063,2.2063,2.1997,2.1911,2.1911,2.1845,2.1921,2.219,2.219,2.2522,2.3184,2.3443,2.3908,2.4497,2.4497,2.4497,-1.0519,-0.9575,-0.8671,-0.6962,-0.6174,-0.5777,-0.5733,-0.5508,-0.5329,-0.5329,-0.4592,-0.3751,-0.3108,-0.3094,-0.2759,-0.1389,-0.1091,-0.096,-0.0668,-0.0078,0.0392,0.0549,0.1178,0.165,0.1808,0.0,0.0,0.0,0.3248,0.4183,0.5234,0.5893,0.6591,0.748,0.7484,0.7484,0.7484,0.7484,0.7484,0.7484,0.7484,0.7484,0.7522,0.7723,0.8293,0.915,0.9425,0.9986,1.0694,1.0545,1.0625,1.0775,1.0757,1.1347,1.2328,1.2462,1.32,1.4129,1.4281,1.4353,1.4425,1.4533,1.4569,1.4605,1.4605,1.4605,1.4605,1.4605,1.4748,1.4955,1.5267,1.5586,1.5821,1.5841,1.71,1.8527,1.9488,1.9889,2.0391,2.153,2.2111,2.2365,2.2327,2.2327,2.2327,2.2252,2.2252,2.2176,2.2025,2.2025,2.1959,2.1807,2.1807,2.1807,2.1807,2.1807,2.1807,2.1807,2.1807,2.1807,2.1807,2.1807,2.2025,2.249,2.2615,2.2904,2.336,2.3712,2.4105,2.4497,2.4497,2.4497,-1.2314,-1.0928,-0.9453,-0.889,-0.7401,-0.5994,-0.5777,-0.5015,-0.4389,-0.4389,-0.3613,-0.2634,-0.1436,-0.1766,-0.1792,-0.0652,-0.0239,0.0235,0.106,0.1218,0.1218,0.1257,0.1454,0.1611,0.1611,0.0,0.0,0.0,0.3407,0.4224,0.6047,0.6163,0.6591,0.748,0.7484,0.7484,0.7484,0.7484,0.7484,0.7484,0.7484,0.7484,0.7522,0.7723,0.7842,0.7915,0.8289,0.8927,0.9631,0.9074,0.9268,0.9879,0.9117,0.9933,1.1452,1.1452,1.2602,1.4093,1.4093,1.4245,1.4389,1.4397,1.4497,1.4605,1.4605,1.4605,1.4605,1.4605,1.5133,1.5727,1.5762,1.5762,1.5892,1.6206,1.6702,1.7888,2.0735,2.1825,2.2252,2.2327,2.2365,2.2327,2.2138,2.2101,2.2063,2.1845,2.1845,2.1845,2.1807,2.1807,2.1807,2.1807,2.1807,2.1807,2.1807,2.1807,2.1807,2.1807,2.1807,2.1807,2.1807,2.1807,2.2025,2.249,2.2925,2.3381,2.3836,2.3909,2.4105,2.4497,2.4497,2.4497,-1.1703,-1.0572,-0.9362,-0.8444,-0.7136,-0.5905,-0.5233,-0.4654,-0.4148,-0.352,-0.2617,-0.1803,-0.1366,-0.1397,-0.106,0.0239,0.0513,0.0746,0.1218,0.1296,0.1492,0.2002,0.2119,0.2392,0.2976,0.0,0.0,0.0,0.0,0.5157,0.5977,0.6556,0.7057,0.7484,0.7484,0.7484,0.7484,0.7484,0.7484,0.7484,0.7484,0.7484,0.7484,0.7561,0.7603,0.7642,0.7915,0.8327,0.8813,0.8742,0.8856,0.9084,0.8813,0.9712,1.1211,1.1211,1.2254,1.3746,1.3855,1.3964,1.408,1.4325,1.4425,1.4497,1.4569,1.4605,1.4605,1.4605,1.482,1.5026,1.5026,1.5206,1.5826,1.7503,1.8215,1.8916,2.0517,2.1482,2.1835,2.128,2.1634,2.1987,2.1921,2.1921,2.1873,2.1807,2.1807,2.1807,2.1807,2.1807,2.1807,2.1807,2.1807,2.1807,2.1807,2.1807,2.1807,2.1807,2.1807,2.1807,2.1807,2.2087,2.247,2.2925,2.3391,2.3712,2.3919,2.4167,2.4342,2.4497,2.4497,2.4497,-1.1869,-1.0659,-0.9488,-0.8619,-0.7356,-0.6124,-0.5364,-0.4537,-0.3749,-0.3045,-0.1845,-0.0927,-0.094,-0.0807,-0.0399,0.0551,0.0825,0.0943,0.1139,0.1492,0.1884,0.2433,0.2743,0.3171,0.3752,0.0,0.0,0.0,0.0,0.0,0.6209,0.6791,0.7176,0.7288,0.7369,0.7407,0.7407,0.7484,0.7484,0.7484,0.7484,0.7484,0.7484,0.7484,0.7484,0.7522,0.7723,0.7953,0.8217,0.8403,0.8518,0.8518,0.8518,0.9528,1.0987,1.0987,1.207,1.3528,1.3645,1.3754,1.3826,1.4109,1.4289,1.4425,1.4497,1.4533,1.4533,1.4533,1.4533,1.4533,1.4533,1.4962,1.5861,1.7873,1.8629,1.9027,1.955,2.0576,2.1175,2.0615,2.1213,2.1807,2.1807,2.1807,2.1807,2.1807,2.1807,2.1807,2.1807,2.1807,2.1807,2.1807,2.1807,2.1807,2.1807,2.1807,2.1807,2.1807,2.1807,2.188,2.2035,2.2335,2.278,2.3412,2.3722,2.395,2.4105,2.4352,2.4497,2.4497,2.4497,2.4497,0.0,0.0,0.0,-0.9666,-0.8229,-0.6697,-0.6166,-0.4568,-0.3114,-0.2901,-0.1341,0.0,0.0,0.0,0.0079,0.0275,0.0628,0.0904,0.0904,0.1804,0.247,0.2549,0.3288,0.383,0.3869,0.0,0.0,0.0,0.5345,0.5774,0.6822,0.6903,0.6903,0.6903,0.7099,0.718,0.718,0.7411,0.7484,0.7484,0.7484,0.7484,0.7484,0.7484,0.7484,0.7522,0.7723,0.7804,0.7804,0.803,0.8102,0.8102,0.8102,0.9226,1.0783,1.0783,1.1946,1.3492,1.3492,1.3645,1.379,1.3797,1.408,1.4397,1.4389,1.4389,1.4389,1.4389,1.4389,1.4397,1.4421,1.5069,1.6047,1.7238,1.7763,1.7997,1.8037,1.9304,2.0459,2.0459,2.1175,2.1807,2.1807,2.1807,2.1807,2.1807,2.1807,2.1807,2.1807,2.1807,2.1807,2.1807,2.1807,2.1807,2.1807,2.1807,2.1807,2.1807,2.1818,2.2025,2.248,2.2522,2.2956,2.3857,2.3888,2.4105,2.4497,2.4497,2.4497,2.4497,2.4497,2.4497,-1.4035,0.0,0.0,0.0,0.0,0.0,-0.5713,-0.4163,-0.2862,-0.2117,-0.0902,0.0,0.0,0.0,0.0,0.0079,0.0314,0.055,0.0864,0.1139,0.1883,0.3287,0.3636,0.4261,0.0,0.0,0.0,0.0,0.6022,0.6212,0.6676,0.6826,0.6903,0.6903,0.6942,0.698,0.698,0.7176,0.7296,0.7296,0.7446,0.7484,0.7484,0.7484,0.7484,0.7522,0.7561,0.7603,0.7599,0.7949,0.8102,0.8102,0.8102,0.9226,1.0783,1.0783,1.1946,1.3492,1.3492,1.3535,1.3608,1.3761,1.3863,1.4008,1.4137,1.4165,1.4165,1.4165,1.4165,1.4325,1.4976,1.596,1.696,1.7669,1.792,1.8158,1.8789,1.9295,1.962,1.962,2.0808,2.1807,2.1807,2.1807,2.1807,2.1807,2.1807,2.1807,2.1807,2.1807,2.1807,2.1807,2.1807,2.1807,2.1807,2.1807,2.1807,2.1807,2.2118,2.2366,2.249,2.3143,2.3619,2.3867,2.4198,2.4373,2.4497,2.4497,2.4497,2.4497,2.4497,2.4497,-1.449,-1.3135,-1.175,-1.059,0.0,0.0,-0.6356,-0.4819,-0.3373,-0.2277,-0.1249,-0.0439,-0.0079,0.0,0.0,0.0,0.0118,0.0275,0.0589,0.1334,0.2233,0.3365,0.4183,0.5043,0.0,0.6219,0.63,0.63,0.63,0.6335,0.649,0.6602,0.6637,0.6637,0.6714,0.6788,0.6788,0.7065,0.7142,0.7061,0.7292,0.7369,0.7369,0.7369,0.7407,0.7484,0.7484,0.7484,0.7522,0.7753,0.7834,0.7906,0.8327,0.9372,1.0746,1.1156,1.2241,1.3492,1.3492,1.3492,1.3528,1.3645,1.3717,1.3826,1.3928,1.3956,1.3956,1.3956,1.4062,1.4402,1.5351,1.6142,1.6811,1.7317,1.7723,1.8158,1.8669,1.8939,1.9265,1.9698,2.0576,2.1367,2.1731,2.1492,2.1377,2.1769,2.1807,2.1807,2.1807,2.1807,2.1807,2.1807,2.1807,2.1807,2.1807,2.1807,2.189,2.2087,2.2346,2.2677,2.306,2.3588,2.396,2.4146,2.4363,2.4497,2.4497,2.4497,2.4315,2.3907,2.3907,2.3691,-1.4789,-1.3659,-1.2728,-1.1271,-0.9629,0.0,-0.7518,-0.5931,-0.4272,-0.3028,-0.2026,-0.1097,-0.0196,-0.0039,-0.0039,0.0,0.0,0.0079,0.0275,0.1803,0.2976,0.313,0.4688,0.5822,0.5941,0.618,0.63,0.63,0.63,0.63,0.63,0.63,0.63,0.63,0.649,0.6563,0.6563,0.6949,0.7061,0.6865,0.7061,0.718,0.718,0.718,0.7296,0.7484,0.7484,0.7484,0.7484,0.7484,0.7561,0.771,0.8661,0.9669,1.0752,1.1675,1.2652,1.3492,1.3492,1.3492,1.3492,1.3492,1.3608,1.3754,1.3754,1.3754,1.3761,1.3798,1.4082,1.4606,1.5597,1.5894,1.6043,1.6536,1.7245,1.7836,1.7957,1.835,1.9058,2.0099,2.0382,2.0741,2.153,2.1088,2.0895,2.1683,2.1769,2.1769,2.1807,2.1769,2.1769,2.1807,2.1807,2.1807,2.1807,2.1859,2.2056,2.247,2.2594,2.3018,2.3888,2.3929,2.4136,2.4487,2.4497,2.4497,2.4497,2.4497,2.409,2.328,2.328,2.2799,-1.5887,-1.4599,-1.314,-1.1358,-0.9907,0.0,-0.7837,-0.6106,-0.4406,-0.3463,-0.2473,-0.1451,-0.0432,-0.0236,-0.0196,-0.0039,0.0,0.0079,0.0275,0.1216,0.2271,0.3244,0.4297,0.0,0.6141,0.6261,0.63,0.63,0.63,0.63,0.63,0.63,0.63,0.63,0.6338,0.6377,0.6377,0.6602,0.6679,0.6676,0.6868,0.6942,0.698,0.7142,0.7219,0.7257,0.7446,0.7484,0.7484,0.7484,0.7902,0.8513,0.8851,1.0013,1.1515,1.1866,1.2652,1.3492,1.3492,1.3492,1.3492,1.3492,1.3535,1.3572,1.3572,1.3572,1.3623,1.3888,1.4342,1.4859,1.5305,1.5741,1.6126,1.6386,1.6599,1.6919,1.761,1.7674,1.794,1.9018,1.9767,2.0362,2.0702,2.1175,2.1606,2.1759,2.1655,2.1617,2.1769,2.1655,2.1617,2.1769,2.1807,2.1807,2.1807,2.2149,2.2397,2.249,2.3194,2.3691,2.3867,2.4219,2.4404,2.4497,2.4497,2.4497,2.4497,2.4497,2.4411,2.4229,2.4229,2.4133,-1.6661,-1.5773,-1.4689,-1.2397,-1.1055,0.0,0.0,-0.6944,-0.5574,-0.4176,-0.3517,-0.2738,-0.1333,-0.102,-0.0785,-0.0236,0.0314,0.0667,0.0784,0.1528,0.2465,0.3597,0.4574,0.0,0.6022,0.6219,0.63,0.63,0.63,0.63,0.63,0.63,0.63,0.63,0.63,0.63,0.63,0.6486,0.6563,0.6451,0.6637,0.6753,0.6753,0.6945,0.7103,0.7223,0.7407,0.7484,0.7484,0.7484,0.7978,0.8737,0.9036,0.9712,1.0651,1.1731,1.2475,1.2973,1.3346,1.3492,1.3492,1.3492,1.3492,1.3492,1.3492,1.3609,1.3843,1.4326,1.4652,1.4977,1.5416,1.5703,1.5948,1.6196,1.655,1.6952,1.7391,1.7302,1.7334,1.798,1.8731,1.9492,2.0226,2.0702,2.1108,2.1464,2.1397,2.1436,2.1617,2.154,2.1578,2.1769,2.1807,2.1901,2.2128,2.2366,2.2687,2.3153,2.3619,2.3971,2.4198,2.4373,2.4497,2.4497,2.4497,2.4497,2.4497,2.4497,2.4272,2.382,2.382,2.3551,-1.7414,-1.6698,-1.5941,-1.3376,-1.2063,-1.0959,0.0,0.0,0.0,-0.5107,-0.4606,-0.3984,-0.2272,-0.1803,0.0,-0.0432,0.0,0.0,0.0,0.1996,0.0,0.399,0.4971,0.0,0.5864,0.6141,0.63,0.63,0.63,0.63,0.63,0.63,0.63,0.63,0.63,0.63,0.63,0.6451,0.6451,0.63,0.6451,0.6525,0.6563,0.6791,0.698,0.7142,0.7407,0.7484,0.7484,0.7484,0.7902,0.8589,0.9112,0.9485,0.9976,1.1663,1.2415,1.2636,1.3273,1.3492,1.3492,1.3492,1.3536,1.3587,1.3587,1.3857,1.4275,1.4754,1.4944,1.5094,1.555,1.565,1.5741,1.5955,1.6509,1.6976,1.6976,1.6813,1.6764,1.6935,1.7577,1.8381,1.9471,2.004,2.0479,2.0673,2.1002,2.1205,2.1262,2.1387,2.1578,2.1769,2.189,2.2087,2.247,2.2656,2.308,2.3867,2.396,2.4167,2.4487,2.4497,2.4497,2.4497,2.4497,2.4497,2.4497,2.4497,2.409,2.3367,2.3367,2.2974,-1.8317,-1.6918,-1.5207,-1.3438,-1.2029,-1.0899,-0.9954,0.0,-0.7169,-0.6188,0.0,-0.4377,-0.2508,0.0,0.0,0.0,0.0,0.0,0.1176,0.1996,0.2895,0.399,0.4971,0.5673,0.0,0.6141,0.63,0.63,0.63,0.63,0.63,0.63,0.63,0.63,0.63,0.63,0.63,0.6338,0.6338,0.63,0.6338,0.6338,0.6335,0.6714,0.6903,0.6942,0.7326,0.7484,0.7484,0.7484,0.7642,0.7991,0.8927,1.0164,1.1521,1.2077,1.2746,1.3382,1.3455,1.3492,1.3492,1.3492,1.3689,1.3923,1.3923,1.4348,1.4812,1.4878,1.5104,1.5338,1.5416,1.5582,1.5692,1.5733,1.5816,1.5891,1.5891,1.5741,1.5624,1.5858,1.6568,1.7245,1.7577,1.955,2.0595,1.9128,2.0226,2.0992,2.0401,2.1011,2.1578,2.1769,2.217,2.2439,2.249,2.3246,2.3805,2.3867,2.425,2.4445,2.4497,2.4497,2.4497,2.4497,2.4497,2.4497,2.4497,2.4497,2.4454,2.4358,2.4358,2.4272,-1.859,-1.7396,-1.6231,-1.4396,0.0,0.0,-1.0975,0.0,-0.9092,0.0,0.0,0.0,0.0,0.0,0.0,0.0,-0.0235,0.0862,0.0,0.0,0.348,0.0,0.0,0.0,0.0,0.0,0.0,0.0,0.63,0.63,0.63,0.63,0.6064,0.5553,0.6025,0.6064,0.5553,0.6064,0.63,0.63,0.63,0.63,0.63,0.6714,0.6903,0.6942,0.7326,0.7484,0.7484,0.7484,0.7561,0.7718,0.8732,0.9674,1.0651,1.1855,1.2526,1.2863,1.3346,1.3492,1.3528,1.3718,1.391,1.4048,1.4428,1.4688,1.4944,1.5126,1.5279,1.5389,1.5389,1.5465,1.5541,1.5541,1.5541,1.5541,1.5541,1.5465,1.5423,1.5506,1.6214,1.669,1.6263,1.8029,1.9432,1.9225,1.9795,2.043,2.0895,2.1262,2.1681,2.2141,2.2387,2.2718,2.3256,2.365,2.3991,2.425,2.4394,2.4497,2.4497,2.4497,2.4497,2.4497,2.4497,2.4497,2.4497,2.4497,2.4229,2.3681,2.4229,2.4497,-1.8566,0.0,0.0,0.0,0.0,0.0,0.0,0.0,0.0,0.0,0.0,0.0,0.0,0.0,-0.3361,-0.2116,0.0,0.0587,0.1683,0.2737,0.0,0.0,0.0,0.0,0.0,0.0,0.0,0.618,0.6261,0.63,0.63,0.63,0.5906,0.5043,0.5828,0.5867,0.5004,0.5867,0.63,0.63,0.63,0.6338,0.6374,0.6753,0.6942,0.7022,0.7369,0.7484,0.7484,0.7484,0.7672,0.8012,0.896,0.9707,1.0421,1.1737,1.2378,1.2636,1.3273,1.355,1.3682,1.4049,1.4172,1.4333,1.4761,1.4966,1.5082,1.5323,1.5389,1.5389,1.5389,1.5389,1.5389,1.5389,1.5389,1.5389,1.5389,1.5389,1.5389,1.5389,1.5899,1.6139,1.5506,1.6952,1.8381,1.8829,1.9274,1.9952,2.0944,2.1373,2.1769,2.2263,2.2599,2.3062,2.3732,2.3907,2.4114,2.4391,2.4368,2.4325,2.4411,2.4368,2.4325,2.4421,2.4411,2.4454,2.4497,2.4497,2.4003,2.3139,2.382,2.396,0.0,0.0,0.0,-1.5081,0.0,0.0,0.0,0.0,-1.1081,0.0,0.0,0.0,-0.6342,-0.5342,-0.4064,-0.2194,-0.1685,0.0,0.0,0.1488,0.3129,0.4781,0.0,0.0,0.0,0.5789,0.5902,0.5902,0.6141,0.63,0.63,0.63,0.5906,0.5043,0.5828,0.5867,0.5004,0.5867,0.63,0.63,0.63,0.6412,0.6602,0.6788,0.7022,0.7223,0.7407,0.7484,0.7484,0.7484,0.8093,0.9036,0.9857,1.087,1.1929,1.2003,1.2489,1.32,1.3419,1.3704,1.4056,1.4386,1.4662,1.4871,1.4893,1.5119,1.5374,1.5382,1.5389,1.5389,1.5389,1.5389,1.5389,1.5389,1.5389,1.5389,1.5389,1.5389,1.5389,1.5389,1.5431,1.5423,1.5389,1.6837,1.7787,1.7163,1.8501,1.9678,1.9943,2.1036,2.1799,2.1809,2.2787,2.3492,2.3523,2.3931,2.4186,2.4206,2.398,2.3937,2.4206,2.398,2.3937,2.4206,2.4206,2.4292,2.4497,2.4497,2.4003,2.3096,2.3139,2.2658,0.0,0.0,-1.6298,-1.5638,0.0,0.0,0.0,0.0,0.0,0.0,0.0,0.0,0.0,-0.6311,-0.5262,-0.3947,-0.266,-0.141,0.0,0.1837,0.3558,0.4146,0.4851,0.5359,0.0,0.0,0.0,0.6141,0.6261,0.63,0.63,0.63,0.5906,0.5043,0.5828,0.5867,0.5004,0.5867,0.6377,0.6486,0.6486,0.6602,0.6788,0.7022,0.7142,0.7223,0.7407,0.7484,0.7484,0.7484,0.8016,0.8889,0.9669,1.0651,1.1706,1.2489,1.3046,1.3455,1.374,1.4071,1.4394,1.4677,1.4812,1.4944,1.5155,1.5301,1.5389,1.5389,1.5389,1.5389,1.5389,1.5389,1.5389,1.5389,1.5389,1.5389,1.5389,1.5389,1.5389,1.5389,1.5389,1.5389,1.5389,1.6386,1.7302,1.777,1.8868,1.9978,2.1017,2.1511,2.204,2.2674,2.3047,2.3392,2.3685,2.3846,2.3937,2.3937,2.3841,2.3841,2.3927,2.4024,2.412,2.4206,2.4325,2.4411,2.4497,2.4497,2.4003,2.3096,2.3096,2.2614,-1.698,-1.6473,0.0,-1.5903,-1.5805,0.0,-1.5125,0.0,-1.352,0.0,0.0,0.0,0.0,-0.7238,-0.6192,-0.48,-0.3597,-0.2189,0.0,0.1835,0.3441,0.3752,0.4616,0.5285,0.5479,0.5673,0.5906,0.6141,0.6261,0.63,0.0,0.0,0.5906,0.5043,0.5828,0.5867,0.5004,0.5941,0.649,0.6602,0.6676,0.683,0.7022,0.7142,0.7219,0.7296,0.7446,0.7484,0.7484,0.7484,0.8127,0.916,0.954,1.0486,1.1746,1.2875,1.3518,1.3887,1.4209,1.4457,1.4692,1.4973,1.5075,1.5112,1.5323,1.5389,1.5389,1.5389,1.5389,1.5389,1.5389,1.5389,1.5389,1.5389,1.5389,1.5389,1.5389,1.5389,1.5389,1.5389,1.5389,1.5389,1.5389,1.6098,1.7058,1.8141,1.8997,1.9916,2.1063,2.1589,2.2005,2.2422,2.2988,2.341,2.3691,2.3667,2.3667,2.3667,2.358,2.358,2.3667,2.3851,2.398,2.4067,2.4282,2.4411,2.4497,2.4497,2.4003,2.3096,2.3096,2.2614]},{"header":{"parameterUnit":"m.s-1","parameterCategory":1,"la1":30.6,"la2":29.2853,"lo1":-89.7004,"lo2":-87.6739,"dy":0.0162,"dx":0.0183,"nx":112,"ny":82,"refTime":"2023-09-21T00:00:00:Z","depth":0,"parameterNumber":3,"parameterNumberName":"V-component_of_WINDS"},"data":[0.0,0.0,0.0,0.0,0.0,0.0,0.0,0.0,0.0,0.0,0.0,0.0,0.0,0.0,0.0,0.0,0.0,0.0,0.0,0.0,0.0,0.0,0.0,0.0,0.0,0.0,0.0,0.0,0.0,0.0,0.0,0.0,0.0,0.0,0.0,0.0,0.0,0.0,0.0,0.0,0.0,0.0,0.0,0.0,0.0,0.0,0.0,0.0,0.0,0.0,0.0,0.0,0.0,0.0,0.0,0.0,0.0,0.0,0.0,0.0,0.0,0.0,0.0,0.0,0.0,0.0,0.0,0.0,0.0,0.0,0.0,0.0,0.0,0.0,0.0,0.0,0.0,0.0,0.0,0.0,0.0,0.0,0.0,0.0,0.0,0.0,0.0,0.0,0.0,0.0,3.1657,3.099,2.9899,2.9209,2.9139,2.8629,2.8264,2.8207,0.0,0.0,0.0,0.0,0.0,0.0,0.0,0.0,0.0,0.0,0.0,0.0,0.0,0.0,0.0,0.0,0.0,0.0,0.0,0.0,0.0,0.0,0.0,0.0,0.0,0.0,0.0,0.0,0.0,0.0,0.0,0.0,0.0,0.0,0.0,0.0,0.0,0.0,0.0,0.0,0.0,0.0,0.0,0.0,0.0,0.0,0.0,0.0,0.0,0.0,0.0,0.0,0.0,0.0,0.0,0.0,0.0,0.0,0.0,0.0,0.0,0.0,0.0,0.0,0.0,0.0,0.0,0.0,0.0,0.0,0.0,0.0,0.0,0.0,0.0,0.0,0.0,0.0,0.0,0.0,0.0,0.0,0.0,0.0,0.0,0.0,0.0,0.0,0.0,0.0,0.0,0.0,0.0,0.0,0.0,0.0,0.0,0.0,0.0,0.0,0.0,0.0,0.0,0.0,3.167,3.1059,3.0314,2.9697,2.9305,2.8667,2.8134,2.7735,0.0,0.0,0.0,0.0,0.0,0.0,0.0,0.0,0.0,0.0,0.0,0.0,0.0,0.0,0.0,0.0,0.0,0.0,0.0,0.0,0.0,0.0,0.0,0.0,0.0,0.0,0.0,0.0,0.0,0.0,0.0,0.0,0.0,0.0,0.0,0.0,0.0,0.0,0.0,0.0,0.0,0.0,0.0,0.0,0.0,0.0,0.0,0.0,0.0,0.0,0.0,0.0,0.0,0.0,0.0,0.0,0.0,0.0,0.0,0.0,0.0,0.0,0.0,0.0,0.0,0.0,0.0,0.0,0.0,0.0,0.0,0.0,0.0,0.0,0.0,0.0,0.0,0.0,0.0,0.0,0.0,0.0,0.0,0.0,0.0,0.0,0.0,0.0,0.0,0.0,0.0,0.0,0.0,0.0,0.0,0.0,0.0,0.0,0.0,0.0,0.0,0.0,0.0,3.2392,3.1408,3.0795,3.0144,2.9699,2.9496,2.9167,2.8783,2.8282,2.8124,0.0,0.0,0.0,0.0,0.0,0.0,0.0,0.0,0.0,0.0,0.0,0.0,0.0,0.0,0.0,0.0,0.0,0.0,0.0,0.0,0.0,0.0,0.0,0.0,0.0,0.0,0.0,0.0,0.0,0.0,0.0,0.0,0.0,0.0,0.0,0.0,0.0,0.0,0.0,0.0,0.0,0.0,0.0,0.0,0.0,0.0,0.0,0.0,0.0,0.0,0.0,0.0,0.0,0.0,0.0,0.0,0.0,0.0,0.0,0.0,0.0,0.0,0.0,0.0,0.0,0.0,0.0,0.0,0.0,0.0,0.0,0.0,0.0,0.0,0.0,0.0,0.0,0.0,0.0,0.0,0.0,0.0,0.0,0.0,0.0,0.0,0.0,0.0,0.0,0.0,0.0,0.0,0.0,0.0,0.0,0.0,0.0,0.0,0.0,0.0,0.0,0.0,3.2388,3.1597,3.1011,3.0288,2.9804,2.9804,2.9696,2.9424,2.9004,2.8453,0.0,0.0,0.0,0.0,0.0,0.0,0.0,0.0,0.0,0.0,0.0,0.0,0.0,0.0,0.0,0.0,0.0,0.0,0.0,0.0,0.0,0.0,0.0,0.0,0.0,0.0,0.0,0.0,0.0,0.0,0.0,0.0,0.0,0.0,0.0,0.0,0.0,0.0,0.0,0.0,0.0,0.0,0.0,0.0,0.0,0.0,0.0,0.0,0.0,0.0,0.0,0.0,0.0,0.0,0.0,0.0,0.0,0.0,0.0,0.0,0.0,0.0,0.0,0.0,0.0,0.0,0.0,0.0,0.0,0.0,0.0,0.0,0.0,0.0,0.0,0.0,0.0,0.0,0.0,0.0,0.0,0.0,0.0,0.0,0.0,0.0,0.0,0.0,0.0,0.0,0.0,0.0,0.0,0.0,0.0,0.0,0.0,0.0,0.0,0.0,0.0,0.0,3.3124,3.287,3.2321,3.1157,3.0432,3.0432,2.9909,2.9592,2.9547,2.8706,0.0,0.0,0.0,0.0,0.0,0.0,0.0,0.0,0.0,0.0,0.0,0.0,0.0,0.0,0.0,0.0,0.0,0.0,0.0,0.0,0.0,0.0,0.0,0.0,0.0,0.0,0.0,0.0,0.0,0.0,0.0,0.0,0.0,0.0,0.0,0.0,0.0,0.0,0.0,0.0,0.0,0.0,0.0,0.0,0.0,0.0,0.0,0.0,0.0,0.0,0.0,0.0,0.0,0.0,0.0,0.0,0.0,0.0,0.0,0.0,0.0,0.0,0.0,0.0,0.0,0.0,0.0,0.0,0.0,0.0,0.0,0.0,0.0,0.0,0.0,0.0,0.0,0.0,0.0,0.0,0.0,0.0,0.0,0.0,0.0,0.0,0.0,0.0,0.0,0.0,0.0,0.0,0.0,0.0,0.0,0.0,0.0,0.0,0.0,0.0,0.0,0.0,3.2695,3.2492,3.191,3.1414,3.1122,3.1122,3.0913,3.064,3.0303,0.0,0.0,0.0,0.0,0.0,0.0,0.0,0.0,0.0,0.0,0.0,0.0,0.0,0.0,0.0,0.0,0.0,0.0,0.0,0.0,0.0,0.0,0.0,0.0,0.0,0.0,0.0,0.0,0.0,0.0,0.0,0.0,0.0,0.0,0.0,0.0,0.0,0.0,0.0,0.0,0.0,0.0,0.0,0.0,0.0,0.0,0.0,0.0,0.0,0.0,0.0,0.0,0.0,0.0,0.0,0.0,0.0,0.0,0.0,0.0,0.0,0.0,0.0,0.0,0.0,0.0,0.0,0.0,0.0,0.0,0.0,0.0,0.0,0.0,0.0,0.0,0.0,0.0,0.0,0.0,0.0,0.0,0.0,0.0,0.0,0.0,0.0,0.0,0.0,0.0,0.0,0.0,0.0,0.0,0.0,0.0,0.0,0.0,0.0,0.0,0.0,0.0,3.2492,3.2547,3.2437,3.1853,3.1611,3.1511,3.1511,3.1511,3.133,3.0994,0.0,0.0,0.0,0.0,0.0,0.0,0.0,0.0,0.0,0.0,0.0,0.0,0.0,0.0,0.0,0.0,0.0,0.0,0.0,0.0,0.0,0.0,0.0,0.0,0.0,0.0,0.0,0.0,0.0,0.0,0.0,0.0,0.0,0.0,0.0,0.0,0.0,0.0,0.0,0.0,0.0,0.0,0.0,0.0,0.0,0.0,0.0,0.0,0.0,0.0,0.0,0.0,0.0,0.0,0.0,0.0,0.0,0.0,0.0,0.0,0.0,0.0,0.0,0.0,0.0,0.0,0.0,0.0,0.0,0.0,0.0,0.0,0.0,0.0,0.0,0.0,0.0,0.0,0.0,0.0,0.0,0.0,0.0,0.0,0.0,0.0,0.0,0.0,0.0,0.0,0.0,0.0,0.0,0.0,0.0,0.0,0.0,0.0,0.0,0.0,0.0,0.0,3.252,3.2841,3.2986,3.2437,3.1853,3.1511,3.1511,3.1511,3.1511,0.0,0.0,0.0,0.0,0.0,0.0,0.0,0.0,0.0,0.0,0.0,0.0,0.0,0.0,0.0,0.0,0.0,0.0,0.0,0.0,0.0,0.0,0.0,0.0,0.0,0.0,0.0,0.0,0.0,0.0,0.0,0.0,0.0,0.0,0.0,0.0,0.0,0.0,0.0,0.0,0.0,0.0,0.0,0.0,0.0,0.0,0.0,0.0,0.0,0.0,0.0,0.0,0.0,0.0,0.0,0.0,0.0,0.0,0.0,0.0,0.0,0.0,0.0,0.0,0.0,0.0,0.0,0.0,0.0,0.0,0.0,0.0,0.0,0.0,0.0,0.0,0.0,0.0,0.0,0.0,0.0,0.0,0.0,0.0,0.0,0.0,0.0,0.0,0.0,0.0,0.0,0.0,0.0,0.0,0.0,0.0,0.0,0.0,0.0,0.0,0.0,0.0,0.0,3.1724,3.2018,3.2114,3.1667,3.1452,3.1409,3.1511,3.1511,3.1511,3.1511,0.0,0.0,0.0,0.0,0.0,0.0,0.0,0.0,0.0,0.0,0.0,0.0,0.0,0.0,0.0,0.0,0.0,0.0,0.0,0.0,0.0,0.0,0.0,0.0,0.0,0.0,0.0,0.0,0.0,0.0,0.0,0.0,0.0,0.0,0.0,0.0,0.0,0.0,0.0,0.0,0.0,0.0,0.0,0.0,0.0,0.0,0.0,0.0,0.0,0.0,0.0,0.0,0.0,0.0,0.0,0.0,0.0,0.0,0.0,0.0,0.0,0.0,0.0,0.0,0.0,0.0,0.0,0.0,0.0,0.0,0.0,0.0,0.0,0.0,0.0,0.0,0.0,0.0,0.0,0.0,0.0,0.0,0.0,0.0,0.0,0.0,0.0,0.0,0.0,0.0,0.0,0.0,0.0,0.0,0.0,0.0,0.0,0.0,0.0,0.0,0.0,0.0,3.1365,3.1665,3.1736,3.1336,3.1307,3.1351,3.1511,3.1511,3.1511,3.1511,0.0,0.0,0.0,0.0,0.0,0.0,0.0,0.0,0.0,0.0,0.0,0.0,0.0,0.0,0.0,0.0,0.0,0.0,0.0,0.0,0.0,0.0,0.0,0.0,0.0,0.0,0.0,0.0,0.0,0.0,0.0,0.0,0.0,0.0,0.0,0.0,0.0,0.0,0.0,0.0,0.0,0.0,0.0,0.0,0.0,0.0,0.0,0.0,0.0,0.0,0.0,0.0,0.0,0.0,0.0,0.0,0.0,0.0,0.0,0.0,0.0,0.0,0.0,0.0,0.0,0.0,0.0,0.0,0.0,0.0,0.0,0.0,0.0,0.0,0.0,0.0,0.0,0.0,0.0,0.0,0.0,0.0,0.0,0.0,0.0,0.0,0.0,0.0,0.0,0.0,0.0,0.0,0.0,0.0,0.0,0.0,0.0,0.0,0.0,0.0,0.0,0.0,3.1336,3.158,3.165,3.1307,3.1292,3.1351,3.1511,3.1511,3.1511,3.1511,0.0,0.0,0.0,0.0,0.0,0.0,0.0,0.0,0.0,0.0,0.0,0.0,0.0,0.0,0.0,0.0,0.0,0.0,0.0,0.0,0.0,0.0,0.0,0.0,0.0,0.0,0.0,0.0,0.0,0.0,0.0,0.0,0.0,0.0,0.0,0.0,0.0,0.0,0.0,0.0,0.0,0.0,0.0,0.0,0.0,0.0,0.0,0.0,0.0,0.0,0.0,0.0,0.0,0.0,0.0,0.0,0.0,0.0,0.0,0.0,-2.0099,0.0,0.0,0.0,0.0,0.0,0.0,0.0,0.0,0.0,0.0,0.0,0.0,0.0,0.0,0.0,0.0,0.0,0.0,0.0,0.0,0.0,0.0,0.0,0.0,0.0,0.0,0.0,0.0,0.0,0.0,0.0,0.0,0.0,0.0,0.0,0.0,0.0,0.0,0.0,0.0,0.0,3.1161,3.0984,3.0955,3.1132,3.1132,3.1249,3.1467,3.1511,3.1511,3.1511,3.0748,0.0,0.0,0.0,0.0,0.0,0.0,0.0,0.0,0.0,0.0,0.0,0.0,0.0,0.0,0.0,0.0,0.0,0.0,0.0,0.0,0.0,0.0,0.0,0.0,0.0,0.0,0.0,0.0,0.0,0.0,0.0,0.0,0.0,0.0,0.0,0.0,0.0,0.0,0.0,0.0,0.0,0.0,0.0,0.0,0.0,0.0,0.0,0.0,0.0,0.0,0.0,0.0,0.0,0.0,0.0,0.0,0.0,0.0,0.0,0.0,-2.13,0.0,0.0,0.0,0.0,0.0,0.0,0.0,0.0,0.0,0.0,0.0,0.0,0.0,0.0,0.0,0.0,0.0,0.0,0.0,0.0,0.0,0.0,0.0,0.0,0.0,0.0,0.0,0.0,0.0,0.0,0.0,0.0,0.0,0.0,0.0,0.0,0.0,0.0,0.0,0.0,3.119,3.0969,3.0925,3.1176,3.119,3.1409,3.1881,3.1668,3.1611,3.191,3.1028,0.0,0.0,0.0,0.0,0.0,0.0,0.0,0.0,0.0,0.0,0.0,0.0,0.0,0.0,0.0,0.0,0.0,0.0,0.0,0.0,0.0,0.0,0.0,0.0,0.0,0.0,0.0,0.0,0.0,0.0,0.0,0.0,0.0,0.0,0.0,0.0,0.0,0.0,0.0,0.0,0.0,0.0,0.0,0.0,0.0,0.0,0.0,0.0,0.0,0.0,0.0,0.0,0.0,0.3335,-0.024,-0.1856,-1.025,-1.5539,-1.8156,-1.8883,-2.0394,-2.2365,-2.2138,0.0,0.0,0.0,0.0,0.0,0.0,0.0,0.0,0.0,0.0,0.0,0.0,0.0,0.0,0.0,0.0,0.0,0.0,0.0,0.0,0.0,0.0,0.0,0.0,3.2895,3.3156,0.0,0.0,0.0,0.0,0.0,0.0,0.0,0.0,0.0,0.0,0.0,0.0,3.1307,3.119,3.119,3.1423,3.1452,3.1752,3.2492,3.2092,3.1951,3.2355,3.1421,3.0778,0.0,0.0,0.0,0.0,0.0,0.0,0.0,0.0,0.0,0.0,0.0,0.0,0.0,0.0,0.0,0.0,0.0,0.0,0.0,0.0,0.0,0.0,0.0,0.0,0.0,0.0,0.0,0.0,0.0,0.0,0.0,0.0,2.1882,2.1212,0.0,0.0,0.0,0.0,0.0,0.0,0.0,0.0,0.0,0.0,0.0,0.0,0.0,0.6851,0.821,1.6267,1.6565,0.9334,1.6379,1.5808,0.8521,0.644,0.0295,-0.8758,-0.9576,0.0,-2.244,-2.2927,0.0,0.0,0.0,0.0,0.0,0.0,0.0,0.0,0.0,0.0,0.0,0.0,0.0,0.0,0.0,0.0,0.0,0.0,0.0,0.0,0.0,0.0,3.3198,3.3119,3.3145,3.3066,0.0,3.2035,3.1582,3.1511,3.1511,0.0,0.0,0.0,0.0,0.0,0.0,0.0,3.1307,3.119,3.1322,3.1921,3.2005,3.2296,3.3039,3.3013,3.2815,3.241,3.2244,3.1908,3.1409,3.1866,0.0,0.0,0.0,0.0,0.0,0.0,0.0,0.0,0.0,0.0,0.0,0.0,0.0,0.0,0.0,0.0,0.0,0.0,0.0,0.0,0.0,0.0,0.0,0.0,0.0,0.0,0.0,0.0,0.0,3.2055,2.9735,2.9795,2.2421,1.7356,0.0,0.0,0.0,0.0,0.0,0.0,0.0,0.0,0.0,1.561,1.5797,1.8387,2.3876,2.7972,2.8151,2.441,2.3727,2.1293,1.7173,1.1578,0.3084,-0.729,-0.8049,-1.4085,-2.3409,-2.3446,-2.3335,-2.3224,0.0,0.0,0.0,0.0,-0.8377,-0.271,0.725,1.3395,0.0,2.3313,0.0,0.0,0.0,0.0,0.0,0.0,0.0,0.0,0.0,0.0,3.2734,3.2734,3.2734,3.2586,3.2007,3.1625,3.138,0.0,3.138,3.1351,3.1278,0.0,0.0,0.0,0.0,3.2379,3.2379,3.2324,3.2391,3.2691,3.2718,3.2986,3.3646,3.3381,3.3093,3.2868,3.2841,3.2586,3.2035,3.2559,3.2734,0.0,0.0,0.0,0.0,0.0,0.0,0.0,0.0,0.0,0.0,0.0,0.0,0.0,0.0,0.0,0.0,0.0,0.0,0.0,0.0,0.0,0.0,0.0,0.0,0.0,0.0,0.0,0.0,3.4512,3.4761,3.4864,2.9329,2.5563,0.0,0.0,0.0,0.0,0.0,0.0,1.1885,1.2181,1.6331,2.5074,2.5178,2.8559,3.5797,3.5681,3.5706,3.5928,2.947,2.6298,2.5918,1.9051,0.9998,-0.022,-0.0714,-0.6823,-1.6686,-1.8937,-2.0012,-1.9951,-1.7455,-1.2543,-0.6653,-0.4464,0.0533,0.7671,1.7584,2.102,2.2201,2.9577,0.0,3.0866,3.0866,0.0,0.0,0.0,0.0,3.1611,3.2035,3.2148,3.212,3.212,3.2092,3.1923,3.1496,3.1336,3.1292,0.0,3.1509,3.1495,3.1538,0.0,0.0,0.0,0.0,3.3172,3.3119,3.3093,3.3119,3.3214,3.323,3.3465,3.405,3.3748,3.3459,3.3345,3.3397,3.3188,3.2614,3.3135,3.3355,3.3182,0.0,0.0,0.0,0.0,0.0,0.0,0.0,0.0,0.0,0.0,0.0,0.0,0.0,0.0,0.0,0.0,0.0,0.0,0.0,0.0,0.0,0.0,0.0,0.0,0.0,0.0,0.0,0.0,0.0,3.3082,3.3505,0.0,0.0,0.0,0.0,2.2062,2.1482,2.1576,2.1763,2.1909,2.5988,3.4632,3.4358,3.4333,3.4955,3.4271,3.4333,3.5156,3.4715,3.4874,3.5522,3.5112,2.9309,1.9571,1.9687,1.388,0.3658,-0.5899,-0.9649,-0.8583,-0.0308,0.3301,0.4881,1.2991,1.6271,1.8053,2.801,3.136,3.1308,3.1694,3.1219,3.0524,3.0524,3.0524,0.0,0.0,3.0999,3.1511,3.1539,3.1467,3.1365,3.1365,3.1278,3.1176,3.1146,3.1102,3.1278,0.0,3.2007,3.2185,3.2625,0.0,3.313,3.313,3.3198,3.3119,3.2841,3.2815,3.2938,3.3266,3.3293,3.3513,3.405,3.4325,3.4226,3.3694,3.3924,3.379,3.3198,3.3739,3.379,3.3224,3.439,0.0,0.0,0.0,0.0,0.0,0.0,0.0,0.0,0.0,0.0,0.0,0.0,0.0,0.0,0.0,0.0,0.0,0.0,0.0,0.0,0.0,0.0,0.0,0.0,0.0,0.0,0.0,0.0,3.4366,3.4704,0.0,3.5075,3.4927,3.3591,3.061,3.0269,3.0258,3.0361,3.0632,3.2023,3.4689,3.4558,3.4312,3.4061,3.4265,3.4567,3.4983,3.5463,3.5822,3.6062,3.6105,3.0567,2.0937,2.1,1.5201,0.5989,0.8981,0.6401,0.092,0.3987,0.8792,1.4329,1.7374,2.2113,2.7527,3.0893,3.2038,3.1968,3.1683,3.1409,3.1161,3.1161,3.1161,3.1161,3.1161,3.1248,3.138,3.138,3.1263,3.1161,3.1161,3.1132,3.1132,3.1205,3.1161,3.1278,3.1883,3.1697,3.161,3.2114,3.2293,3.2579,3.3235,3.3339,3.3407,3.361,3.3636,3.3739,3.405,3.4075,3.4226,3.457,3.4691,3.4521,3.4,3.4374,3.4358,3.3815,3.4308,3.4505,3.4301,3.521,3.5829,0.0,0.0,0.0,0.0,0.0,0.0,0.0,0.0,0.0,0.0,0.0,0.0,0.0,0.0,0.0,0.0,0.0,0.0,0.0,0.0,0.0,0.0,0.0,0.0,0.0,3.3707,3.4301,3.4439,3.4776,3.5144,3.5504,3.5214,3.4998,3.4998,3.489,3.4787,3.478,3.5065,3.5034,3.4566,3.4387,3.4165,3.3842,3.3867,3.4206,3.484,3.5079,3.5454,3.5932,3.5975,3.2327,2.5938,2.5957,2.215,1.6369,2.3139,2.1908,1.5744,1.5639,1.9197,2.4367,2.4177,2.7821,3.2846,3.2563,3.2453,3.237,3.216,3.1951,3.1853,3.202,3.1824,3.1524,3.1754,3.1567,3.1307,3.1307,3.1146,3.0984,3.0984,3.0984,3.1014,3.1043,3.1073,3.1249,3.1754,3.1596,3.1581,3.2256,3.2391,3.2648,3.3381,3.3578,3.3723,3.3949,3.405,3.4176,3.4349,3.4374,3.4448,3.4618,3.4715,3.4667,3.4431,3.4818,3.4961,3.4714,3.4937,3.5188,3.5421,3.6445,3.7136,3.7543,0.0,0.0,0.0,0.0,0.0,0.0,0.0,0.0,0.0,0.0,0.0,0.0,0.0,0.0,0.0,0.0,0.0,0.0,0.0,0.0,0.0,0.0,0.0,3.2695,3.3377,3.3729,3.3135,3.402,3.4633,3.4624,3.4878,3.5035,3.5021,3.5021,3.4991,3.493,3.5024,3.5062,3.5068,3.4522,3.4229,3.4251,3.2975,3.3134,3.4721,3.4002,3.4423,3.5817,3.5932,3.591,3.5795,3.5927,3.5927,3.5795,3.5795,3.5678,3.5492,3.5131,3.4927,3.4714,3.4134,3.3899,3.3848,3.3517,3.3319,3.3182,3.3182,3.2841,3.252,3.3039,3.2434,3.1653,3.2259,3.1923,3.1336,3.1336,3.1073,3.0851,3.0851,3.0851,3.0821,3.0687,3.091,3.1205,3.1495,3.1736,3.2213,3.3145,3.3335,3.3433,3.3668,3.3899,0.0,3.372,3.3949,3.4126,3.4126,3.4126,3.4126,3.4151,3.4374,3.4675,3.4998,3.527,3.5566,3.5885,3.5588,3.5778,3.6542,3.8007,3.9317,4.04,0.0,0.0,0.0,0.0,0.0,0.0,0.0,0.0,0.0,0.0,0.0,0.0,0.0,0.0,0.0,0.0,0.0,0.0,0.0,0.0,0.0,3.3975,3.3975,3.3968,3.4226,3.4456,3.456,3.5207,3.5611,3.5633,3.5677,3.5739,3.5739,3.5683,3.5644,3.5638,3.5147,3.4665,3.4244,3.3292,3.2865,3.3084,3.3182,3.3871,3.506,3.5164,3.5496,3.6023,3.5644,3.5594,3.5795,3.5571,3.5594,3.5795,3.5795,3.5768,3.5684,3.5475,3.5048,3.4554,3.4399,3.4009,3.3517,3.3439,3.3319,3.3182,3.3182,3.3093,3.3013,3.3172,3.2986,3.2772,3.2933,3.2745,3.2489,3.2284,3.2061,3.1905,3.1905,3.1905,3.1905,3.2033,3.2117,3.2188,3.2176,3.2132,3.237,3.316,3.2861,3.2792,3.3591,3.3481,0.0,3.3668,3.4143,3.4423,3.4399,3.461,3.4849,3.5015,3.5125,3.527,3.5566,3.5705,3.5793,3.5832,3.5744,3.6288,3.7577,3.8088,3.9058,0.0,0.0,0.0,0.0,0.0,0.0,0.0,0.0,0.0,0.0,0.0,0.0,0.0,0.0,0.0,0.0,0.0,0.0,0.0,0.0,0.0,0.0,3.4366,3.4529,3.4961,3.4913,3.4968,3.5351,3.5717,3.5932,3.5997,3.6041,3.6062,3.6045,3.6011,3.5814,3.5459,3.5339,3.4951,3.4316,3.3983,3.3915,3.4055,3.4192,3.4785,3.5792,3.562,3.5818,3.6305,3.5893,3.5822,0.0,3.58,3.5822,3.6019,3.6019,3.5975,0.0,0.0,0.0,0.0,0.0,3.4537,3.421,3.4077,3.4061,3.4103,3.3944,3.3758,3.362,3.3834,3.3588,3.3251,3.3501,3.3214,3.2815,3.2761,3.2528,3.2336,3.2431,3.254,3.261,3.2637,3.2652,3.2668,3.2641,3.2578,0.0,3.3549,3.306,3.2765,3.3435,3.362,3.3742,3.3977,3.4585,3.4988,3.5038,3.5224,3.5407,3.5543,3.5661,0.0,0.0,0.0,3.6467,3.6422,3.6714,0.0,0.0,0.0,3.9872,4.1024,0.0,0.0,0.0,4.0546,4.0473,0.0,0.0,0.0,0.0,0.0,0.0,0.0,0.0,0.0,0.0,0.0,0.0,0.0,0.0,0.0,0.0,3.4697,3.4864,3.5756,3.5487,3.5333,3.572,3.5876,3.5954,3.6019,3.6079,3.6092,3.5955,3.5998,3.5685,3.4924,0.0,0.0,0.0,0.0,3.5933,3.604,3.5487,3.5668,3.6513,3.563,3.5596,3.6333,3.6087,3.6021,3.6042,3.6021,3.6077,3.6246,3.6205,3.6176,3.6182,3.5915,3.58,3.5756,3.5327,3.5287,3.5407,3.5118,0.0,0.0,3.5102,3.4699,3.4407,3.4883,3.4309,3.3598,3.4143,3.3646,3.3013,3.3209,3.2955,3.2725,3.295,3.3151,3.3219,3.3056,3.3061,3.3119,3.3224,3.3182,3.3382,3.4202,3.3675,3.3214,3.3471,3.4177,3.4633,3.46,3.5193,3.572,3.5902,0.0,0.0,3.5968,3.619,3.6464,3.6786,3.7154,3.736,3.736,3.798,3.8762,3.971,4.0402,4.1141,4.1984,4.2257,4.2195,4.1774,4.0909,4.0617,0.0,0.0,0.0,0.0,0.0,0.0,0.0,0.0,0.0,0.0,0.0,0.0,0.0,0.0,0.0,3.5402,3.5492,3.5739,3.6364,3.6088,3.5937,3.6228,3.6519,3.6577,3.628,3.5876,3.5509,3.5172,3.5431,3.5543,3.5367,3.5662,3.5758,3.5619,3.4936,3.4909,3.561,3.5451,3.5551,3.5962,0.0,0.0,3.4814,3.4341,3.4294,3.4587,3.4254,3.4826,3.595,3.5615,3.6023,3.6766,3.6143,3.5881,3.5881,3.5776,3.5776,3.5798,3.5732,3.5754,3.5798,3.5732,3.5644,3.556,3.5688,3.5509,0.0,3.5436,3.5328,3.5151,3.4971,3.4915,3.4882,3.4951,3.4991,3.5015,3.4951,3.4915,3.483,3.4648,3.4512,3.4616,3.5143,3.4495,3.4077,3.4655,3.4941,3.522,3.563,3.6142,3.649,3.6614,3.6849,3.7022,3.7022,3.706,3.721,3.7487,3.7577,3.7632,3.7632,3.7811,3.8545,3.9921,4.0175,4.102,4.2472,4.2416,4.2338,4.2257,4.1973,4.1789,0.0,0.0,0.0,0.0,0.0,0.0,0.0,0.0,0.0,0.0,0.0,3.4653,3.5157,0.0,3.6075,3.6028,3.6114,3.6322,3.66,3.6512,3.6447,3.6474,3.658,3.656,3.6367,3.6269,3.6162,3.606,3.6338,3.6296,3.5832,3.6354,3.6482,3.6111,3.5558,3.5541,3.6131,3.5723,3.5634,3.5843,3.542,3.519,3.5131,3.4602,3.4546,3.4889,3.4675,3.5031,3.5738,3.5528,3.6007,3.6863,3.6497,3.6402,3.6438,3.6438,3.6452,3.6422,3.626,3.619,3.6178,3.5972,3.5907,3.5907,3.5907,3.5864,3.5859,3.5859,3.5754,3.5644,3.5644,3.5565,3.5526,3.5676,3.5856,3.5989,3.5964,3.5955,3.59,3.5727,3.5579,3.5633,3.617,3.5856,3.5633,3.5831,3.6094,3.6391,3.6616,3.6985,3.7248,3.7248,3.7396,3.7505,3.7505,3.7614,3.7843,3.8188,3.8204,3.8269,3.841,3.83,3.9029,4.0731,4.0685,4.1343,4.2747,4.3051,4.3087,4.2848,4.3157,4.296,0.0,0.0,0.0,0.0,0.0,0.0,0.0,3.4061,3.4423,3.4851,3.5244,3.5659,3.6165,3.6522,3.6686,3.656,3.6638,3.6741,3.6825,3.69,3.6915,3.6796,3.6701,3.662,3.6539,3.67,3.6844,3.692,3.7145,3.6933,3.6183,3.6916,3.7077,3.6486,3.6273,3.6286,3.6568,3.5919,3.5602,3.5612,3.52,3.5127,3.5375,3.495,3.4902,3.516,3.5444,3.5514,3.5452,3.5721,3.6219,3.6799,3.6799,3.7011,3.7289,3.7237,3.7214,3.7173,3.6907,3.6823,3.6756,3.644,3.6302,3.6281,3.6319,3.6298,3.626,3.6281,3.6138,3.6015,3.6239,3.6138,3.6057,3.6239,3.6531,3.6733,3.6689,3.6698,3.6726,3.6685,3.6558,3.6659,3.7255,3.7381,3.7292,3.6904,3.7236,3.7524,3.7542,3.7824,3.803,3.8048,3.8048,3.8048,3.8048,3.8247,3.8504,3.8837,3.8851,3.895,3.9183,3.8979,3.9708,4.1537,4.1373,4.1877,4.3177,4.3791,4.3896,4.3578,4.4171,4.3918,3.406,3.423,3.4655,3.4894,3.4828,3.4792,0.0,3.513,3.5197,3.5671,3.6041,3.6395,3.6741,3.6841,3.69,3.7013,3.7075,3.7171,3.7302,3.7377,3.7414,3.7414,3.7487,3.7412,3.7052,3.668,3.6327,3.5975,3.6254,3.6381,3.6274,3.6592,3.6745,3.6672,3.602,3.5708,3.5722,3.5632,3.5284,3.4661,3.4615,3.4217,3.3574,3.353,3.3515,3.3625,3.482,3.5164,3.4981,3.6179,3.6721,3.6814,3.6814,3.7471,3.8387,3.8079,3.7982,3.7965,3.7929,3.7913,3.7913,3.7879,3.7773,3.7702,3.7826,3.772,3.7596,3.7649,3.7667,3.7649,3.7667,3.7737,3.779,3.7702,3.7702,3.772,3.765,3.7614,3.7578,3.7632,3.7716,3.7964,3.8486,3.8762,3.8596,3.7873,3.7871,3.8067,3.8407,3.8645,3.892,3.9255,3.93,3.93,3.93,3.9326,3.937,3.9414,3.9414,3.9408,3.9446,3.9439,4.0176,4.1815,4.1825,4.2604,4.4223,4.4332,4.4387,4.4472,4.4537,4.4354,3.6232,3.6098,3.6146,3.6201,3.6198,3.6177,3.6118,3.5857,3.5865,3.6521,3.6641,3.6816,3.7433,3.7702,3.779,3.7649,3.7578,3.7596,3.7739,3.7614,3.7505,3.7505,3.7756,3.7879,3.7738,3.7775,3.7677,3.7391,3.7783,3.7614,3.6643,3.703,3.7051,3.6545,3.5659,3.5355,3.5713,3.5264,3.4779,3.432,3.4404,3.4309,3.4043,3.3975,3.4043,3.4253,3.4813,3.5004,3.4953,3.5522,3.6046,3.6519,3.6519,3.7109,3.8004,3.8331,3.8566,3.8742,3.8836,3.8658,3.8389,3.8389,3.8386,3.8383,3.8432,3.8414,3.838,3.841,3.8426,3.8426,3.8426,3.8474,3.8497,3.8481,3.8632,3.8771,3.8755,3.8859,3.8981,3.9008,3.9114,3.9251,3.9464,3.9609,3.9558,3.9175,3.9082,3.9085,3.9165,3.9326,3.949,3.9667,3.9678,3.9678,3.9678,3.9678,3.9678,3.9678,3.9678,3.9743,3.9887,3.9754,4.052,4.233,4.2208,4.2953,4.4631,4.4794,4.4897,4.4955,4.5148,4.5105,3.794,3.7698,3.7611,3.7524,3.7578,3.7577,3.7309,3.6863,3.6724,3.7453,3.7363,3.7399,3.8111,3.8442,3.8554,3.8305,3.8227,3.8231,3.8342,3.8176,3.8043,3.8043,3.8337,3.8576,3.863,3.8737,3.8743,3.8618,3.879,3.8368,3.7182,3.7156,3.6887,3.6247,3.5373,3.5112,3.5555,3.4963,3.4591,3.4416,3.4505,3.4586,3.4682,3.46,3.4709,3.4958,3.5009,3.5066,3.5112,3.5166,3.5573,3.6134,3.6128,3.6646,3.7423,3.8046,3.8619,3.9093,3.9205,3.9126,3.8986,3.8986,3.9019,3.9064,3.9077,3.9107,3.9129,3.9147,3.9164,3.9161,3.9168,3.9157,3.9173,3.9196,3.9387,3.9554,3.9537,3.9729,3.9909,3.9928,4.0008,4.0082,4.0123,4.0226,4.0286,4.0229,4.0145,4.0023,3.9797,3.9919,4.0017,4.0049,4.0057,4.0057,4.0057,4.0057,4.0057,4.0057,4.0057,4.0134,4.0333,4.014,4.0807,4.2462,4.2498,4.3243,4.4687,4.5121,4.537,4.5412,4.5662,4.5717,3.8625,3.8706,3.8926,3.8855,3.8798,3.8775,3.8809,3.8315,3.7985,3.8469,3.8334,3.8293,3.8785,3.8877,3.8902,3.8952,3.9087,3.9181,3.9262,3.9358,3.9446,3.9446,3.9568,3.9682,3.9739,3.9178,3.8822,3.8877,3.8298,3.791,3.7878,3.6592,3.5859,3.5821,3.5219,3.4917,3.4926,3.4907,3.4923,3.4964,3.4904,3.4897,3.4884,3.495,3.5021,3.5096,3.5307,3.5387,3.5391,3.5593,3.5693,3.5721,3.5729,3.6248,3.7027,3.7116,3.7841,3.8803,3.8813,3.9318,3.9957,3.9957,3.9957,3.9964,4.0046,4.0007,3.9981,4.0032,4.0069,4.0062,4.0056,4.0069,4.0044,3.9985,3.9978,3.9949,3.9904,3.9881,3.991,3.9971,4.0172,4.0337,4.0457,4.065,4.0777,4.0774,4.0828,4.0706,4.0233,4.0416,4.0601,4.0675,4.0664,4.0664,4.0664,4.0664,4.0664,4.0664,4.0664,4.0688,4.0688,4.0616,4.0998,4.1902,4.2671,4.3524,4.4403,4.5259,4.5747,4.5872,4.5963,4.6011,3.9432,3.9474,3.9532,3.9232,3.9252,3.9308,3.9192,3.8864,3.8681,3.9112,3.898,3.8934,3.9351,3.9324,3.9272,3.9383,3.9292,3.9208,3.9288,3.9414,3.9514,3.9514,3.9623,3.9728,3.9792,3.9632,3.9274,3.8674,3.8626,3.8026,3.6647,3.6378,3.5997,3.5425,3.5122,3.5029,3.5159,3.5159,3.5109,3.5007,3.5156,3.5297,3.5438,3.5446,3.5488,3.5507,3.5571,3.5593,3.5606,3.571,3.5788,3.584,3.5875,3.6042,3.6272,3.6249,3.6816,3.7693,3.8268,3.8966,3.9594,3.9594,4.0015,4.0537,4.0505,4.0519,4.0535,4.0507,4.051,4.0474,4.039,4.0366,4.0385,4.0498,4.0523,4.056,4.0669,4.0652,4.0648,4.0727,4.0788,4.0855,4.0888,4.0955,4.096,4.0873,4.0806,4.0765,4.0727,4.0774,4.0802,4.0836,4.0822,4.0808,4.0701,4.0702,4.0702,4.0702,4.0772,4.0822,4.0822,4.0845,4.1279,4.2149,4.299,4.3856,4.4725,4.5615,4.6047,4.6103,4.6125,4.6128,4.0138,4.0126,4.0104,3.9801,3.9839,3.9888,3.9789,3.9558,3.9463,3.9748,3.9596,3.9472,3.978,3.9721,3.9675,3.9788,3.9683,3.9622,3.9708,3.981,3.9861,3.9882,3.9972,4.0031,4.008,4.0091,3.97,3.8674,3.8555,3.7834,3.6206,3.6128,3.5885,3.5321,3.5275,3.5302,3.545,3.545,3.5374,3.5245,3.5451,3.5627,3.5768,3.5726,3.5707,3.5737,3.5701,3.5701,3.5697,3.5753,3.5798,3.5827,3.5878,3.5828,3.5728,3.5661,3.5946,3.6456,3.7461,3.8316,3.8974,3.8974,3.9593,4.0328,4.0275,4.0519,4.0799,4.074,4.0737,4.071,4.0628,4.0543,4.0559,4.075,4.0751,4.0756,4.0951,4.0954,4.0935,4.0953,4.0972,4.0989,4.0987,4.0986,4.0963,4.0873,4.0799,4.0778,4.0918,4.0897,4.0859,4.0855,4.087,4.082,4.073,4.0747,4.0747,4.0747,4.0816,4.087,4.087,4.0913,4.1191,4.1758,4.2909,4.3767,4.4333,4.5527,4.6094,4.6094,4.6113,4.6113,4.0684,4.0674,4.0685,4.0546,4.0531,4.0528,4.0575,4.0408,4.0255,4.0385,4.0165,3.9963,4.011,4.0072,4.0081,4.0195,4.0266,4.0367,4.0496,4.0511,4.0526,4.0588,4.0598,4.0615,4.0615,4.0515,3.9967,3.8852,0.0,3.737,3.6508,3.5854,3.5508,3.5525,3.5643,3.5703,3.5708,3.5708,3.5702,3.5709,3.5768,3.5837,3.5898,3.5761,3.5731,3.5795,3.573,3.5684,3.5683,3.5686,3.5682,3.565,3.5679,3.5553,3.5371,3.5365,3.5226,3.5213,3.6364,3.7355,3.8104,3.8104,3.8695,3.9416,3.9414,4.0004,4.0701,4.0695,4.0728,4.0756,4.0752,4.0618,4.05,4.0703,4.0604,4.0529,4.0727,4.076,4.0744,4.0685,4.0722,4.0769,4.0753,4.0752,4.0752,4.0767,4.0767,4.0766,4.0799,4.0789,4.08,4.0791,4.0781,4.0801,4.0796,4.0777,4.0777,4.0777,4.0801,4.0781,4.0781,4.0809,4.0789,4.0789,4.2449,4.3308,4.3308,4.5055,4.591,4.5907,4.5967,4.6024,4.0976,4.0947,4.0878,4.0698,4.0722,4.0757,4.0577,4.0507,4.0514,4.0542,4.0488,4.0423,4.0466,4.0423,4.0392,4.0488,4.046,4.047,4.0554,4.0574,4.0581,4.0588,4.064,4.0674,4.0662,4.0113,3.9391,0.0,3.821,3.748,3.6133,3.5838,3.5745,3.5804,3.5787,3.5794,3.5841,3.5853,3.5851,3.5851,3.5868,3.5859,3.5822,3.5793,3.5755,3.5725,3.5704,3.5596,3.5412,3.5466,3.5359,3.5175,3.5226,3.5123,3.4947,3.4843,3.4672,3.4537,3.4791,3.5751,3.6864,3.6864,3.7459,3.8164,3.816,3.8729,3.9367,3.9262,3.9695,4.0172,4.0089,4.0015,4.0024,4.0172,4.0161,4.0156,4.0254,4.0275,4.0261,4.0255,4.0262,4.0281,4.028,4.0286,4.0263,4.0218,4.0194,4.0347,4.0757,4.0807,4.0791,4.074,4.0723,4.0687,4.0582,4.0575,4.0575,4.0575,4.0674,4.0723,4.0723,4.0777,4.0807,4.0807,4.2501,4.3378,4.3374,4.5125,4.6,4.6041,4.591,4.5867,4.1125,4.109,4.102,4.0897,4.0914,4.0899,4.0742,4.075,4.077,4.0791,4.0738,4.0692,4.0688,4.0668,4.0635,4.0686,4.0685,4.0698,4.0735,4.0729,4.0732,4.073,4.0738,4.0744,4.074,3.9987,3.9162,3.8354,3.7912,3.7148,3.5917,3.5858,3.5853,3.5906,3.586,3.586,3.5906,3.5929,3.5907,3.5858,3.5894,3.5845,3.5755,3.5706,3.5669,3.5648,0.0,3.5365,3.5235,3.5063,3.4912,3.4774,3.4715,3.4576,3.4402,3.4317,3.4162,3.3985,3.3951,3.4472,3.5191,3.537,3.6004,3.668,3.67,3.7271,3.7928,3.7847,3.8431,3.9064,3.8988,3.913,3.9369,3.9558,3.9517,3.9467,3.9618,3.9668,3.9687,3.9776,3.9881,3.9967,3.9975,3.9965,3.9919,3.9761,3.9749,3.9813,4.0032,4.0231,4.0339,4.031,4.0312,4.0279,4.0193,4.0184,4.0184,4.0184,4.0262,4.0312,4.0312,4.035,4.0357,4.0357,4.2044,4.2942,4.3002,4.472,4.5633,4.5743,4.5636,4.5609,4.1191,4.1168,4.1116,4.1102,4.1052,4.1017,4.1002,4.1007,4.0998,4.1006,4.091,4.082,4.0826,4.0823,4.0825,4.0829,4.0882,4.0922,4.0906,4.0906,4.0901,4.0915,4.0869,4.0839,4.0833,3.9937,3.9087,3.8384,3.7419,3.655,3.5861,3.5863,3.5899,3.589,3.5901,3.5905,3.5901,3.5951,3.5917,3.5804,3.5864,3.5811,3.5684,3.5544,3.55,3.5527,3.5216,0.0,3.5062,3.4639,3.4454,3.4378,3.419,3.3994,3.3821,3.3821,3.3639,3.343,3.343,3.3383,3.3433,3.3944,3.4584,3.5155,3.5155,3.5757,3.6453,3.6453,3.7038,3.7666,3.7778,3.8155,3.8592,3.8933,3.8832,3.8718,3.8951,3.9019,3.9072,3.9221,3.9457,3.9609,3.9611,3.9622,3.9545,3.9302,3.9277,3.9195,3.9032,3.9425,3.9712,3.9712,3.9712,3.9712,3.9712,3.9712,3.9712,3.9712,3.9712,3.9712,3.9712,3.9712,3.9724,3.9724,4.1358,4.231,4.2485,4.4159,4.5096,4.5312,4.5292,4.5331,4.1191,4.1191,4.1171,4.1113,4.1094,4.1074,4.1071,4.1037,4.1007,4.1003,4.0933,4.0902,4.0963,4.0976,4.0971,4.0977,4.1018,4.1056,4.0986,4.0983,4.0989,4.0981,4.0967,4.0972,4.0975,3.9578,3.8628,3.8487,3.7039,3.6106,3.5963,3.5919,3.5901,3.589,3.5898,3.5934,3.5976,3.5889,3.5856,3.5882,3.5846,3.576,3.5604,3.5425,3.5318,3.5262,3.5086,0.0,3.4438,3.4434,3.4195,3.3837,3.3743,3.355,3.3335,3.3335,3.2986,3.2538,3.2538,3.23,3.2213,3.3339,3.3808,3.3918,3.3918,3.4481,3.5137,3.5137,3.5705,3.6476,3.7139,3.7387,3.7631,3.8355,3.8489,3.8457,3.8502,3.8517,3.8533,3.8579,3.8609,3.8643,3.864,3.864,3.8624,3.8579,3.8579,3.8563,3.8517,3.8934,3.9208,3.9208,3.9208,3.9208,3.9208,3.9208,3.9208,3.9208,3.9208,3.9208,3.9208,3.9208,3.9252,3.9302,4.0953,4.2008,4.2422,4.4034,4.5017,4.539,4.5269,4.5216,4.1191,4.1191,4.1191,4.1152,4.1131,4.1091,4.1093,4.1073,4.1039,4.1009,4.0971,4.0949,4.0948,4.0983,4.1009,4.1005,4.1065,4.1081,4.1051,4.1054,4.1046,4.0994,4.1008,4.1005,4.1,3.9479,3.85,3.8491,3.691,3.5957,3.5995,3.5976,3.5957,3.5957,3.5922,3.5928,3.5958,3.5853,3.5807,3.5794,3.5761,3.5655,3.5496,3.5391,3.522,3.498,3.4813,0.0,3.4176,3.3968,3.3743,3.352,3.3331,3.3021,3.2734,3.28,3.2521,3.2109,3.2127,3.2003,3.1913,3.2519,3.2666,3.2599,3.2599,3.303,3.3496,3.3496,3.4231,3.5097,3.5475,3.6179,3.6883,3.7262,3.7677,3.7984,3.7984,3.8086,3.8186,3.8186,3.8302,3.8399,3.8399,3.8399,3.835,3.8219,3.8186,3.8136,3.8001,3.8176,3.8423,3.8715,3.8744,3.8744,3.8744,3.8744,3.8744,3.8744,3.8744,3.8744,3.8744,3.8773,3.8802,3.8845,4.0518,4.1529,4.182,4.3437,4.4363,4.4606,4.4553,4.4519,4.1172,4.1191,4.1191,4.1191,4.1151,4.1108,4.1108,4.1093,4.105,4.1016,4.0991,4.0986,4.0928,4.0979,4.1011,4.1022,4.1077,4.1108,4.1104,4.1108,4.1086,4.1028,4.1026,4.1028,4.1008,3.9474,3.8501,3.8501,3.6893,3.5936,3.5991,3.6,3.5992,3.5992,3.5929,3.5873,3.5858,3.5785,3.5694,3.5616,3.5611,3.5519,3.535,3.5262,3.5032,3.4726,3.4489,0.0,0.0,3.3597,3.3422,3.3352,3.2963,3.2605,3.2352,3.237,3.2126,3.1821,3.1877,3.1804,3.1674,3.1656,3.1675,3.1695,3.1695,3.1931,3.2162,3.2162,3.2861,3.3631,3.3791,3.4747,3.5722,3.6059,3.6806,3.7449,3.7449,3.7685,3.7915,3.7915,3.8086,3.8236,3.8236,3.8236,3.8153,3.7949,3.7827,3.7685,3.7467,3.7374,3.7487,3.8016,3.8168,3.8236,3.8236,3.8236,3.8236,3.8236,3.8236,3.8236,3.8236,3.8283,3.8332,3.8366,4.007,4.104,4.1227,4.2851,4.374,4.3896,4.3896,4.3896,4.1172,4.1191,4.1191,4.1191,4.1152,4.1091,4.1108,4.1052,4.1003,4.0991,4.0995,4.1007,4.0997,4.105,4.1083,4.1093,4.1098,4.1105,4.1093,4.1094,4.1093,4.1087,4.1089,4.1065,4.1,3.9484,3.8495,3.8495,3.6944,3.5994,3.6004,3.5998,3.5992,3.5992,3.5877,3.5781,3.5716,3.5601,3.545,3.5335,3.5336,3.5289,3.519,3.4774,3.4553,3.4518,3.4184,0.0,0.0,3.3657,3.352,3.3247,3.2669,3.2487,3.2505,3.2109,3.1784,3.1542,3.1542,3.1293,3.0955,3.0855,3.1201,3.1695,3.1695,3.1714,3.1768,3.1768,3.1856,3.21,3.2811,3.3124,3.3575,3.4978,3.616,3.6958,3.6958,3.7319,3.7631,3.7631,3.7649,3.7667,3.7667,3.7667,3.7667,3.7631,3.7264,3.6997,3.6958,3.6583,3.6504,3.6997,3.7412,3.7667,3.7667,3.7667,3.7667,3.7667,3.7667,3.7667,3.7667,3.7739,3.7845,3.7951,3.9625,4.065,4.1029,4.2632,4.359,4.3896,4.3896,4.3896,4.1132,4.1172,4.1191,4.1191,4.1152,4.1091,4.1108,4.105,4.0998,4.1008,4.0995,4.1,4.0995,4.1045,4.1098,4.1094,4.1109,4.1101,4.1107,4.1092,4.1093,4.1093,4.1094,4.1094,4.1054,3.9531,3.8139,3.7079,3.6381,3.6001,3.6004,3.5999,3.5966,3.588,3.5741,3.5672,3.564,3.547,3.5376,3.5359,3.5154,3.5013,3.4953,3.4645,3.4375,3.4136,3.3992,0.0,0.0,3.3466,3.3256,3.2914,3.2638,3.2266,3.1912,3.1766,3.1504,3.1213,3.1291,3.1154,3.0935,3.0851,3.1015,3.1179,3.1041,3.1162,3.1338,3.1338,3.1509,3.1764,3.2093,3.2543,3.3287,3.4823,3.5552,3.5983,3.6377,3.6623,3.6761,3.6761,3.6761,3.6761,3.6761,3.6761,3.6761,3.6761,3.6841,3.69,3.69,3.6978,3.7111,3.73,3.7243,3.7281,3.7577,3.7595,3.7595,3.7595,3.7595,3.7613,3.7667,3.7757,3.7863,3.795,3.9607,4.0545,4.0701,4.2304,4.3032,4.2886,4.2886,4.2774,4.1091,4.1132,4.1172,4.1191,4.1133,4.1074,4.1093,4.1022,4.0979,4.0992,4.1,4.0996,4.0996,4.1055,4.1093,4.1093,4.1101,4.1097,4.1098,4.1106,4.1092,4.1093,4.1093,4.1091,4.1109,3.9582,3.7876,3.6129,3.5992,3.5985,3.5962,3.596,3.5921,3.5804,3.5663,3.5574,3.5546,3.5381,3.5304,3.5316,3.5066,3.4887,3.4756,3.4542,3.4249,3.3921,3.3815,0.0,0.0,3.318,3.293,3.2553,3.2369,3.2003,3.156,3.1466,3.1271,3.1055,3.1171,3.1151,3.1035,3.0972,3.0932,3.0892,3.0692,3.0818,3.1021,3.0945,3.1162,3.1413,3.1451,3.2015,3.2903,3.4202,3.4764,3.5187,3.5865,3.6126,3.6194,3.6194,3.6194,3.6194,3.6194,3.6194,3.6194,3.6194,3.6378,3.6519,3.6519,3.6681,3.6841,3.6995,3.6741,3.6799,3.7355,3.7393,3.7411,3.7448,3.7318,3.7338,3.7541,3.7577,3.7613,3.765,3.9263,4.0126,4.0126,4.1706,4.232,4.1994,4.2032,4.2032,4.109,4.1092,4.1112,4.1172,4.111,4.1022,4.1087,4.1007,4.0915,4.099,4.1002,4.0996,4.0996,4.1055,4.1093,4.1093,4.1095,4.1091,4.1098,4.1104,4.1108,4.1092,4.1094,4.1092,4.1092,3.9585,3.7885,3.6127,3.5991,0.0,3.5892,3.5909,3.5872,3.5804,3.5669,3.554,3.5398,3.5335,3.5229,3.5092,3.5092,3.4955,3.4684,3.4423,3.4189,0.0,0.0,0.0,0.0,3.286,3.2601,3.2266,3.1787,3.1657,3.164,3.1176,3.1092,3.119,3.119,3.119,3.1171,3.1035,3.0995,3.0975,3.0932,3.0892,3.0851,3.0589,3.0609,3.0733,3.0871,3.1362,3.1991,3.2757,3.3743,3.4714,3.5441,3.5912,3.6194,3.6194,3.6194,3.6194,3.6194,3.6194,3.6194,3.6194,3.5864,3.5616,3.5616,3.5218,3.5118,3.5571,3.5744,3.6118,3.6841,3.69,3.6976,3.7108,3.6678,3.6641,3.717,3.6937,3.6796,3.6816,3.8406,3.9203,3.922,4.0748,4.1503,4.1503,4.1648,4.2053,4.0899,4.0936,4.0972,4.0996,4.0994,4.0994,4.0966,4.0925,4.0914,4.0932,4.0976,4.1003,4.1009,4.105,4.11,4.1097,4.1104,4.1109,4.1093,4.1098,4.1102,4.1103,4.1091,4.0644,3.9491,3.8904,3.7888,3.6128,3.6008,3.5975,3.5892,3.5801,3.5733,3.567,3.5529,3.5432,3.5333,3.5218,3.5172,3.5155,3.4753,3.4559,3.4553,3.4105,3.385,0.0,0.0,0.0,0.0,3.2784,3.2436,3.2092,3.1932,3.1677,3.1393,3.1257,3.1213,3.119,3.119,3.119,3.1171,3.1035,3.1055,3.1112,3.0952,3.0892,3.0892,3.081,3.0794,3.0851,3.0892,3.0978,3.1225,3.1974,3.2712,3.3473,3.4207,3.4873,3.5316,3.5316,3.5316,3.5316,3.5316,3.5316,3.5316,3.5316,3.5476,3.5594,3.5594,3.571,3.5868,3.6122,3.6165,3.6291,3.6539,3.6638,3.6716,3.6756,3.6615,3.6638,3.6915,3.6836,3.6816,3.6878,3.8389,3.9199,3.9199,4.0848,4.1516,4.1288,4.1094,4.1265,4.079,4.0828,4.0871,4.0886,4.0914,4.0926,4.0896,4.0879,4.0872,4.0898,4.0937,4.096,4.0964,4.102,4.107,4.1069,4.1087,4.1097,4.1097,4.1091,4.11,4.1104,4.0836,4.0116,3.873,3.83,3.7519,3.6111,3.5987,3.5926,3.583,3.5729,3.5636,3.5558,3.5464,3.539,3.533,3.5234,3.5204,3.5229,3.4774,3.4551,3.4513,3.4105,3.3788,0.0,0.0,0.0,0.0,3.247,3.2144,3.1821,3.1821,3.1618,3.137,3.1315,3.1274,3.1232,3.121,3.119,3.119,3.1112,3.1131,3.1171,3.1052,3.0952,3.0912,3.0992,3.0972,3.0952,3.0992,3.0892,3.0974,3.1704,3.2314,3.2917,3.3709,3.4439,3.497,3.497,3.497,3.497,3.497,3.497,3.497,3.497,3.5281,3.547,3.5424,3.5661,3.5902,3.5985,3.6028,3.6049,3.6049,3.6224,3.635,3.6409,3.628,3.6322,3.6594,3.6451,3.6367,3.6395,3.7923,3.872,3.872,4.0358,4.1123,4.1018,4.0954,4.1082,0.0,4.079,4.0799,4.0863,4.0848,4.081,4.0882,4.084,0.0,4.0877,4.0903,4.0907,4.0912,4.0967,4.0996,4.1,4.1055,4.1091,4.1093,4.1103,4.1102,4.1091,4.0388,3.9569,3.8672,3.7812,3.6934,3.6074,3.5948,3.5832,3.571,3.5642,3.5568,3.5507,3.5446,3.5405,3.5405,3.533,3.5281,3.5274,3.5058,3.4841,3.458,3.4367,3.3923,0.0,0.0,0.0,0.0,3.2056,3.1821,3.1517,3.1536,3.1536,3.1498,3.1351,3.1315,3.1276,3.1213,3.119,3.119,3.119,3.119,3.119,3.119,3.1072,3.0952,3.1151,3.1112,3.1035,3.1171,3.1052,3.1059,3.1763,3.2307,3.2923,3.3756,3.4539,3.5088,3.5111,3.5111,3.5111,3.5111,3.5111,3.5111,3.5111,3.5222,3.5245,3.5111,3.5222,3.5291,3.5314,3.5423,3.5492,3.5514,3.5739,3.5929,3.6054,3.5711,3.5728,3.6237,3.5827,3.56,3.56,3.7127,3.798,3.8099,3.96,4.0453,4.0721,4.1105,4.1343,4.0561,0.0,4.0649,4.0674,4.0694,4.0739,0.0,4.0812,4.0798,4.0812,4.0858,4.0913,4.0971,4.0988,4.1003,4.0993,4.1013,4.1031,4.1091,4.1097,4.1095,4.1101,4.0384,3.9566,3.867,3.7812,3.6934,3.6074,3.594,3.5834,3.571,3.565,3.5562,3.5507,3.5474,3.5453,3.5405,3.533,3.5227,3.5077,3.486,3.4622,3.4356,3.4124,3.3881,0.0,0.0,0.0,3.2635,3.2249,3.1947,3.1744,3.191,3.1801,3.1578,3.1481,3.1387,3.1276,3.1213,3.119,3.119,3.119,3.119,3.119,3.119,3.1171,3.1131,3.119,3.1171,3.1151,3.119,3.1052,3.0925,3.1109,3.1962,3.2774,3.309,3.4172,3.5111,3.5222,3.5245,3.5245,3.5245,3.5245,3.5245,3.5245,3.5268,3.5291,3.5268,3.5268,3.5337,3.5446,3.5469,3.5537,3.5571,3.5627,3.5672,3.5717,3.5622,3.5622,3.5761,3.5667,3.56,3.56,3.7204,3.871,4.0045,4.0429,4.0697,4.0864,4.0948,4.1018,4.0496,4.0531,4.0561,4.06,4.0628,4.0674,4.0784,4.0796,4.0806,4.0801,4.0848,4.0903,4.0954,4.0943,4.0952,4.0957,4.0976,4.1023,4.1089,4.1107,4.1101,4.1097,4.0049,3.9116,0.0,3.7441,3.6503,3.5992,3.5884,3.5805,3.5706,3.5635,3.5571,3.5495,3.5494,3.5474,3.5453,3.5412,3.5285,3.5096,3.4879,3.4641,3.4374,3.4111,3.3863,0.0,0.0,0.0,3.2872,3.252,3.2249,3.2073,3.209,3.1929,3.1671,3.1578,3.1502,3.1428,3.1366,3.1344,3.1327,3.1271,3.1252,3.1232,3.121,3.119,3.119,3.119,3.119,3.119,3.119,3.1072,3.0952,3.0952,3.1683,3.2495,3.2976,3.3952,3.4856,3.5293,3.54,3.54,3.54,3.54,3.54,3.54,3.5429,3.5429,3.54,3.5429,3.5458,3.5543,3.5543,3.5458,3.5247,3.5224,3.5339,3.5577,3.56,3.56,3.56,3.5362,3.5345,3.5585,3.7121,3.8502,3.9638,4.0339,4.0673,4.0648,4.0799,4.0912,4.0406,4.0406,4.0438,4.0566,4.0595,4.0635,4.0759,4.0796,4.08,4.0801,4.0842,4.0888,4.0903,4.0907,4.0907,4.0907,4.0952,4.1025,4.1081,4.1096,4.1053,4.092,3.954,0.0,3.8415,3.6952,3.5975,3.5918,3.5841,3.5772,3.5711,3.564,3.5566,3.5515,3.5521,3.5507,3.5453,3.5453,3.5354,3.5141,3.4955,3.4701,3.4439,3.4209,3.3915,3.357,0.0,0.0,3.3009,3.2797,3.257,3.2335,3.2161,3.1982,3.1764,3.1653,3.1598,3.1579,3.1519,3.1498,3.1443,3.1351,3.1295,3.1274,3.123,3.119,3.119,3.1114,3.1151,3.119,3.119,3.1112,3.0995,3.0995,3.1523,3.2236,3.3097,3.3826,3.4532,3.5363,3.5514,3.5514,3.5514,3.5514,3.5514,3.5514,3.5571,3.5594,3.552,3.5487,3.547,3.547,3.5402,3.5178,3.4738,3.4745,3.4998,3.5447,3.547,3.5515,3.56,3.5178,3.5229,3.5828,3.7138,3.8072,3.8615,4.0036,4.0624,4.0404,4.0728,4.0864,3.9973,3.9983,4.0091,4.0496,4.0595,4.0635,4.0759,4.0797,4.0796,4.0796,4.0812,4.0828,4.0898,4.0907,4.0907,4.0907,4.0957,4.1007,4.1016,4.1061,4.0833,4.0094,0.0,3.8308,3.7567,3.6598,3.5976,3.5907,3.5838,3.5781,3.5706,3.564,3.5598,3.5572,3.5585,3.5489,3.5258,3.5246,3.516,3.4936,3.474,3.4484,3.4161,3.4124,3.4036,3.3902,0.0,3.3372,3.3136,3.2829,3.247,3.2144,3.2108,3.1982,3.1764,3.1653,3.1598,3.1579,3.1519,3.1443,3.1332,3.1315,3.1254,3.121,3.121,3.119,3.1131,3.072,3.0898,3.119,3.119,3.1112,3.0995,3.0995,3.1523,3.2236,3.3097,3.3826,3.4538,3.5419,3.5577,3.5577,3.5577,3.5577,3.5577,3.5577,3.56,3.56,3.5577,3.5201,3.4927,3.4927,3.4529,3.421,3.4136,3.4553,3.4833,3.4927,3.4927,3.5131,3.5577,3.5622,3.6045,3.6859,3.7797,3.8688,3.9495,4.0421,4.0864,4.0817,4.0871,4.0704,3.988,3.9901,3.9963,4.0257,4.0336,4.0353,4.0438,4.0473,4.0504,4.0561,4.061,4.0674,4.0826,4.0878,4.0907,4.0907,4.0896,4.0914,4.0984,4.1069,4.0783,0.0,0.0,3.8268,3.7388,3.6517,3.5957,3.5848,3.5814,3.5765,3.5694,3.5648,3.5602,3.5602,3.5604,3.5469,3.5189,3.5094,3.4935,3.474,3.4636,3.445,3.4161,3.4161,3.4136,3.4099,0.0,3.3765,3.3564,3.3291,3.2941,3.2571,3.2421,3.2197,3.1947,3.1893,3.1857,3.1874,3.1819,3.1709,3.156,3.1485,3.1447,3.1406,3.1291,3.1291,3.1269,3.0838,3.0955,3.1151,3.0878,3.0958,3.1112,3.1112,3.1325,3.1898,3.3102,3.3592,3.417,3.538,3.56,3.56,3.56,3.56,3.5492,3.5224,3.5178,3.5045,3.4769,3.4529,3.4382,3.4382,3.4407,3.4309,3.402,3.4504,3.4927,3.5224,3.5125,3.5055,3.5008,3.5055,3.5134,3.5274,3.6783,3.7675,3.7878,3.9429,4.0087,3.9876,4.0087,4.0087,3.9758,3.978,3.9821,3.9939,4.0031,4.011,4.0177,4.0205,4.0242,4.0328,4.0396,4.0509,4.0713,4.0826,4.0888,4.0921,4.0869,4.0876,4.099,4.0891,4.0485,3.9623,3.879,3.7953,3.7075,3.6399,3.5956,3.583,3.5807,0.0,3.5697,3.5654,3.5612,3.5612,3.559,3.5443,3.5173,3.4987,3.4793,3.4602,3.4528,3.4386,3.4197,3.4197,3.4197,3.4197,3.4148,3.4023,3.3802,3.3559,3.3235,3.288,3.2621,3.237,3.2144,3.2108,3.209,3.209,3.2054,3.1911,3.1744,3.1635,3.1579,3.1559,3.1389,3.1406,3.1404,3.0995,3.1035,3.1134,3.0699,3.0898,3.119,3.119,3.119,3.1596,3.3085,3.3406,3.3846,3.5312,3.56,3.5577,3.5424,3.5424,3.5224,3.4697,3.4601,3.4456,3.4061,3.4011,3.4011,3.4011,3.4382,3.448,3.4152,3.4374,3.4802,3.5396,3.5095,3.4828,3.4594,3.4618,3.4448,3.4025,3.6007,3.6865,3.6561,3.8598,3.9428,3.9142,3.9454,3.9558,3.938,3.9438,3.9476,3.9602,3.9881,4.011,4.0177,4.0205,4.0195,4.0211,4.0229,4.0296,4.057,4.0725,4.0851,4.0975,4.0937,4.0941,4.1061,0.0,3.9584,3.8786,3.7927,3.7048,3.6189,3.6031,3.5975,3.5895,3.5838,0.0,3.5708,3.5692,3.5684,3.5684,3.5559,3.5383,3.5114,3.4978,3.4793,3.4602,3.434,3.4221,3.4197,3.4197,3.4197,3.4185,3.3998,3.382,3.3587,3.319,3.288,3.2622,3.2403,3.2301,3.2266,3.2144,3.209,3.2073,3.1892,3.1727,3.1617,3.1598,3.1559,3.15,3.1498,3.1498,3.1404,3.0942,3.1044,3.1235,3.0935,3.1032,3.119,3.119,3.119,3.1596,3.3085,3.3406,3.3846,3.5312,3.56,3.5447,3.4951,3.4857,3.4673,3.4136,3.4061,3.4045,3.3995,3.4011,3.4011,3.4011,3.4036,3.4177,3.4431,3.4034,3.4126,3.4899,3.425,3.4126,3.4851,3.4994,3.5041,3.4994,3.656,3.7344,3.7319,3.8865,3.9584,3.9558,3.9584,3.9418,3.9346,3.9405,3.9444,3.9571,3.9703,3.98,3.9815,3.9834,3.9848,3.9878,3.9953,4.0129,4.0523,4.0545,4.0581,4.0898,4.0844,4.0654,4.0276,3.9975,3.9292,3.7946,3.7497,3.697,3.607,3.5991,3.5956,3.5845,3.5816,0.0,3.5707,3.5701,3.5704,3.5704,3.5559,3.5364,3.5106,3.4969,3.4793,3.4602,3.4495,3.445,3.445,3.445,3.4328,3.4136,3.4061,3.3757,3.3339,3.319,3.299,3.2753,3.2573,3.2555,3.2655,3.2472,3.2404,3.2404,3.2318,3.2126,3.1911,3.1911,3.1801,3.167,3.1595,3.1632,3.1595,3.1173,3.1232,3.131,3.0841,3.0975,3.119,3.119,3.119,3.1596,3.3085,3.3406,3.3846,3.5312,3.5316,3.5045,3.4816,3.4529,3.4119,3.3588,3.3793,3.3758,3.3082,3.3303,3.3381,3.3029,3.3507,3.4009,3.4448,3.4151,3.4151,3.4618,3.4374,3.4325,3.4643,3.4546,3.4472,3.4472,3.5513,3.6252,3.6727,3.7695,3.84,3.8843,3.8843,3.8777,3.9346,3.9418,3.9457,3.9564,3.9589,3.9589,3.9589,3.9589,3.9614,3.9661,3.9835,4.0101,4.0472,4.0481,4.0545,4.0874,4.0825,4.0505,3.9831,3.9533,3.8855,3.743,3.7045,3.6657,3.6051,3.5992,3.5955,3.5871,0.0,0.0,0.0,3.5706,3.5673,3.5645,3.5509,3.5333,3.5108,3.4971,3.4832,3.4689,3.4689,3.4658,3.4612,3.4612,3.4427,3.4099,3.4018,3.3671,3.3205,3.3129,3.3024,3.2884,3.2753,3.277,3.2884,3.2672,3.2606,3.2589,3.2539,3.2335,3.209,3.209,3.1965,3.1781,3.169,3.1727,3.1744,3.1481,3.1462,3.1426,3.1024,3.1058,3.119,3.119,3.119,3.1596,3.3085,3.3262,3.3592,3.5054,3.4904,3.4488,3.4317,3.4119,3.3742,3.3039,3.3537,3.363,3.2547,3.3108,3.3501,3.323,3.3575,3.4,3.4448,3.4176,3.4101,3.4349,3.4374,3.4374,3.4374,3.4201,3.4101,3.4101,3.4813,3.5542,3.6303,3.6956,3.7695,3.8391,3.8391,3.8391,3.936,3.9444,3.9508,3.9596,3.9589,3.9589,3.9589,3.9589,3.9589,3.9589,3.9929,4.0227,4.0377,4.0563,4.0759,4.0971,4.0882,4.0548,3.9877,3.9031,3.8168,3.7295,3.649,3.5992,3.5992,3.5996,3.5991,3.5991,0.0,0.0,0.0,3.5747,3.5645,3.549,3.5374,3.5227,3.5105,3.4963,3.4908,3.4908,3.4908,3.4801,3.4594,3.4594,3.4427,3.4068,3.3826,3.3514,3.319,3.2977,3.29,3.29,3.29,3.29,3.2884,3.2672,3.2588,3.2571,3.2369,3.2214,3.209,3.209,3.1982,3.18,3.18,3.18,3.18,3.18,3.1709,3.1598,3.1598,3.1406,3.119,3.119,3.119,3.1596,3.3085,3.2966,3.3032,3.4528,3.4358,3.3818,3.3287,3.364,3.3614,3.2547,3.3319,3.363,3.2547,3.3636,3.4594,3.4851,3.4423,3.4201,3.4472,3.4,3.3822,3.4075,3.4101,3.4101,3.4101,3.4101,3.4101,3.4101,3.4813,3.5542,3.6303,3.6956,3.7651,3.8391,3.8391,3.8391,3.9346,3.9418,3.9489,3.9754,3.9703,3.9638,3.9777,3.9703,3.9631,3.9785,3.991,4.0101,4.048,4.0509,4.0597,4.0878,4.0335,3.9649,3.8971,3.8134,3.7279,3.6453,3.6145,3.5999,3.5991,3.5996,3.5985,0.0,0.0,0.0,0.0,3.5699,3.5651,3.5496,3.5374,3.5227,3.5105,3.4963,3.4908,3.4908,3.4908,3.4879,3.4821,3.4821,3.4526,3.4031,3.3949,3.3607,3.3132,3.307,3.3039,3.3024,3.2995,3.2963,3.2948,3.2852,3.2802,3.2786,3.2737,3.2606,3.2438,3.2284,3.2144,3.1983,3.1838,3.18,3.18,3.18,3.1709,3.1598,3.1598,3.1502,3.1421,3.1421,3.1329,3.1582,3.2734,3.2774,3.2918,3.4031,3.3793,3.3407,3.3251,3.3029,3.2776,3.2453,3.3002,3.3423,3.3314,3.3513,3.3684,3.3771,3.3797,3.3848,3.3924,3.3975,3.4025,3.4101,3.4101,3.4101,3.4101,3.4101,3.4101,3.4101,3.4311,3.504,3.6303,3.6513,3.7226,3.8391,3.8391,3.8448,3.9508,3.9583,3.9649,3.9848,3.9811,3.9743,3.987,3.9731,3.9679,3.9939,3.9993,4.0147,4.0603,4.0636,4.0649,4.0864,4.0155,3.9324,3.8562,3.7726,3.6898,3.6059,3.5977,3.6008,3.5994,3.5973,3.5935,0.0,0.0,0.0,0.0,3.5745,3.5644,3.5477,3.5378,3.5239,3.5018,3.4992,3.4945,3.4908,3.4927,3.4927,3.4908,3.4908,3.4632,3.414,3.3906,3.3542,3.3101,3.3101,3.307,3.3057,3.3011,3.2979,3.2948,3.2916,3.29,3.29,3.29,3.277,3.2589,3.2454,3.2266,3.209,3.1964,3.1856,3.18,3.18,3.1727,3.169,3.169,3.1651,3.1612,3.1517,3.1271,3.1348,3.2545,3.2467,3.2501,3.3652,3.3517,3.323,3.323,3.314,3.3007,3.278,3.3033,3.3429,3.3949,3.3694,3.3503,3.3607,3.3745,3.3848,3.3848,3.4,3.4101,3.4101,3.4101,3.4101,3.4101,3.4101,3.4126,3.4176,3.4176,3.4915,3.6446,3.6446,3.7161,3.8544,3.8544,3.86,3.9712,3.9848,3.9903,3.9924,3.9935,3.9935,3.9935,3.9789,3.9743,4.0071,4.0175,4.0348,4.0739,4.0851,4.0878,4.0806,4.0111,3.9289,3.84,3.7582,3.6796,3.5986,3.5965,3.5995,3.5996,3.5946,0.0,0.0,0.0,0.0,0.0,3.5838,3.5664,3.5412,3.538,3.5239,3.4927,3.5029,3.5048,3.4927,3.4983,3.4983,3.4917,3.4917,3.4723,3.4345,3.3781,3.3379,3.3117,3.3117,3.3088,3.3028,3.3011,3.2963,3.2916,3.29,3.29,3.29,3.29,3.277,3.2605,3.2606,3.2387,3.2144,3.2108,3.1965,3.1837,3.1818,3.18,3.18,3.18,3.1781,3.1707,3.1536,3.1092,3.1108,3.2497,3.2203,3.2079,3.3447,3.3513,3.3346,3.3346,3.372,3.3848,3.3372,3.3335,3.3607,3.4325,3.4025,3.3822,3.4075,3.4101,3.4101,3.4101,3.4101,3.4101,3.4101,3.4126,3.4126,3.4126,3.4126,3.4176,3.43,3.4325,3.5092,3.6718,3.6718,3.7412,3.8805,3.8805,3.8805,3.9566,3.9724,3.9862,4.009,4.0139,4.0139,4.0139,4.011,4.0129,4.0359,4.0435,4.0537,4.0815,4.0893,4.0684,4.0068,3.9237,3.838,3.7502,3.6686,3.6107,3.5917,3.5951,3.5976,3.5921,3.5908,0.0,0.0,0.0,0.0,3.5901,3.5791,3.5614,3.5406,3.5348,3.5242,3.5066,3.5084,3.5084,0.0,3.5075,3.5075,3.5038,3.4945,3.4662,3.4227,3.3876,3.3587,3.3334,3.3334,3.3307,3.3232,3.3119,3.3042,3.2963,3.2916,3.29,3.29,3.29,3.2868,3.2802,3.2655,3.2556,3.2438,3.2179,3.2073,3.2001,3.1838,3.18,3.18,3.18,3.1598,3.1408,3.1351,3.1616,3.1993,3.2459,3.2833,3.32,3.3673,3.3723,3.3697,3.3697,3.3575,3.3424,3.3335,3.3477,3.3684,3.3848,3.3949,3.4025,3.4101,3.4101,3.4101,3.4101,3.4101,3.4101,3.4101,3.4201,3.425,3.425,3.425,3.4275,3.43,3.4399,3.5193,3.6718,3.6718,3.7412,3.8805,3.8805,3.886,3.9609,3.9821,4.002,4.0278,4.0278,4.0233,4.0321,4.0339,4.0397,4.06,4.0568,4.0584,4.0856,4.0898,4.0641,3.9834,3.8965,3.8108,3.721,3.6406,3.5908,3.5903,3.5957,3.5969,3.5905,0.0,0.0,0.0,0.0,3.5869,3.5815,3.5747,3.5581,3.5366,3.5355,3.5273,3.5092,3.5136,3.5136,3.5092,3.5138,3.5138,3.5092,3.5001,3.4662,3.4197,3.4049,3.3766,3.3393,3.3393,3.3367,3.3277,3.315,3.3073,3.2979,3.2916,3.29,3.29,3.29,3.29,3.2884,3.277,3.2688,3.2573,3.2387,3.2266,3.2179,3.2073,3.2037,3.202,3.1965,3.1746,3.156,3.1654,3.1797,3.2013,3.2448,3.3125,3.3705,3.3997,3.4143,3.4168,3.3968,3.3806,3.3684,3.3684,3.3797,3.3899,3.3975,3.4101,3.4226,3.4275,3.43,3.43,3.43,3.43,3.43,3.43,3.4349,3.4399,3.4399,3.4448,3.4497,3.4497,3.4546,3.5342,3.6898,3.6898,3.764,3.904,3.904,3.9067,3.9658,3.9918,4.0158,4.0422,4.0372,4.0304,4.0504,4.0554,4.0591,4.0771,4.0668,4.0622,4.0832,4.0766,4.0413,3.9619,3.8734,3.7879,3.7005,3.6319,3.5908,3.5909,3.5954,3.5968,3.5917,0.0,0.0,0.0,0.0,3.584,3.5702,3.5681,3.5562,3.5325,3.5357,3.5281,3.5119,3.5168,3.5168,3.5119,3.5172,3.5172,3.5101,3.5057,3.4742,3.4262,3.4269,3.3959,3.3481,3.352,3.3466,3.3367,3.3298,3.3175,3.3055,3.3008,3.2945,3.29,3.29,3.29,3.29,3.29,3.2804,3.2655,3.2622,3.2471,3.2335,3.2318,3.2249,3.2197,3.2073,3.1874,3.1764,3.1929,3.202,3.2164,3.2613,3.3399,3.4121,3.4317,3.4546,3.457,3.4201,3.4126,3.4151,3.4176,3.4176,3.4201,3.4325,3.4325,3.4374,3.4497,3.4497,3.4497,3.4497,3.4497,3.4497,3.4497,3.4521,3.4521,3.4521,3.4667,3.4715,3.4715,3.4715,3.553,3.7102,3.7102,3.7864,3.9299,3.9299,3.9299,3.9482,3.9816,4.0158,4.0422,4.0481,4.0504,4.072,4.0771,4.0771,4.079,4.0784,4.0769,4.0801,4.0232,3.9504,3.8698,3.7842,3.6985,3.6171,3.5979,3.5894,3.5898,3.5967,3.5963,3.5916,0.0,0.0,0.0,3.5908,3.584,3.5702,3.5641,3.5548,3.5398,3.5281,3.5207,3.5193,3.5201,3.5201,3.5193,3.5193,3.5196,3.5172,3.512,3.4898,3.4548,3.4542,3.4245,3.3766,3.3998,3.3908,3.3657,3.3826,3.3661,3.3346,3.3332,3.3142,3.29,3.29,3.29,3.29,3.29,3.2884,3.2836,3.2655,3.2589,3.2521,3.2352,3.2091,3.1856,3.1838,3.1598,3.1372,3.1391,3.2664,3.3714,3.3246,3.4114,3.4945,3.4699,3.4683,3.4594,3.4325,3.4275,3.4325,3.4423,3.4448,3.4448,3.4472,3.4472,3.4472,3.4497,3.4497,3.4497,3.4497,3.4497,3.4497,3.4497,3.4594,3.4667,3.4667,3.4804,3.4875,3.4875,3.4875,3.5604,3.7102,3.7102,3.7864,3.9299,3.9299,3.9299,3.9615,3.9913,4.0186,4.0576,4.0666,4.068,4.0784,4.0797,4.0797,4.0797,4.0823,4.0708,4.0223,3.9848,3.9194,3.7922,3.741,3.6852,3.6028,3.5891,3.5898,3.5897,3.5963,3.5999,3.596,0.0,0.0,0.0,3.582,3.5757,3.5645,3.5535,3.5425,3.5289,3.5231,3.5209,3.5209,3.5209,3.5209,3.5209,3.5209,3.5193,3.5196,3.5172,3.4945,3.4612,3.4596,3.4374,3.4036,3.4148,3.4111,3.3985,3.3987,3.3808,3.355,3.349,3.3276,3.3011,3.2963,3.2948,3.2948,3.2916,3.29,3.2884,3.2786,3.277,3.2753,3.2655,3.2539,3.2387,3.2284,3.2056,3.1999,3.256,3.3329,3.3968,3.4116,3.5027,3.5633,3.5048,3.4739,3.4546,3.4423,3.4423,3.4423,3.4497,3.4497,3.4521,3.4594,3.4618,3.4643,3.4732,3.4715,3.4715,3.4715,3.4715,3.4715,3.4715,3.478,3.4811,3.4811,3.4875,3.5081,3.5512,3.5512,3.6042,3.7102,3.7516,3.8261,3.9299,3.9299,3.9299,3.9603,3.9882,4.0148,4.0519,4.0706,4.0784,4.079,4.0802,4.0825,4.0825,4.0699,4.0334,3.9487,3.9312,3.8847,3.7435,3.7015,3.6648,3.6009,3.5937,3.5935,3.5933,3.5977,3.5997,3.6009,0.0,0.0,0.0,3.5771,3.5674,3.5554,3.5451,3.5348,3.519,3.5209,3.5209,3.5209,3.5209,3.5209,3.5209,3.5209,3.5209,3.5201,3.5198,3.5048,3.4753,3.472,3.4542,3.4309,3.4356,3.4351,3.4305,3.4249,3.4037,3.3757,3.3666,3.3404,3.3086,3.3042,3.3011,3.2979,3.2932,3.2916,3.29,3.29,3.29,3.29,3.29,3.2836,3.2721,3.2555,3.2403,3.2528,3.3493,3.3834,3.4123,3.4798,3.5423,3.5677,3.5048,3.4707,3.4521,3.4546,3.4546,3.4546,3.4594,3.4594,3.4643,3.4739,3.4739,3.4804,3.4899,3.4899,3.4899,3.4899,3.4899,3.4899,3.4899,3.4899,3.4899,3.4899,3.4899,3.5247,3.5992,3.6191,3.6655,3.7384,3.7947,3.8576,3.9299,3.9299,3.9299,3.9205,3.9573,3.9951,4.0101,4.0422,4.0713,4.0784,4.0846,4.0898,4.0898,4.0287,3.9522,3.8704,3.8514,3.8181,3.7338,3.6503,3.5976,3.598,3.5995,3.5995,3.5994,3.6006,3.5999,3.5999,0.0,0.0,0.0,3.5795,3.5688,3.5425,3.5405,3.5348,3.519,3.5209,3.5209,3.5209,3.5209,3.5209,3.5209,3.5209,3.5209,3.5201,3.5198,3.5191,3.5155,3.5029,3.4831,3.4582,3.4773,3.4742,3.4594,3.4782,3.4497,3.3981,3.3981,3.3593,3.3101,3.3101,3.3057,3.2995,3.3013,3.2948,3.29,3.29,3.29,3.29,3.29,3.2639,3.2335,3.2318,3.2318,3.2494,3.3319,3.4055,3.4638,3.5026,3.4842,3.4594,3.4546,3.4521,3.4546,3.4667,3.4691,3.4715,3.4875,3.4875,3.4875,3.4899,3.4899,3.4899,3.4899,3.4899,3.4899,3.4899,3.4899,3.4899,3.4899,3.4899,3.4899,3.4899,3.4899,3.5247,3.5992,3.6688,3.7417,3.8146,3.8169,3.8576,3.9299,3.9299,3.9299,3.9351,3.963,3.9953,4.0157,4.0469,4.0726,4.0779,4.0849,4.0746,4.0237,3.9934,3.9334,3.7925,3.765,3.7368,3.6562,3.6168,3.5969,3.5995,3.5992,3.5985,3.594,3.5934,3.5897,3.5814,0.0,0.0,0.0,0.0,3.5566,3.5477,3.5374,3.5278,3.5209,3.5209,3.5209,3.5209,3.5209,3.5209,3.5209,3.5209,3.5209,3.5209,3.5193,3.5204,3.5196,3.5155,3.502,3.486,3.4898,3.487,3.4811,3.486,3.458,3.4123,3.4123,3.3784,3.3289,3.3244,3.3198,3.317,3.3044,3.2979,3.2948,3.2916,3.29,3.29,3.29,3.2804,3.2688,3.2688,3.3079,3.3652,3.4352,3.5084,3.5576,3.5447,3.5055,3.4859,3.5155,3.4961,3.4763,3.4828,3.4828,3.4835,3.4899,3.4899,3.4899,3.4899,3.4899,3.4899,3.4899,3.4899,3.4899,3.4899,3.4899,3.4899,3.4899,3.4899,3.4899,3.4899,3.5346,3.5959,3.6688,3.7433,3.7947,3.8186,3.8676,3.905,3.9299,3.9299,3.9299,3.9281,3.9606,3.9903,4.012,4.043,4.0674,4.0742,4.0607,4.0314,3.9805,3.9312,3.8602,3.7449,3.6983,3.6619,3.6089,3.6006,3.6003,3.5998,3.5985,3.5947,3.5914,3.5852,3.5797,3.5702,0.0,0.0,0.0,0.0,0.0,3.5437,3.535,3.5273,3.5231,3.5234,3.5226,3.5226,3.5209,3.5209,3.5209,3.5209,3.5209,3.5209,3.5209,3.5209,3.5201,3.5198,3.5147,3.5066,3.5001,3.4974,3.4974,3.4974,3.4651,3.4196,3.4196,3.385,3.3378,3.3352,3.3307,3.3277,3.3137,3.306,3.2979,3.2948,3.2932,3.2932,3.2932,3.2932,3.2932,3.2932,3.3703,3.4604,3.5172,3.5882,3.6357,3.6101,3.5549,3.5241,3.5526,3.5218,3.4899,3.4899,3.4899,3.4899,3.4899,3.4899,3.4899,3.4899,3.4899,3.4899,3.4899,3.4899,3.4899,3.4899,3.4899,3.4899,3.4899,3.4899,3.5015,3.5263,3.5744,3.6456,3.7466,3.7963,3.8328,3.8576,3.9067,3.9299,3.9299,3.9299,3.9299,0.0,0.0,0.0,3.988,4.0221,4.0564,4.0648,4.0092,3.9565,3.962,3.8394,3.7285,3.7266,3.6562,3.5996,3.5995,3.5991,3.6004,3.6004,3.5931,3.5892,3.5886,3.5787,3.5693,3.5689,0.0,0.0,0.0,3.5498,3.5451,3.5304,3.5308,3.5308,3.5308,3.5289,3.5293,3.5293,3.5245,3.5209,3.5209,3.5209,3.5209,3.5209,3.5209,3.5209,3.5201,3.5198,3.52,3.52,3.5129,3.5092,3.5092,3.5092,3.4733,3.42,3.42,3.3852,3.3393,3.3393,3.3352,3.3292,3.331,3.317,3.3013,3.2995,3.2995,3.2995,3.2995,3.2995,3.3013,3.3066,3.4147,3.5314,3.564,3.6319,3.69,3.688,3.6211,3.5616,3.5616,3.5241,3.4899,3.4899,3.4899,3.4899,3.4899,3.4899,3.4899,3.4899,3.4899,3.4899,3.4899,3.4899,3.4899,3.4899,3.4899,3.4899,3.4899,3.4916,3.5247,3.5976,3.6042,3.6738,3.8179,3.8228,3.8576,3.9299,3.9299,3.9299,3.9299,3.9299,3.9299,3.856,0.0,0.0,0.0,0.0,0.0,3.9708,3.9194,3.8507,3.8007,3.7587,3.7109,3.6484,3.6152,3.5996,3.5996,3.5995,3.5992,3.6005,3.5978,3.5927,3.5767,3.5714,3.5664,0.0,0.0,0.0,0.0,3.5509,3.5456,3.5372,3.5323,3.5308,3.5308,3.53,3.5293,3.5293,3.5273,3.5269,3.5269,3.5218,3.5209,3.5209,3.5209,3.5209,3.5201,3.5193,3.5204,3.5185,3.5127,3.5092,3.5092,3.5092,3.4733,3.42,3.42,3.3852,3.3393,3.3393,3.3396,3.3367,3.3325,3.3262,3.3201,3.3104,3.307,3.307,3.307,3.307,3.3342,3.4443,3.5225,3.5859,3.6429,3.6742,3.6821,3.6481,3.6194,3.6041,3.6041,3.5413,3.4899,3.4899,3.4899,3.4899,3.4899,3.4899,3.4899,3.4899,3.4899,3.4899,3.4899,3.4899,3.4899,3.4899,3.4899,3.4899,3.4899,3.5396,3.5794,3.5992,3.7036,3.7798,3.8195,3.8725,3.91,3.9299,3.9299,3.9299,3.9299,3.9299,3.9299,3.8371,3.8835,3.9195,3.918,0.0,0.0,3.876,3.8213,3.7603,3.7235,3.6912,3.6579,3.6094,3.5996,3.5996,3.5996,3.5996,3.5995,3.5991,3.5952,3.5868,3.576,3.5674,3.5602,0.0,3.5494,3.55,3.55,3.55,3.5474,3.5446,3.5405,3.5379,3.5379,3.5364,3.533,3.533,3.5316,3.53,3.5297,3.525,3.5234,3.5234,3.5234,3.5226,3.5209,3.5209,3.5209,3.5201,3.5151,3.5153,3.5117,3.502,3.4674,3.4211,3.408,3.3747,3.3393,3.3393,3.3393,3.3378,3.3352,3.3322,3.3277,3.3214,3.318,3.318,3.318,3.3432,3.4031,3.5516,3.6043,3.6361,3.703,3.7054,3.6821,3.6542,3.6381,3.6232,3.5998,3.5549,3.5125,3.4947,3.5071,3.5142,3.4923,3.4899,3.4899,3.4899,3.4899,3.4899,3.4899,3.4899,3.4899,3.4899,3.4899,3.5032,3.5346,3.576,3.629,3.6903,3.7748,3.8344,3.8642,3.9083,3.9299,3.9299,3.9299,3.9388,3.9592,3.9592,3.9722,3.8277,3.8571,3.86,3.8359,3.8441,0.0,3.7795,3.7186,3.6784,3.6927,3.6389,3.5921,3.5995,3.5996,3.5996,3.5996,3.5996,3.5996,3.5995,3.5892,3.5814,3.5781,3.5611,3.5502,3.5502,3.5501,3.55,3.55,3.55,3.55,3.55,3.55,3.55,3.55,3.5446,3.5412,3.5412,3.5339,3.5297,3.5315,3.5297,3.5293,3.5293,3.5293,3.5269,3.5209,3.5209,3.5209,3.5209,3.5209,3.5193,3.5141,3.4898,3.4572,3.423,3.3906,3.3616,3.3393,3.3393,3.3393,3.3393,3.3393,3.3367,3.3307,3.3307,3.3307,3.3325,3.3415,3.4101,3.5047,3.6303,3.6664,3.6897,3.747,3.73,3.6978,3.6919,3.6704,3.6319,3.5798,3.5661,3.5476,3.5048,3.527,3.5385,3.4954,3.4923,3.4923,3.4899,3.4923,3.4923,3.4899,3.4899,3.4899,3.4899,3.4982,3.5297,3.5959,3.6158,3.6837,3.8136,3.8295,3.8626,3.9282,3.9299,3.9299,3.9299,3.9299,3.9504,3.9919,3.9919,4.0195,3.7771,3.7785,3.7759,3.8191,3.7462,0.0,3.6672,3.6247,3.5883,3.5966,3.5931,3.5928,3.5993,3.5995,3.5995,3.5996,3.5996,3.5996,3.5995,3.5936,3.5846,3.5732,3.564,0.0,3.5508,3.5507,3.55,3.55,3.55,3.55,3.55,3.55,3.55,3.55,3.5493,3.5486,3.5486,3.5405,3.5391,3.5372,3.5335,3.53,3.5293,3.53,3.5285,3.5277,3.5218,3.5209,3.5209,3.5209,3.5098,3.4955,3.4851,3.4494,3.4043,3.386,3.3616,3.3393,3.3393,3.3393,3.3393,3.3393,3.3396,3.3382,3.3382,3.3382,3.3508,3.416,3.5388,3.6548,3.6723,3.7197,3.7648,3.7685,3.7613,3.7449,3.7129,3.7055,3.6884,3.634,3.5938,3.5627,3.5498,3.5241,3.5001,3.4906,3.4994,3.5018,3.4923,3.4994,3.5018,3.4923,3.4899,3.4899,3.4899,3.5446,3.5843,3.5992,3.7119,3.7914,3.8195,3.8758,3.9149,3.9299,3.9299,3.9299,3.9299,3.9299,3.9352,3.9441,3.9441,3.9478,3.688,3.6823,3.6701,3.6652,3.616,0.0,0.0,3.5519,3.5443,3.5615,3.5706,3.5794,3.5932,3.5942,3.5968,3.5995,3.5975,3.5951,3.5948,3.5885,3.5814,3.5718,3.5645,0.0,3.5509,3.5494,3.55,3.55,3.55,3.55,3.55,3.55,3.55,3.55,3.55,3.55,3.55,3.5427,3.5412,3.5453,3.5379,3.5357,3.5357,3.532,3.5308,3.5304,3.5226,3.5209,3.5209,3.5209,3.5081,3.4879,3.4783,3.458,3.4302,3.3948,3.3703,3.3577,3.3452,3.3393,3.3393,3.3393,3.3393,3.3393,3.3393,3.3683,3.4262,3.5457,3.6379,3.7069,3.7333,3.7679,3.7915,3.781,3.7613,3.7413,3.7189,3.7209,3.7173,3.6865,3.6467,3.6088,3.5749,3.5498,3.5304,3.5111,3.5175,3.5152,3.5018,3.5065,3.5041,3.4923,3.4899,3.5048,3.5413,3.5794,3.6307,3.7052,3.7798,3.8361,3.8725,3.91,3.9299,3.9299,3.9299,3.9299,3.9299,3.9299,3.9415,3.9644,3.9644,3.9782,3.5902,3.581,3.5491,3.5075,3.5032,3.5025,0.0,0.0,0.0,3.5494,3.5582,3.5657,3.5866,3.5892,0.0,3.5993,0.0,0.0,0.0,3.5843,0.0,3.5715,3.5651,0.0,3.5515,3.5508,3.55,3.55,3.55,3.55,3.55,3.55,3.55,3.55,3.55,3.55,3.55,3.5453,3.5453,3.55,3.5453,3.542,3.5412,3.535,3.5293,3.53,3.5226,3.5209,3.5209,3.5209,3.5098,3.4936,3.4763,3.4643,3.4505,3.3992,3.3766,3.3684,3.3481,3.3393,3.3393,3.3393,3.3502,3.3628,3.3628,3.4298,3.5331,3.6633,3.7104,3.7359,3.789,3.8018,3.8002,3.7933,3.7632,3.7359,3.7359,3.7433,3.7433,3.7377,3.7058,3.6666,3.6143,3.5876,3.565,3.5538,3.5389,3.5291,3.5211,3.5158,3.5041,3.4923,3.5032,3.5346,3.5959,3.6257,3.6936,3.8103,3.8344,3.8676,3.9282,3.9299,3.9299,3.9299,3.9299,3.9299,3.9299,3.9299,3.9504,3.9868,3.9868,4.0095,3.5186,3.4688,3.4257,3.4779,3.4568,3.4306,3.4572,0.0,3.5235,3.5321,0.0,3.565,3.5869,0.0,0.0,0.0,0.0,0.0,3.5918,3.5843,3.5781,3.5715,3.5651,3.5566,0.0,3.5508,3.55,3.55,3.55,3.55,3.55,3.55,3.55,3.55,3.55,3.55,3.55,3.5493,3.5493,3.55,3.5493,3.5493,3.5474,3.5364,3.5308,3.53,3.5223,3.5209,3.5209,3.5209,3.5196,3.5138,3.4831,3.445,3.4061,3.3868,3.3643,3.3437,3.3408,3.3393,3.3393,3.3393,3.3882,3.4461,3.4461,3.5512,3.6777,3.6941,3.7502,3.8082,3.8156,3.8088,3.8001,3.7984,3.7949,3.7897,3.7897,3.8002,3.8071,3.7932,3.7542,3.7193,3.7058,3.6101,3.5583,3.626,3.5749,3.5373,3.5604,3.5316,3.5041,3.4923,3.5479,3.5909,3.5992,3.7201,3.8004,3.8195,3.8808,3.9216,3.9299,3.9299,3.9299,3.9299,3.9299,3.9299,3.9299,3.9299,3.9325,3.9362,3.9362,3.9415,3.371,3.3507,3.3371,3.3609,0.0,0.0,3.4159,0.0,3.4688,0.0,0.0,0.0,0.0,0.0,0.0,0.0,3.5937,3.5927,0.0,0.0,3.5729,0.0,0.0,0.0,0.0,0.0,0.0,0.0,3.55,3.55,3.55,3.55,3.5521,3.5565,3.5528,3.5521,3.5565,3.5521,3.55,3.55,3.55,3.55,3.55,3.5364,3.5308,3.53,3.5223,3.5209,3.5209,3.5209,3.5193,3.5179,3.486,3.4591,3.4302,3.3947,3.3726,3.3619,3.3452,3.3393,3.3484,3.3954,3.432,3.4769,3.5711,3.6469,3.7104,3.7557,3.7937,3.8209,3.8209,3.8157,3.8105,3.8105,3.8105,3.8105,3.8105,3.8157,3.8174,3.814,3.7739,3.7487,3.7739,3.6862,3.6165,3.6253,3.5989,3.5655,3.5385,3.5211,3.5207,3.552,3.5827,3.6357,3.7218,3.7847,3.8394,3.8808,3.9133,3.9299,3.9299,3.9299,3.9299,3.9299,3.9299,3.9299,3.9299,3.9299,3.9441,3.9705,3.9441,3.9299,3.2649,0.0,0.0,0.0,0.0,0.0,0.0,0.0,0.0,0.0,0.0,0.0,0.0,0.0,3.5721,3.5875,0.0,3.5894,3.5859,3.5774,0.0,0.0,0.0,0.0,0.0,0.0,0.0,3.5501,3.5507,3.55,3.55,3.55,3.5528,3.5602,3.5541,3.5534,3.5607,3.5534,3.55,3.55,3.55,3.5493,3.5467,3.5357,3.53,3.5304,3.5234,3.5209,3.5209,3.5209,3.5149,3.5053,3.4803,3.4561,3.4353,3.3967,3.378,3.3684,3.3481,3.3538,3.3864,3.4663,3.5077,3.5476,3.6651,3.7158,3.7448,3.8046,3.8209,3.8209,3.8209,3.8209,3.8209,3.8209,3.8209,3.8209,3.8209,3.8209,3.8209,3.8209,3.7915,3.7792,3.814,3.7413,3.6666,3.646,3.6249,3.5902,3.5379,3.5395,3.5611,3.6065,3.6431,3.7086,3.8164,3.8446,3.8778,3.9319,3.9379,3.9405,3.9352,3.9379,3.9405,3.9369,3.9352,3.9325,3.9299,3.9299,3.9556,3.9978,3.9644,3.9582,0.0,0.0,0.0,3.262,0.0,0.0,0.0,0.0,3.4104,0.0,0.0,0.0,3.5294,3.5479,3.5668,3.587,3.5898,0.0,0.0,3.5887,3.5762,3.5716,0.0,0.0,0.0,3.5547,3.5509,3.5509,3.5508,3.55,3.55,3.55,3.5528,3.5602,3.5541,3.5534,3.5607,3.5534,3.55,3.55,3.55,3.546,3.5405,3.533,3.5304,3.5304,3.5226,3.5209,3.5209,3.5209,3.5054,3.4783,3.4518,3.4213,3.3921,3.3895,3.3739,3.3509,3.3422,3.3918,3.4682,3.5496,3.629,3.6922,3.6977,3.7538,3.8172,3.8191,3.8209,3.8209,3.8209,3.8209,3.8209,3.8209,3.8209,3.8209,3.8209,3.8209,3.8209,3.8209,3.8192,3.8174,3.8209,3.7486,3.698,3.723,3.6606,3.6054,3.5885,3.6162,3.637,3.6386,3.7553,3.8335,3.8385,3.9051,3.9468,3.9501,3.9616,3.9642,3.9501,3.9616,3.9642,3.9501,3.9501,3.9448,3.9299,3.9299,3.9556,4.0003,3.9978,4.0252,0.0,0.0,3.2073,3.2422,0.0,0.0,0.0,0.0,0.0,0.0,0.0,0.0,0.0,3.5339,3.5471,3.5681,3.58,3.589,0.0,3.5793,3.5722,3.5697,3.5648,3.5595,0.0,0.0,0.0,3.5508,3.5507,3.55,3.55,3.55,3.5528,3.5602,3.5541,3.5534,3.5607,3.5534,3.5486,3.5427,3.5427,3.5405,3.533,3.5304,3.53,3.5304,3.5226,3.5209,3.5209,3.5209,3.5072,3.4841,3.4572,3.4302,3.3998,3.3739,3.3549,3.3513,3.4009,3.4718,3.5514,3.6327,3.6777,3.7104,3.7629,3.7991,3.8209,3.8209,3.8209,3.8209,3.8209,3.8209,3.8209,3.8209,3.8209,3.8209,3.8209,3.8209,3.8209,3.8209,3.8209,3.8209,3.8209,3.7685,3.7209,3.6944,3.644,3.6134,3.6219,3.6337,3.6772,3.7735,3.8263,3.8739,3.9224,3.9492,3.9642,3.9642,3.9677,3.9677,3.9625,3.959,3.9554,3.9501,3.9405,3.9352,3.9299,3.9299,3.9556,4.0003,4.0003,4.0277,3.185,3.1984,0.0,3.2336,3.2406,0.0,3.2621,0.0,3.3255,0.0,0.0,0.0,0.0,3.5181,3.5341,3.5556,3.5718,3.5792,0.0,3.5754,3.5733,3.5702,3.5659,3.5626,3.5596,3.5566,3.5528,3.5508,3.5507,3.55,0.0,0.0,3.5528,3.5602,3.5541,3.5534,3.5607,3.5502,3.5446,3.5405,3.5372,3.5342,3.5304,3.53,3.5285,3.5269,3.5218,3.5209,3.5209,3.5209,3.5027,3.4791,3.4992,3.4843,3.448,3.4095,3.4098,3.4371,3.5168,3.5783,3.6363,3.7176,3.743,3.752,3.8046,3.8209,3.8209,3.8209,3.8209,3.8209,3.8209,3.8209,3.8209,3.8209,3.8209,3.8209,3.8209,3.8209,3.8209,3.8209,3.8209,3.8209,3.8209,3.7809,3.7322,3.6786,3.6395,3.6302,3.6666,3.6835,3.7451,3.8836,3.9026,3.9252,3.9722,3.9781,3.9781,3.9781,3.9833,3.9833,3.9781,3.9694,3.9616,3.9563,3.9432,3.9352,3.9299,3.9299,3.9556,4.0003,4.0003,4.0277]}]]